[[{"header":{"parameterUnit":"m.s-1","parameterCategory":1,"la1":31.0,"la2":29.5877,"lo1":-88.7671,"lo2":-86.6584,"dy":0.0162,"dx":0.0185,"nx":115,"ny":88,"refTime":"2023-10-15T18:00:00:Z","depth":0,"parameterNumber":2,"parameterNumberName":"U-component_of_WINDS"},"data":[0.0,0.0,0.0,0.0,0.0,0.0,0.0,0.0,0.0,0.0,0.0,0.0,0.0,0.0,0.0,0.0,0.0,0.0,0.0,0.0,0.0,0.0,0.0,0.0,0.0,0.0,0.0,0.0,0.0,0.0,0.0,0.0,0.0,0.0,0.0,0.0,0.0,0.0,0.0,0.0,0.0,0.0,0.0,0.0,0.0,0.0,0.0,0.0,0.0,0.0,0.0,0.0,0.0,0.0,0.0,0.0,0.0,0.0,0.0,0.0,0.0,0.0,0.0,0.0,0.0,0.0,0.0,0.0,0.0,0.0,0.0,0.0,0.0,0.0,0.0,0.0,0.0,0.0,0.0,0.0,0.0,0.0,0.0,0.0,0.0,0.0,0.0,0.0,0.0,0.0,0.0,0.0,0.0,0.0,0.0,0.0,0.0,0.0,0.0,0.0,0.0,0.0,0.0,0.0,0.0,0.0,0.0,0.0,0.0,0.0,0.0,0.0,0.0,0.0,0.0,0.0,0.0,0.0,0.0,0.0,0.0,0.0,0.0,0.0,0.0,0.0,0.0,0.0,0.0,0.0,0.0,0.0,0.0,0.0,0.0,0.0,0.0,0.0,0.0,0.0,0.0,0.0,0.0,0.0,0.0,0.0,0.0,0.0,0.0,0.0,0.0,0.0,0.0,0.0,0.0,0.0,0.0,0.0,0.0,0.0,0.0,0.0,0.0,0.0,0.0,0.0,0.0,0.0,0.0,0.0,0.0,0.0,0.0,0.0,0.0,0.0,0.0,0.0,0.0,0.0,0.0,0.0,0.0,0.0,0.0,0.0,0.0,0.0,0.0,0.0,0.0,0.0,0.0,0.0,0.0,0.0,0.0,0.0,0.0,0.0,0.0,0.0,0.0,0.0,0.0,0.0,0.0,0.0,0.0,0.0,0.0,0.0,0.0,0.0,0.0,0.0,0.0,0.0,0.0,0.0,0.0,0.0,0.0,0.0,0.0,0.0,0.0,0.0,0.0,0.0,0.0,0.0,0.0,0.0,0.0,0.0,0.0,0.0,0.0,0.0,0.0,0.0,0.0,0.0,0.0,0.0,0.0,0.0,0.0,0.0,0.0,0.0,0.0,0.0,0.0,0.0,0.0,0.0,0.0,0.0,0.0,0.0,0.0,0.0,0.0,0.0,0.0,0.0,0.0,0.0,0.0,0.0,0.0,0.0,0.0,0.0,0.0,0.0,0.0,0.0,0.0,0.0,0.0,0.0,0.0,0.0,0.0,0.0,0.0,0.0,0.0,0.0,0.0,0.0,0.0,0.0,0.0,0.0,0.0,0.0,0.0,0.0,0.0,0.0,0.0,0.0,0.0,0.0,0.0,0.0,0.0,0.0,0.0,0.0,0.0,0.0,0.0,0.0,0.0,0.0,0.0,0.0,0.0,0.0,0.0,0.0,0.0,0.0,0.0,0.0,0.0,0.0,0.0,0.0,0.0,0.0,0.0,0.0,0.0,0.0,0.0,0.0,0.0,0.0,0.0,0.0,0.0,0.0,0.0,0.0,0.0,0.0,0.0,0.0,0.0,0.0,0.0,0.0,0.0,0.0,0.0,0.0,0.0,0.0,0.0,0.0,0.0,0.0,0.0,0.0,0.0,0.0,0.0,0.0,0.0,0.0,0.0,0.0,0.0,0.0,0.0,0.0,0.0,0.0,0.0,0.0,0.0,0.0,0.0,0.0,0.0,0.0,0.0,0.0,0.0,0.0,0.0,0.0,0.0,0.0,0.0,0.0,0.0,0.0,0.0,0.0,0.0,0.0,0.0,0.0,0.0,0.0,0.0,0.0,0.0,0.0,0.0,0.0,0.0,0.0,0.0,0.0,0.0,0.0,0.0,0.0,0.0,0.0,0.0,0.0,0.0,0.0,0.0,0.0,0.0,0.0,0.0,0.0,0.0,0.0,0.0,0.0,0.0,0.0,0.0,0.0,0.0,0.0,0.0,0.0,0.0,0.0,0.0,0.0,0.0,0.0,0.0,0.0,0.0,0.0,0.0,0.0,0.0,0.0,0.0,0.0,0.0,0.0,0.0,0.0,0.0,0.0,0.0,0.0,0.0,0.0,0.0,0.0,0.0,0.0,0.0,0.0,0.0,0.0,0.0,0.0,0.0,0.0,0.0,0.0,0.0,0.0,0.0,0.0,0.0,0.0,0.0,0.0,0.0,0.0,0.0,0.0,0.0,0.0,0.0,0.0,0.0,0.0,0.0,0.0,0.0,0.0,0.0,0.0,0.0,0.0,0.0,0.0,0.0,0.0,0.0,0.0,0.0,0.0,0.0,0.0,0.0,0.0,0.0,0.0,0.0,0.0,0.0,0.0,0.0,0.0,0.0,0.0,0.0,0.0,0.0,0.0,0.0,0.0,0.0,0.0,0.0,0.0,0.0,0.0,0.0,0.0,0.0,0.0,0.0,0.0,0.0,0.0,0.0,0.0,0.0,0.0,0.0,0.0,0.0,0.0,0.0,0.0,0.0,0.0,0.0,0.0,0.0,0.0,0.0,0.0,0.0,0.0,0.0,0.0,0.0,0.0,0.0,0.0,0.0,0.0,0.0,0.0,0.0,0.0,0.0,0.0,0.0,0.0,0.0,0.0,0.0,0.0,0.0,0.0,0.0,0.0,0.0,0.0,0.0,0.0,0.0,0.0,0.0,0.0,0.0,0.0,0.0,0.0,0.0,0.0,0.0,0.0,0.0,0.0,0.0,0.0,0.0,0.0,0.0,0.0,0.0,0.0,0.0,0.0,0.0,0.0,0.0,0.0,0.0,0.0,0.0,0.0,0.0,0.0,0.0,0.0,0.0,0.0,0.0,0.0,0.0,0.0,0.0,0.0,0.0,0.0,0.0,0.0,0.0,0.0,0.0,0.0,0.0,0.0,0.0,0.0,0.0,0.0,0.0,0.0,0.0,0.0,0.0,0.0,0.0,0.0,0.0,0.0,0.0,0.0,0.0,0.0,0.0,0.0,0.0,0.0,0.0,0.0,0.0,0.0,0.0,0.0,0.0,0.0,0.0,0.0,0.0,0.0,0.0,0.0,0.0,0.0,0.0,0.0,0.0,0.0,0.0,0.0,0.0,0.0,0.0,0.0,0.0,0.0,0.0,0.0,0.0,0.0,0.0,0.0,0.0,0.0,0.0,0.0,0.0,0.0,0.0,0.0,0.0,0.0,0.0,0.0,0.0,0.0,0.0,0.0,0.0,0.0,0.0,0.0,0.0,0.0,0.0,0.0,0.0,0.0,0.0,0.0,0.0,0.0,0.0,0.0,0.0,0.0,0.0,0.0,0.0,0.0,0.0,0.0,0.0,0.0,0.0,0.0,0.0,0.0,0.0,0.0,0.0,0.0,0.0,0.0,0.0,0.0,0.0,0.0,0.0,0.0,0.0,0.0,0.0,0.0,0.0,0.0,0.0,0.0,0.0,0.0,0.0,0.0,0.0,0.0,0.0,0.0,0.0,0.0,0.0,0.0,0.0,0.0,0.0,0.0,0.0,0.0,0.0,0.0,0.0,0.0,0.0,0.0,0.0,0.0,0.0,0.0,0.0,0.0,0.0,0.0,0.0,0.0,0.0,0.0,0.0,0.0,0.0,0.0,0.0,0.0,0.0,0.0,0.0,0.0,0.0,0.0,0.0,0.0,0.0,0.0,0.0,0.0,0.0,0.0,0.0,0.0,0.0,0.0,0.0,0.0,0.0,0.0,0.0,0.0,0.0,0.0,0.0,0.0,0.0,0.0,0.0,0.0,0.0,0.0,0.0,0.0,0.0,0.0,0.0,0.0,0.0,0.0,0.0,0.0,0.0,0.0,0.0,0.0,0.0,0.0,0.0,0.0,0.0,0.0,0.0,0.0,0.0,0.0,0.0,0.0,0.0,0.0,0.0,0.0,0.0,0.0,0.0,0.0,0.0,0.0,0.0,0.0,0.0,0.0,0.0,0.0,0.0,0.0,0.0,0.0,0.0,0.0,0.0,0.0,0.0,0.0,0.0,0.0,0.0,0.0,0.0,0.0,0.0,0.0,0.0,0.0,0.0,0.0,0.0,0.0,0.0,0.0,0.0,0.0,0.0,0.0,0.0,0.0,0.0,0.0,0.0,0.0,0.0,0.0,0.0,0.0,0.0,0.0,0.0,0.0,0.0,0.0,0.0,0.0,0.0,0.0,0.0,0.0,0.0,0.0,0.0,0.0,0.0,0.0,0.0,0.0,0.0,0.0,0.0,0.0,0.0,0.0,-1.5241,0.0,0.0,0.0,0.0,0.0,0.0,0.0,0.0,0.0,0.0,0.0,0.0,0.0,0.0,0.0,0.0,0.0,0.0,0.0,0.0,0.0,0.0,0.0,0.0,0.0,0.0,0.0,0.0,0.0,0.0,0.0,0.0,0.0,0.0,0.0,0.0,0.0,0.0,0.0,0.0,0.0,0.0,0.0,0.0,0.0,0.0,0.0,0.0,0.0,0.0,0.0,0.0,0.0,0.0,0.0,0.0,0.0,0.0,0.0,0.0,0.0,0.0,0.0,0.0,0.0,0.0,0.0,0.0,0.0,0.0,0.0,0.0,0.0,0.0,0.0,0.0,0.0,0.0,0.0,0.0,0.0,0.0,0.0,0.0,0.0,0.0,0.0,0.0,0.0,0.0,0.0,0.0,0.0,0.0,0.0,0.0,0.0,0.0,0.0,0.0,0.0,0.0,0.0,0.0,0.0,0.0,0.0,0.0,0.0,0.0,-1.6884,-1.6871,-1.6884,-1.6539,-1.5863,0.0,0.0,0.0,0.0,0.0,0.0,0.0,0.0,0.0,0.0,0.0,0.0,0.0,0.0,0.0,0.0,0.0,0.0,0.0,0.0,0.0,0.0,0.0,0.0,0.0,0.0,0.0,0.0,0.0,0.0,0.0,0.0,0.0,0.0,0.0,0.0,0.0,0.0,0.0,0.0,0.0,0.0,0.0,0.0,0.0,0.0,0.0,0.0,0.0,0.0,0.0,0.0,0.0,0.0,0.0,0.0,0.0,0.0,0.0,0.0,0.0,0.0,0.0,0.0,0.0,0.0,0.0,0.0,0.0,0.0,0.0,0.0,0.0,0.0,0.0,0.0,0.0,0.0,0.0,0.0,0.0,0.0,0.0,0.0,0.0,0.0,0.0,0.0,0.0,0.0,0.0,0.0,0.0,0.0,0.0,0.0,0.0,0.0,0.0,0.0,0.0,0.0,0.0,0.0,0.0,0.0,0.0,0.0,0.0,0.0,0.0,0.0,-1.7344,-1.6961,-1.6108,0.0,0.0,0.0,0.0,0.0,0.0,0.0,0.0,0.0,0.0,0.0,0.0,0.0,0.0,0.0,0.0,0.0,0.0,0.0,0.0,0.0,0.0,0.0,0.0,0.0,0.0,0.0,0.0,0.0,0.0,0.0,0.0,0.0,0.0,0.0,0.0,0.0,0.0,0.0,0.0,0.0,0.0,0.0,0.0,0.0,0.0,0.0,0.0,0.0,0.0,0.0,0.0,0.0,0.0,0.0,0.0,0.0,0.0,0.0,0.0,0.0,0.0,0.0,0.0,0.0,0.0,0.0,0.0,0.0,0.0,0.0,0.0,0.0,0.0,0.0,0.0,0.0,0.0,0.0,0.0,0.0,0.0,0.0,0.0,0.0,0.0,0.0,0.0,0.0,0.0,0.0,0.0,0.0,0.0,0.0,0.0,0.0,0.0,0.0,0.0,0.0,0.0,0.0,0.0,0.0,0.0,0.0,0.0,0.0,0.0,-1.7828,-1.7842,-1.7842,0.0,-1.5912,0.0,0.0,0.0,0.0,0.0,0.0,0.0,0.0,0.0,0.0,0.0,0.0,0.0,0.0,0.0,0.0,0.0,0.0,0.0,0.0,0.0,0.0,0.0,0.0,0.0,0.0,0.0,0.0,0.0,0.0,0.0,0.0,0.0,0.0,0.0,0.0,0.0,0.0,0.0,0.0,0.0,0.0,0.0,0.0,0.0,0.0,0.0,0.0,0.0,0.0,0.0,0.0,0.0,0.0,0.0,0.0,0.0,0.0,0.0,0.0,0.0,0.0,0.0,0.0,0.0,0.0,0.0,0.0,0.0,0.0,0.0,0.0,0.0,0.0,0.0,0.0,0.0,0.0,0.0,0.0,0.0,0.0,0.0,0.0,0.0,0.0,0.0,0.0,0.0,0.0,0.0,0.0,0.0,0.0,0.0,0.0,0.0,0.0,0.0,0.0,0.0,0.0,0.0,0.0,0.0,0.0,0.0,0.0,0.0,0.0,-1.8155,-1.8262,-1.8262,-1.7603,0.0,0.0,0.0,0.0,0.0,0.0,0.0,0.0,0.0,0.0,0.0,0.0,0.0,0.0,0.0,0.0,0.0,0.0,0.0,0.0,0.0,0.0,0.0,0.0,0.0,0.0,0.0,0.0,0.0,0.0,0.0,0.0,0.0,0.0,0.0,0.0,0.0,0.0,0.0,0.0,0.0,0.0,0.0,0.0,0.0,0.0,0.0,0.0,0.0,0.0,0.0,0.0,0.0,0.0,0.0,0.0,0.0,0.0,0.0,0.0,0.0,0.0,0.0,0.0,0.0,0.0,0.0,0.0,0.0,0.0,0.0,0.0,0.0,0.0,0.0,0.0,0.0,0.0,0.0,0.0,0.0,0.0,0.0,0.0,0.0,0.0,0.0,0.0,0.0,0.0,0.0,0.0,0.0,0.0,0.0,0.0,0.0,0.0,0.0,0.0,0.0,0.0,0.0,0.0,0.0,0.0,0.0,0.0,0.0,0.0,-1.8431,-1.8548,-1.8659,-1.8667,-1.7984,-1.6592,0.0,0.0,0.0,0.0,0.0,0.0,0.0,0.0,0.0,0.0,0.0,0.0,0.0,0.0,0.0,0.0,0.0,0.0,0.0,0.0,0.0,0.0,0.0,0.0,0.0,0.0,0.0,0.0,0.0,0.0,0.0,0.0,0.0,0.0,0.0,0.0,0.0,0.0,0.0,0.0,0.0,0.0,0.0,0.0,0.0,0.0,0.0,0.0,0.0,0.0,0.0,0.0,0.0,0.0,0.0,0.0,0.0,0.0,0.0,0.0,0.0,0.0,0.0,0.0,0.0,0.0,0.0,0.0,0.0,0.0,0.0,0.0,0.0,0.0,0.0,0.0,0.0,0.0,0.0,0.0,0.0,0.0,0.0,0.0,0.0,0.0,0.0,0.0,0.0,0.0,0.0,0.0,0.0,0.0,0.0,0.0,0.0,0.0,0.0,0.0,0.0,0.0,0.0,0.0,0.0,0.0,0.0,0.0,-1.8592,-1.8831,-1.8998,-1.9064,-1.9017,-1.8338,0.0,0.0,0.0,0.0,0.0,0.0,0.0,0.0,0.0,0.0,0.0,0.0,0.0,0.0,0.0,0.0,0.0,0.0,0.0,0.0,0.0,0.0,0.0,0.0,0.0,0.0,0.0,0.0,0.0,0.0,0.0,0.0,0.0,0.0,0.0,0.0,0.0,0.0,0.0,0.0,0.0,0.0,0.0,0.0,0.0,0.0,0.0,0.0,0.0,0.0,0.0,0.0,0.0,0.0,0.0,0.0,0.0,0.0,0.0,0.0,0.0,0.0,0.0,0.0,0.0,0.0,0.0,0.0,0.0,0.0,0.0,0.0,0.0,0.0,0.0,0.0,0.0,0.0,0.0,0.0,0.0,0.0,0.0,0.0,0.0,0.0,0.0,0.0,0.0,0.0,0.0,0.0,0.0,0.0,0.0,0.0,0.0,0.0,0.0,0.0,0.0,0.0,0.0,0.0,0.0,0.0,0.0,0.0,0.0,-1.8912,-1.9134,-1.928,-1.9302,-1.9261,-1.8597,0.0,0.0,0.0,0.0,0.0,0.0,0.0,0.0,0.0,0.0,0.0,0.0,0.0,0.0,0.0,0.0,0.0,0.0,0.0,0.0,0.0,0.0,0.0,0.0,0.0,0.0,0.0,0.0,0.0,0.0,0.0,0.0,0.0,0.0,0.0,0.0,0.0,0.0,0.0,0.0,0.0,0.0,0.0,0.0,0.0,0.0,0.0,0.0,0.0,0.0,0.0,0.0,0.0,0.0,0.0,0.0,0.0,0.0,0.0,0.0,0.0,0.0,0.0,0.0,0.0,0.0,0.0,0.0,0.0,0.0,0.0,0.0,0.0,0.0,0.0,0.0,0.0,0.0,0.0,0.0,0.0,0.0,0.0,0.0,0.0,0.0,0.0,0.0,0.0,0.0,0.0,0.0,0.0,0.0,0.0,0.0,0.0,0.0,0.0,0.0,0.0,0.0,0.0,0.0,0.0,0.0,0.0,0.0,0.0,-1.9191,0.0,-1.9505,-1.9487,-1.9468,-1.8812,0.0,0.0,0.0,0.0,0.0,0.0,0.0,0.0,0.0,0.0,0.0,0.0,0.0,0.0,0.0,0.0,0.0,0.0,0.0,0.0,0.0,0.0,0.0,0.0,0.0,0.0,0.0,0.0,0.0,0.0,0.0,0.0,0.0,0.0,0.0,0.0,0.0,0.0,0.0,0.0,0.0,0.0,0.0,0.0,0.0,0.0,0.0,0.0,0.0,0.0,0.0,0.0,0.0,0.0,0.0,0.0,0.0,0.0,0.0,0.0,0.0,0.0,0.0,0.0,0.0,0.0,0.0,0.0,0.0,0.0,0.0,0.0,0.0,0.0,0.0,0.0,0.0,0.0,0.0,0.0,0.0,0.0,0.0,0.0,0.0,0.0,0.0,0.0,0.0,0.0,0.0,0.0,0.0,0.0,0.0,0.0,0.0,0.0,0.0,0.0,0.0,0.0,0.0,0.0,0.0,0.0,0.0,0.0,-1.8927,-1.9362,-1.9536,-1.9585,-1.966,-1.9573,-1.8924,0.0,0.0,0.0,0.0,0.0,0.0,0.0,0.0,0.0,0.0,0.0,0.0,0.0,0.0,0.0,0.0,0.0,0.0,0.0,0.0,0.0,0.0,0.0,0.0,0.0,0.0,0.0,0.0,0.0,0.0,0.0,0.0,0.0,0.0,0.0,0.0,0.0,0.0,0.0,0.0,0.0,0.0,0.0,0.0,0.0,0.0,0.0,0.0,0.0,0.0,0.0,0.0,0.0,0.0,0.0,0.0,0.0,0.0,0.0,0.0,0.0,0.0,0.0,0.0,0.0,0.0,0.0,0.0,0.0,0.0,0.0,0.0,0.0,0.0,0.0,0.0,0.0,0.0,0.0,0.0,0.0,0.0,0.0,0.0,0.0,0.0,0.0,0.0,0.0,0.0,0.0,0.0,0.0,0.0,0.0,0.0,0.0,0.0,0.0,0.0,0.0,0.0,0.0,0.0,0.0,0.0,0.0,0.0,0.0,-1.8688,-1.8448,-1.8326,-1.8311,-1.831,-1.7873,0.0,0.0,0.0,0.0,0.0,0.0,0.0,0.0,0.0,0.0,0.0,0.0,0.0,0.0,0.0,0.0,0.0,0.0,0.0,0.0,0.0,0.0,0.0,0.0,0.0,0.0,0.0,0.0,0.0,0.0,0.0,0.0,0.0,0.0,0.0,0.0,0.0,0.0,0.0,0.0,0.0,0.0,0.0,0.0,0.0,0.0,0.0,0.0,0.0,0.0,0.0,0.0,0.0,0.0,0.0,0.0,0.0,0.0,0.0,0.0,0.0,0.0,0.0,0.0,0.0,0.0,0.0,0.0,0.0,0.0,0.0,0.0,0.0,0.0,0.0,0.0,0.0,0.0,0.0,0.0,0.0,0.0,0.0,0.0,0.0,0.0,0.0,0.0,0.0,0.0,0.0,0.0,0.0,0.0,0.0,0.0,0.0,0.0,0.0,0.0,0.0,0.0,0.0,0.0,0.0,0.0,0.0,0.0,0.0,-1.7974,-1.7792,-1.7699,-1.7699,-1.7731,-1.7432,-1.6803,0.0,0.0,0.0,0.0,0.0,0.0,0.0,0.0,0.0,0.0,0.0,0.0,0.0,0.0,0.0,0.0,0.0,0.0,0.0,0.0,0.0,0.0,0.0,0.0,0.0,0.0,0.0,0.0,0.0,0.0,0.0,0.0,0.0,0.0,0.0,0.0,0.0,0.0,0.0,0.0,0.0,0.0,0.0,0.0,0.0,0.0,0.0,0.0,0.0,0.0,0.0,0.0,0.0,0.0,0.0,0.0,0.0,0.0,0.0,0.0,0.0,0.0,0.0,0.0,0.0,0.0,0.0,0.0,0.0,0.0,0.0,0.0,0.0,0.0,0.0,0.0,0.0,0.0,0.0,0.0,0.0,0.0,0.0,0.0,0.0,0.0,0.0,0.0,0.0,0.0,0.0,0.0,0.0,0.0,0.0,0.0,0.0,0.0,0.0,0.0,0.0,0.0,0.0,0.0,0.0,0.0,0.0,0.0,-1.7282,-1.7476,-1.7563,-1.7579,-1.7629,-1.7437,0.0,0.0,0.0,0.0,0.0,0.0,0.0,0.0,0.0,0.0,0.0,0.0,0.0,0.0,0.0,0.0,0.0,0.0,0.0,0.0,0.0,0.0,0.0,0.0,0.0,0.0,0.0,0.0,0.0,0.0,0.0,0.0,0.0,0.0,0.0,0.0,0.0,0.0,0.0,0.0,0.0,0.0,0.0,0.0,0.0,0.0,0.0,0.0,0.0,0.0,0.0,0.0,0.0,0.0,0.0,0.0,0.0,0.0,0.0,0.0,0.0,0.0,0.0,0.0,0.0,0.0,0.0,0.0,0.0,0.0,0.0,0.0,0.0,0.0,0.0,0.0,0.0,0.0,0.0,0.0,0.0,0.0,0.0,0.0,0.0,0.0,0.0,0.0,0.0,0.0,0.0,0.0,0.0,0.0,0.0,0.0,0.0,0.0,0.0,0.0,0.0,0.0,0.0,0.0,0.0,0.0,0.0,0.0,0.0,-1.7052,-1.6461,-1.6189,-1.6293,-1.6367,-1.6322,0.0,0.0,0.0,0.0,0.0,0.0,0.0,0.0,0.0,0.0,0.0,0.0,0.0,0.0,0.0,0.0,0.0,0.0,0.0,0.0,0.0,0.0,0.0,0.0,0.0,0.0,0.0,0.0,0.0,0.0,0.0,0.0,0.0,0.0,0.0,0.0,0.0,0.0,0.0,0.0,0.0,0.0,0.0,0.0,0.0,0.0,0.0,0.0,0.0,0.0,0.0,0.0,0.0,0.0,0.0,0.0,0.0,0.0,0.0,0.0,0.0,0.0,0.0,0.0,0.0,0.0,0.0,0.0,0.0,0.0,0.0,0.0,0.0,0.0,0.0,0.0,0.0,0.0,0.0,0.0,0.0,0.0,0.0,0.0,0.0,0.0,0.0,0.0,0.0,0.0,0.0,0.0,0.0,0.0,0.0,0.0,0.0,0.0,0.0,0.0,0.0,0.0,0.0,0.0,0.0,0.0,0.0,0.0,-1.6629,-1.6563,-1.5884,-1.558,-1.5711,-1.587,-1.5942,0.0,0.0,0.0,0.0,0.0,0.0,0.0,0.0,0.0,0.0,0.0,0.0,0.0,0.0,0.0,0.0,0.0,0.0,0.0,0.0,0.0,0.0,0.0,0.0,0.0,0.0,0.0,0.0,0.0,0.0,0.0,0.0,0.0,0.0,0.0,0.0,0.0,0.0,0.0,0.0,0.0,0.0,0.0,0.0,0.0,0.0,0.0,0.0,0.0,0.0,0.0,0.0,0.0,0.0,0.0,0.0,0.0,0.0,0.0,0.0,0.0,0.0,0.0,0.0,0.0,0.0,0.0,0.0,0.0,0.0,0.0,0.0,0.0,0.0,0.0,0.0,0.0,0.0,0.0,0.0,0.0,0.0,0.0,0.0,0.0,0.0,0.0,0.0,0.0,0.0,0.0,0.0,0.0,0.0,0.0,0.0,0.0,0.0,0.0,0.0,0.0,0.0,0.0,0.0,0.0,0.0,0.0,0.0,-1.6184,-1.5966,-1.5588,-1.5477,-1.5595,-1.5854,-1.5982,0.0,0.0,0.0,0.0,0.0,0.0,0.0,0.0,0.0,0.0,0.0,0.0,0.0,0.0,0.0,0.0,0.0,0.0,0.0,0.0,0.0,0.0,0.0,0.0,0.0,0.0,0.0,0.0,0.0,0.0,0.0,0.0,0.0,0.0,0.0,0.0,0.0,0.0,0.0,0.0,0.0,0.0,0.0,0.0,0.0,0.0,0.0,0.0,0.0,0.0,0.0,0.0,0.0,0.0,0.0,0.0,0.0,0.0,0.0,0.0,0.0,0.0,0.0,0.0,0.0,0.0,0.0,0.0,0.0,0.0,0.0,0.0,0.0,0.0,0.0,0.0,0.0,0.0,0.0,0.0,0.0,0.0,0.0,0.0,0.0,0.0,0.0,0.0,0.0,0.0,0.0,0.0,0.0,0.0,0.0,0.0,0.0,0.0,0.0,0.0,0.0,0.0,0.0,0.0,0.0,0.0,0.0,0.0,-1.6097,-1.5688,-1.5495,-1.5433,-1.5536,-1.5841,-1.5982,0.0,0.0,0.0,0.0,0.0,0.0,0.0,0.0,0.0,0.0,0.0,0.0,0.0,0.0,0.0,0.0,0.0,0.0,0.0,0.0,0.0,0.0,0.0,0.0,0.0,0.0,0.0,0.0,0.0,0.0,0.0,0.0,0.0,0.0,0.0,0.0,0.0,0.0,0.0,0.0,0.0,0.0,0.0,0.0,0.0,0.0,0.0,0.0,-1.1387,0.0,0.0,0.0,0.0,0.0,0.0,0.0,0.0,0.0,0.0,0.0,0.0,0.0,0.0,0.0,0.0,0.0,0.0,0.0,0.0,0.0,0.0,0.0,0.0,0.0,0.0,0.0,0.0,0.0,0.0,0.0,0.0,0.0,0.0,0.0,0.0,0.0,0.0,0.0,0.0,0.0,0.0,0.0,0.0,0.0,0.0,0.0,0.0,0.0,0.0,0.0,0.0,0.0,0.0,0.0,0.0,0.0,0.0,0.0,-1.5718,-1.5108,-1.5169,-1.5285,-1.5463,-1.5755,-1.5912,0.0,0.0,0.0,0.0,0.0,0.0,0.0,0.0,0.0,0.0,0.0,0.0,0.0,0.0,0.0,0.0,0.0,0.0,0.0,0.0,0.0,0.0,0.0,0.0,0.0,0.0,0.0,0.0,0.0,0.0,0.0,0.0,0.0,0.0,0.0,0.0,0.0,0.0,0.0,0.0,0.0,0.0,0.0,0.0,0.0,0.0,0.0,0.0,0.0,0.0,0.0,0.0,0.0,0.0,0.0,0.0,0.0,0.0,0.0,0.0,0.0,0.0,0.0,0.0,0.0,0.0,0.0,0.0,0.0,0.0,0.0,0.0,0.0,0.0,0.0,0.0,0.0,0.0,0.0,0.0,0.0,0.0,0.0,0.0,0.0,0.0,0.0,0.0,0.0,0.0,0.0,0.0,0.0,0.0,0.0,0.0,0.0,0.0,0.0,0.0,0.0,0.0,0.0,0.0,0.0,0.0,0.0,-1.5488,-1.5176,-1.4493,-1.4797,-1.5089,-1.5374,-1.561,-1.5799,-1.5842,0.0,0.0,0.0,0.0,0.0,0.0,0.0,0.0,0.0,0.0,0.0,0.0,0.0,0.0,0.0,0.0,0.0,0.0,0.0,0.0,0.0,0.0,0.0,0.0,0.0,0.0,0.0,0.0,0.0,0.0,0.0,0.0,0.0,0.0,0.0,0.0,0.0,0.0,-0.9845,-1.0609,0.0,0.0,0.0,0.0,0.0,0.0,0.0,0.0,-1.2889,0.0,0.0,0.0,0.0,0.0,0.0,0.0,0.0,0.0,0.0,0.0,0.0,0.0,0.0,0.0,0.0,0.0,0.0,0.0,0.0,0.0,0.0,0.0,0.0,0.0,0.0,0.0,0.0,0.0,0.0,0.0,0.0,0.0,0.0,0.0,0.0,0.0,0.0,0.0,0.0,0.0,0.0,0.0,0.0,0.0,0.0,0.0,0.0,0.0,0.0,0.0,0.0,0.0,0.0,0.0,0.0,-1.4928,-1.4826,-1.4589,-1.4192,-1.4608,-1.4965,-1.5237,-1.5433,-1.558,-1.5668,0.0,0.0,0.0,0.0,0.0,0.0,0.0,0.0,0.0,0.0,0.0,0.0,0.0,0.0,0.0,0.0,0.0,0.0,0.0,0.0,0.0,0.0,0.0,0.0,0.0,0.0,0.0,0.0,0.0,0.0,0.0,0.0,0.0,0.0,0.0,0.0,0.0,0.0,0.0,-1.1185,-1.1736,0.0,0.0,0.0,0.0,0.0,0.0,0.0,0.0,-1.2839,0.0,0.0,0.0,0.0,0.0,0.0,0.0,0.0,0.0,0.0,0.0,0.0,0.0,0.0,0.0,0.0,0.0,0.0,0.0,0.0,0.0,0.0,0.0,0.0,0.0,0.0,0.0,0.0,0.0,0.0,0.0,0.0,0.0,0.0,0.0,0.0,0.0,0.0,0.0,0.0,0.0,0.0,0.0,0.0,0.0,0.0,0.0,0.0,0.0,0.0,0.0,0.0,0.0,0.0,0.0,-1.4663,-1.4386,-1.4149,-1.3957,-1.4259,-1.4608,-1.4979,-1.5223,-1.5388,0.0,0.0,0.0,0.0,0.0,0.0,0.0,0.0,0.0,0.0,0.0,0.0,0.0,0.0,0.0,0.0,0.0,0.0,0.0,0.0,0.0,0.0,0.0,0.0,0.0,0.0,0.0,0.0,0.0,0.0,0.0,0.0,0.0,0.0,0.0,0.0,0.0,0.0,0.0,0.0,-1.1551,-1.2025,-1.2489,0.0,0.0,0.0,0.0,0.0,0.0,-1.3321,-1.3373,0.0,0.0,0.0,0.0,0.0,0.0,0.0,0.0,0.0,0.0,0.0,0.0,0.0,0.0,0.0,0.0,0.0,0.0,0.0,0.0,0.0,0.0,0.0,0.0,0.0,0.0,0.0,0.0,0.0,0.0,0.0,0.0,0.0,0.0,0.0,0.0,0.0,0.0,0.0,0.0,0.0,0.0,0.0,0.0,0.0,0.0,0.0,0.0,0.0,0.0,0.0,0.0,0.0,0.0,0.0,-1.4344,-1.3864,-1.3611,-1.3633,-1.3848,-1.4195,-1.4637,-1.4903,-1.5133,0.0,0.0,0.0,0.0,0.0,0.0,0.0,0.0,0.0,0.0,0.0,0.0,0.0,0.0,0.0,0.0,0.0,0.0,0.0,0.0,0.0,0.0,0.0,0.0,0.0,0.0,0.0,0.0,0.0,0.0,0.0,0.0,0.0,0.0,0.0,0.0,0.0,0.0,0.0,0.0,0.0,-1.2258,-1.2731,-1.2843,0.0,0.0,0.0,0.0,-1.3654,-1.3729,0.0,0.0,0.0,0.0,0.0,0.0,0.0,0.0,0.0,0.0,0.0,0.0,0.0,0.0,0.0,0.0,0.0,0.0,0.0,0.0,0.0,0.0,0.0,0.0,0.0,0.0,0.0,0.0,0.0,0.0,0.0,0.0,0.0,0.0,0.0,0.0,0.0,0.0,0.0,0.0,0.0,0.0,0.0,0.0,0.0,0.0,0.0,0.0,0.0,0.0,0.0,0.0,0.0,0.0,0.0,0.0,-1.3749,-1.2991,-1.271,-1.3012,-1.3391,-1.3719,-1.4068,-1.4406,-1.4719,0.0,0.0,0.0,0.0,0.0,0.0,0.0,0.0,0.0,0.0,0.0,0.0,0.0,0.0,0.0,0.0,0.0,0.0,0.0,0.0,0.0,0.0,0.0,0.0,0.0,0.0,0.0,0.0,0.0,0.0,0.0,0.0,0.0,0.0,0.0,0.0,0.0,0.0,0.0,0.0,0.0,-1.2522,-1.2782,-1.3062,-1.3257,0.0,0.0,0.0,-1.3785,-1.3793,0.0,0.0,0.0,0.0,0.0,0.0,0.0,0.0,0.0,0.0,0.0,0.0,0.0,0.0,0.0,0.0,0.0,0.0,0.0,0.0,0.0,0.0,0.0,0.0,0.0,0.0,0.0,0.0,0.0,0.0,0.0,0.0,0.0,0.0,0.0,0.0,0.0,0.0,0.0,0.0,0.0,0.0,0.0,0.0,0.0,0.0,0.0,0.0,0.0,0.0,0.0,0.0,0.0,0.0,0.0,-1.3004,-1.3084,-1.2316,-1.2066,-1.2425,-1.2708,-1.3045,-1.3539,-1.3842,-1.4136,0.0,0.0,0.0,0.0,0.0,0.0,0.0,0.0,0.0,0.0,0.0,0.0,0.0,0.0,0.0,0.0,0.0,0.0,0.0,0.0,0.0,0.0,0.0,0.0,0.0,0.0,0.0,0.0,0.0,0.0,0.0,0.0,0.0,0.0,0.0,0.0,0.0,0.0,0.0,0.0,0.0,0.0,-1.2611,-1.2917,0.0,0.0,0.0,-1.3655,-1.3621,0.0,0.0,0.0,0.0,0.0,0.0,0.0,0.0,0.0,0.0,0.0,0.0,0.0,0.0,0.0,0.0,0.0,0.0,0.0,0.0,0.0,0.0,0.0,0.0,0.0,0.0,0.0,0.0,0.0,0.0,0.0,0.0,0.0,0.0,0.0,0.0,0.0,0.0,0.0,0.0,0.0,0.0,0.0,0.0,0.0,0.0,0.0,0.0,0.0,0.0,0.0,0.0,0.0,0.0,0.0,0.0,0.0,-1.2436,-1.1628,-1.1423,-1.1792,-1.1963,-1.2312,-1.2871,-1.317,0.0,0.0,0.0,0.0,0.0,0.0,0.0,0.0,0.0,0.0,0.0,0.0,0.0,0.0,0.0,0.0,0.0,0.0,0.0,0.0,0.0,0.0,0.0,0.0,0.0,0.0,0.0,0.0,0.0,0.0,0.0,0.0,0.0,0.0,0.0,0.0,0.0,0.0,0.0,0.0,0.0,0.0,-1.2412,-1.2461,-1.28,-1.3035,0.0,0.0,-1.3487,-1.3487,-1.3869,-1.4145,0.0,0.0,0.0,0.0,0.0,0.0,0.0,0.0,0.0,0.0,0.0,0.0,0.0,0.0,0.0,0.0,0.0,0.0,0.0,0.0,0.0,0.0,0.0,0.0,0.0,0.0,0.0,0.0,0.0,0.0,0.0,0.0,0.0,0.0,0.0,0.0,0.0,0.0,0.0,0.0,0.0,0.0,0.0,0.0,0.0,0.0,0.0,0.0,0.0,0.0,0.0,0.0,0.0,0.0,0.0,-1.173,-1.0915,-1.063,-1.0962,-1.1244,-1.1579,-1.1982,-1.2372,-1.2731,0.0,0.0,0.0,0.0,0.0,0.0,0.0,0.0,0.0,0.0,0.0,0.0,0.0,0.0,0.0,0.0,0.0,0.0,0.0,0.0,0.0,0.0,0.0,0.0,0.0,0.0,0.0,0.0,0.0,0.0,0.0,0.0,0.0,0.0,0.0,0.0,0.0,0.0,0.0,0.0,0.0,-1.2251,-1.2403,-1.2856,-1.3165,0.0,0.0,-1.3499,-1.3499,-1.3513,-1.3572,-1.3528,0.0,0.0,0.0,0.0,0.0,0.0,0.0,0.0,0.0,0.0,0.0,0.0,0.0,0.0,0.0,0.0,0.0,0.0,0.0,0.0,0.0,0.0,0.0,0.0,0.0,0.0,0.0,0.0,0.0,0.0,0.0,0.0,0.0,0.0,0.0,0.0,0.0,0.0,0.0,0.0,0.0,0.0,0.0,0.0,0.0,0.0,0.0,0.0,0.0,0.0,0.0,0.0,0.0,-1.1209,-1.0958,-1.0445,-1.0187,-1.0225,-1.0428,-1.0734,-1.1151,-1.1516,-1.1872,0.0,0.0,0.0,0.0,0.0,0.0,0.0,0.0,0.0,0.0,0.0,0.0,0.0,0.0,0.0,0.0,0.0,0.0,0.0,0.0,0.0,0.0,0.0,0.0,0.0,0.0,0.0,0.0,-0.7536,-0.7507,-0.7583,0.0,0.0,0.0,0.0,0.0,0.0,0.0,0.0,0.0,0.0,-1.1625,-1.1666,-1.2147,0.0,0.0,-1.2643,-1.2746,-1.2753,-1.2863,-1.29,-1.279,-1.2757,0.0,0.0,0.0,0.0,0.0,0.0,0.0,0.0,0.0,0.0,0.0,0.0,0.0,0.0,0.0,0.0,0.0,0.0,0.0,0.0,0.0,0.0,0.0,0.0,0.0,0.0,0.0,0.0,0.0,0.0,0.0,0.0,0.0,0.0,0.0,0.0,0.0,0.0,0.0,0.0,0.0,0.0,0.0,0.0,0.0,0.0,0.0,0.0,0.0,0.0,0.0,0.0,-1.0576,-1.0115,-0.9774,-0.9534,-0.9419,-0.9608,-0.9884,-1.0293,-1.0629,-1.1,0.0,0.0,0.0,0.0,0.0,0.0,0.0,0.0,0.0,0.0,0.0,0.0,0.0,0.0,0.0,0.0,0.0,0.0,0.0,0.0,0.0,0.0,0.0,0.0,0.0,0.0,0.0,0.0,-0.7333,-0.726,-0.7382,0.0,0.0,0.0,0.0,0.0,0.0,0.0,0.0,0.0,0.0,-1.0779,-1.0822,-1.1249,-1.1552,-1.1621,-1.1827,-1.1978,-1.2062,-1.2219,-1.2301,-1.2106,0.0,0.0,0.0,0.0,0.0,0.0,0.0,0.0,0.0,0.0,0.0,0.0,0.0,0.0,0.0,0.0,0.0,0.0,0.0,0.0,0.0,0.0,0.0,0.0,0.0,0.0,0.0,0.0,0.0,0.0,0.0,0.0,0.0,0.0,0.0,0.0,0.0,0.0,0.0,0.0,0.0,0.0,0.0,0.0,0.0,0.0,0.0,0.0,0.0,0.0,0.0,0.0,0.0,0.0,-0.9244,-0.8856,-0.8592,-0.8529,-0.8728,-0.897,-0.9319,-0.9708,-1.0089,-1.0448,0.0,0.0,0.0,0.0,0.0,0.0,0.0,0.0,0.0,0.0,0.0,0.0,0.0,0.0,0.0,0.0,0.0,0.0,0.0,0.0,0.0,0.0,0.0,0.0,0.0,0.0,-0.7478,-0.7186,-0.7115,0.0,0.0,0.0,0.0,0.0,0.0,0.0,0.0,0.0,0.0,-0.9556,-0.9836,-0.9916,-1.0288,-1.0604,-1.0788,-1.1022,-1.1276,-1.1443,-1.1684,-1.1736,0.0,0.0,0.0,0.0,0.0,0.0,0.0,0.0,0.0,0.0,0.0,0.0,0.0,0.0,0.0,0.0,0.0,0.0,0.0,0.0,0.0,0.0,0.0,0.0,0.0,0.0,0.0,-1.6576,-1.5824,0.0,0.0,0.0,0.0,0.0,0.0,0.0,0.0,0.0,0.0,0.0,-1.1166,-1.0742,0.0,0.0,0.0,0.0,0.0,0.0,0.0,0.0,0.0,0.0,0.0,0.0,-0.9249,-0.8379,-0.8215,-0.8001,-0.7781,-0.7876,-0.8095,-0.8423,-0.8711,-0.9348,-1.0419,0.0,0.0,0.0,0.0,0.0,0.0,0.0,0.0,0.0,0.0,0.0,0.0,0.0,0.0,0.0,0.0,0.0,0.0,0.0,0.0,0.0,0.0,0.0,0.0,0.0,-0.7056,0.0,0.0,0.0,0.0,0.0,0.0,0.0,0.0,0.0,0.0,0.0,-0.8281,-0.8445,-0.8708,-0.8892,-0.8922,-0.9361,-0.971,0.0,0.0,0.0,0.0,0.0,0.0,0.0,0.0,0.0,0.0,0.0,0.0,0.0,0.0,-0.8903,-0.8942,-0.9288,-0.96,-0.9515,0.0,0.0,0.0,0.0,0.0,0.0,0.0,0.0,0.0,0.0,0.0,0.0,0.0,0.0,0.0,0.0,-1.4979,0.0,0.0,0.0,0.0,0.0,0.0,0.0,0.0,-1.0629,-1.013,-0.9627,-0.9314,-0.8994,0.0,-0.8479,-0.8633,0.0,0.0,0.0,0.0,0.0,0.0,0.0,0.0,-0.8435,-0.7434,-0.7373,-0.7203,-0.687,-0.6985,-0.7182,-0.7488,-0.7841,-0.8617,-0.9829,-1.0207,-1.0809,0.0,0.0,0.0,0.0,0.0,0.0,0.0,0.0,0.0,0.0,0.0,0.0,0.0,0.0,0.0,0.0,0.0,0.0,0.0,0.0,0.0,0.0,0.0,-0.6688,0.0,0.0,0.0,0.0,0.0,0.0,0.0,0.0,0.0,-0.741,-0.7425,-0.7393,-0.7506,-0.7739,-0.7903,-0.8025,0.0,0.0,0.0,0.0,0.0,0.0,0.0,-0.9582,-0.9498,-0.9306,-0.9089,-0.8828,-0.8657,-0.8363,-0.7958,0.0,0.0,-0.8473,-0.8812,-0.9042,-0.8928,-0.9253,-0.951,-0.951,-0.951,-0.9518,0.0,0.0,0.0,0.0,0.0,0.0,0.0,0.0,-1.5548,-1.477,0.0,-1.357,0.0,0.0,0.0,0.0,0.0,0.0,0.0,0.0,-0.942,-0.8771,-0.8004,-0.7957,-0.7674,-0.7167,-0.7134,-0.7129,-0.719,-0.8495,0.0,0.0,0.0,0.0,0.0,0.0,-0.7295,-0.6387,-0.635,-0.6166,-0.5804,-0.6013,-0.6258,-0.6474,-0.7091,-0.7817,-0.8612,-0.9098,-0.966,-1.0307,-1.0609,0.0,0.0,0.0,0.0,0.0,0.0,0.0,0.0,0.0,0.0,0.0,0.0,0.0,0.0,0.0,0.0,0.0,0.0,0.0,0.0,-0.6635,0.0,0.0,0.0,0.0,0.0,0.0,0.0,0.0,0.0,0.0,-0.6335,-0.6566,-0.6584,-0.6394,0.0,0.0,0.0,0.0,-0.7711,-0.8082,-0.8369,-0.8602,-0.8769,-0.8969,-0.9008,-0.8838,0.0,0.0,-0.7573,-0.74,-0.7275,-0.6998,-0.7151,-0.7399,-0.7903,-0.8068,-0.8176,-0.8157,-0.8372,-0.8548,-0.8544,-0.8548,-0.8544,-1.7878,0.0,0.0,0.0,0.0,-1.6202,-1.5405,-1.4626,-1.3767,-1.3137,-1.2798,-1.2375,0.0,0.0,0.0,0.0,0.0,0.0,-0.9,-0.8531,-0.8049,-0.7471,-0.685,-0.6728,-0.6404,-0.5921,-0.5782,-0.5617,-0.5536,-0.5972,-0.6811,-0.7924,0.0,0.0,0.0,0.0,-0.6252,-0.5452,-0.5313,-0.5194,-0.5102,-0.5064,-0.5238,-0.5626,-0.6161,-0.6777,-0.7467,-0.7913,-0.8473,-0.9226,-0.951,0.0,0.0,0.0,0.0,0.0,0.0,0.0,0.0,0.0,0.0,0.0,0.0,0.0,0.0,0.0,0.0,0.0,0.0,0.0,-0.6358,-0.5866,-0.5547,0.0,0.0,0.0,0.0,0.0,0.0,0.0,0.0,0.0,-0.4141,-0.4999,-0.5577,0.0,0.0,-0.6025,-0.6067,-0.6402,-0.6649,-0.6734,0.0,0.0,0.0,-0.7177,-0.7177,-0.7132,-0.6915,-0.6653,-0.6296,-0.6274,-0.6316,-0.6222,-0.6253,-0.6354,-0.6508,-0.6969,-0.7258,-0.7218,-0.7363,-0.7536,-0.7536,-0.7536,-0.7536,-1.5038,-1.5865,-1.6283,-1.6003,-1.5286,-1.4481,-1.3682,-1.2841,-1.2065,-1.1569,-1.1254,-1.0831,-1.0441,-1.0152,-1.0053,0.0,0.0,0.0,-0.7857,-0.7368,-0.6836,-0.6311,-0.5745,-0.5484,-0.5166,-0.4778,-0.459,-0.4403,-0.4268,-0.4322,-0.4826,-0.5668,0.0,0.0,-0.5555,-0.5416,-0.5031,-0.4351,-0.4213,-0.4157,-0.4143,-0.4227,-0.4417,-0.4739,-0.5257,-0.5766,-0.6269,-0.6773,-0.7308,-0.79,-0.8296,-0.8508,0.0,0.0,0.0,0.0,0.0,0.0,0.0,0.0,0.0,0.0,0.0,-0.8763,0.0,0.0,0.0,0.0,-0.6747,-0.615,-0.5727,-0.5222,0.0,0.0,0.0,0.0,0.0,0.0,0.0,-0.3204,-0.2892,-0.2703,-0.2713,-0.3371,-0.4064,-0.4622,-0.4836,-0.4989,-0.52,0.0,-0.5608,-0.5695,-0.5805,-0.5852,-0.5855,-0.5852,-0.5808,-0.5716,-0.5633,-0.5455,-0.5188,-0.52,-0.5239,-0.5287,-0.5287,-0.5287,-0.5242,-0.5647,-0.6082,-0.632,-0.6476,-0.6517,-0.6561,-0.6564,-0.6561,-1.1977,-1.1903,-1.3536,-1.3926,-1.3429,-1.274,-1.2011,-1.1227,-1.054,-0.9959,-0.9512,-0.9057,-0.8846,-0.8803,-0.8604,0.0,0.0,-0.7509,-0.6961,-0.6243,-0.5769,-0.5243,-0.4643,-0.4291,-0.4009,-0.3778,-0.358,-0.3409,-0.3287,-0.3247,-0.3156,-0.3005,-0.4055,-0.4442,-0.4193,-0.403,-0.3739,-0.3228,-0.3167,-0.3096,-0.3036,-0.3414,-0.3678,-0.3843,-0.4378,-0.4819,-0.5137,-0.5747,-0.6206,-0.6487,-0.7069,-0.7385,-0.7417,0.0,0.0,0.0,0.0,0.0,0.0,0.0,0.0,0.0,0.0,0.0,0.0,0.0,0.0,0.0,-0.595,0.0,-0.5045,-0.4649,0.0,0.0,0.0,-0.3529,-0.3131,-0.2728,-0.2362,-0.2154,0.0,0.0,0.0,0.0,-0.2329,-0.3414,-0.3705,-0.3972,-0.4461,-0.4539,-0.4636,-0.4761,-0.4825,-0.4832,-0.4786,-0.4786,-0.4741,-0.4559,-0.4559,-0.4474,-0.4253,-0.421,-0.4166,-0.417,-0.4166,-0.421,-0.4164,-0.4216,-0.4476,-0.5277,-0.5542,-0.5589,-0.5586,-0.5575,-0.5562,-1.0156,-0.9832,-1.0069,-1.0657,-1.1361,-1.0764,-1.0295,-0.9892,-0.9159,-0.8655,-0.8247,-0.7833,-0.7437,-0.7153,-0.6874,-0.6596,-0.6323,-0.5653,-0.5208,-0.4993,-0.4489,-0.4005,-0.3577,-0.3485,-0.3179,-0.2678,-0.2533,-0.2369,-0.2151,-0.2042,-0.193,-0.1898,-0.1971,-0.2366,-0.3045,-0.295,-0.2723,-0.2461,-0.2404,-0.2389,-0.2425,-0.2647,-0.2926,-0.3199,-0.3488,-0.389,-0.4422,-0.478,-0.5171,-0.5592,-0.5982,-0.6308,-0.6502,-0.7097,0.0,0.0,0.0,0.0,0.0,0.0,0.0,0.0,0.0,-0.7755,-0.7333,0.0,-0.6362,0.0,-0.5083,-0.4506,-0.4397,-0.3801,0.0,0.0,-0.2782,-0.2329,-0.2288,-0.1752,-0.1369,-0.1304,-0.111,-0.0991,-0.1026,-0.0999,-0.1181,-0.1696,-0.2376,-0.2931,-0.3191,-0.3233,-0.3277,-0.3325,-0.3364,-0.3401,-0.3441,-0.3403,-0.34,-0.3312,-0.3357,-0.3314,-0.327,-0.3226,-0.3226,-0.3226,-0.3224,-0.3226,-0.3221,-0.3224,-0.3312,-0.358,-0.4117,-0.4654,-0.4652,-0.4594,-0.4585,-0.8455,-0.8164,-0.7797,-0.8057,-0.8709,-0.886,-0.8738,-0.8439,-0.7861,-0.7352,-0.6913,-0.6433,-0.6053,-0.5679,-0.5454,-0.5127,-0.4769,-0.4303,-0.3983,-0.3802,-0.3288,-0.2941,-0.2702,-0.2478,-0.2181,-0.1843,-0.1668,-0.142,-0.1182,-0.1044,-0.0949,-0.0834,-0.0678,-0.0876,-0.1377,-0.161,-0.168,-0.1624,-0.1598,-0.1631,-0.1639,-0.1912,-0.2124,-0.234,-0.2726,-0.311,-0.3442,-0.3844,-0.4206,-0.4529,-0.4835,-0.5148,-0.5482,-0.6006,-0.6474,0.0,0.0,0.0,0.0,0.0,0.0,0.0,0.0,0.0,0.0,0.0,-0.5571,0.0,-0.4321,0.0,-0.3711,-0.3149,-0.2759,-0.263,-0.2018,-0.1594,-0.1573,-0.1078,-0.0743,-0.0734,-0.053,-0.0367,-0.0407,-0.037,-0.05,-0.0757,-0.1223,-0.1695,-0.2092,-0.2181,-0.2181,-0.2183,-0.2204,-0.2221,-0.2221,-0.2222,-0.2221,-0.2221,-0.2221,-0.2221,-0.2221,-0.2221,-0.2222,-0.2222,-0.2222,-0.2221,-0.2221,-0.2221,-0.2221,-0.2308,-0.2656,-0.3102,-0.3568,-0.3604,-0.3594,-0.6801,-0.6706,-0.617,-0.5956,-0.6035,-0.6947,-0.7192,-0.6954,-0.6542,-0.6121,-0.5562,-0.5043,-0.4635,-0.436,-0.4154,-0.384,-0.3399,-0.3238,-0.2991,-0.2673,-0.2213,-0.193,-0.1887,-0.1423,-0.1177,-0.1112,-0.0882,-0.0589,-0.0308,-0.0252,-0.014,0.0112,0.014,0.0168,0.0308,-0.0196,-0.0533,-0.0757,-0.0841,-0.0865,-0.0813,-0.1163,-0.1366,-0.1425,-0.1991,-0.2346,-0.2384,-0.2918,-0.3269,-0.3433,-0.3694,-0.4035,-0.4387,-0.493,-0.542,0.0,-0.6076,0.0,0.0,0.0,0.0,0.0,0.0,0.0,0.0,-0.5128,-0.4662,-0.4122,-0.364,-0.3253,-0.2971,-0.2588,-0.22,-0.1812,-0.1406,-0.1099,-0.0936,-0.057,-0.0325,-0.0284,-0.008,0.0079,0.0081,0.0081,-0.0041,-0.0207,-0.0246,-0.049,-0.0995,-0.1252,-0.1339,-0.1256,-0.1258,-0.1309,-0.1309,-0.1306,-0.1348,-0.1347,-0.135,-0.1303,-0.1348,-0.1348,-0.1304,-0.1347,-0.135,-0.1348,-0.1304,-0.1304,-0.1304,-0.1349,-0.143,-0.1688,-0.2401,-0.2635,-0.2642,-0.519,-0.4915,-0.4773,-0.4726,-0.4763,-0.476,-0.5112,-0.5668,-0.5404,-0.4873,-0.41,-0.3756,-0.342,-0.3074,-0.2976,-0.2691,-0.2291,-0.2058,-0.1828,-0.159,-0.1374,-0.1114,-0.0808,-0.0689,-0.0494,-0.0255,-0.0084,0.0084,0.0252,0.0421,0.0561,0.0729,0.0729,0.0813,0.0926,0.0,0.0,0.0,-0.0136,-0.0212,-0.0263,-0.0435,-0.0665,-0.0921,-0.1168,0.0,-0.1744,-0.198,-0.2209,-0.2464,-0.2809,0.0,0.0,0.0,0.0,0.0,0.0,0.0,0.0,0.0,0.0,0.0,-0.4611,-0.4665,-0.4865,-0.4171,-0.3598,-0.3341,-0.2919,-0.2536,-0.2155,-0.1765,-0.1425,-0.1169,-0.0771,-0.0488,-0.0488,-0.0122,0.0162,0.0159,0.0354,0.0472,0.0474,0.0474,0.0476,0.0399,0.0397,0.0396,0.0239,-0.0405,-0.0736,-0.0615,-0.0581,-0.0588,-0.0589,-0.0714,-0.0796,-0.0842,-0.0841,-0.0799,-0.0798,-0.0798,-0.0841,-0.0798,-0.0841,-0.0841,-0.0841,-0.0842,-0.0797,-0.0841,-0.0829,-0.0989,-0.1514,-0.1621,-0.1638,-0.3951,0.0,-0.368,-0.3606,0.0,-0.3288,-0.3405,-0.3795,-0.4094,-0.3793,-0.3076,-0.2709,-0.2386,-0.2107,-0.1972,-0.1668,-0.127,-0.1116,-0.0907,-0.0671,-0.0515,-0.0344,-0.0154,0.0029,0.0171,0.0365,0.0477,0.0673,0.0841,0.0954,0.1122,0.1345,0.1344,0.1456,0.1625,0.1794,0.1513,0.0757,0.0606,0.0492,0.0382,0.0188,-0.0027,-0.0218,0.0,0.0,0.0,0.0,0.0,0.0,0.0,0.0,0.0,0.0,0.0,-0.364,-0.3725,-0.3854,-0.3973,-0.3752,-0.3585,-0.3607,-0.3228,-0.3288,-0.3876,-0.3212,-0.2741,-0.2547,-0.2235,-0.1884,-0.1452,-0.1139,-0.0829,-0.0559,-0.02,0.0,0.012,0.032,0.0438,0.0473,0.0629,0.0746,0.0746,0.0864,0.0943,0.0943,0.0943,0.0943,0.0904,0.0396,0.0,0.008,0.0081,0.0081,0.0081,0.0041,-0.0081,-0.0081,-0.0041,-0.0081,-0.0041,-0.0041,-0.0081,-0.0041,-0.0041,-0.0041,-0.0081,-0.0081,-0.0041,-0.0081,-0.004,-0.012,-0.0406,-0.0685,-0.096,-0.2781,-0.2704,-0.2549,-0.2433,-0.2393,-0.204,-0.1917,-0.1905,0.0,0.0,0.0,-0.1729,-0.1457,-0.1217,-0.1078,-0.0756,-0.037,-0.0336,-0.0168,0.0168,0.0287,0.0372,0.04,0.0698,0.0847,0.0869,0.101,0.1206,0.1458,0.1458,0.1653,0.1931,0.1959,0.2071,0.2322,0.2519,0.2268,0.1598,0.1373,0.1205,0.1093,0.0785,0.0589,0.0561,0.0224,0.0028,0.0,-0.014,-0.0336,-0.0646,-0.0699,-0.1051,-0.1663,-0.1784,-0.21,-0.2614,-0.2554,-0.2583,-0.279,-0.2534,-0.2383,-0.2453,-0.1972,-0.1998,-0.2779,-0.2352,-0.1922,-0.1686,-0.1532,-0.1218,-0.0746,-0.055,-0.0314,0.0079,0.0275,0.0471,0.0629,0.0746,0.0825,0.0786,0.1021,0.1139,0.1178,0.1375,0.1492,0.1453,0.1453,0.1453,0.1375,0.1022,0.0748,0.0788,0.079,0.0788,0.0787,0.0709,0.0707,0.0592,0.063,0.0629,0.0629,0.0629,0.0629,0.0552,0.0589,0.0591,0.059,0.0552,0.0629,0.0629,0.0629,0.0629,0.055,0.0079,-0.0393,-0.1568,-0.1217,-0.1178,-0.106,-0.0903,-0.0864,-0.0698,-0.0645,-0.1407,-0.1408,-0.0844,-0.0721,-0.0509,-0.0203,-0.0169,-0.0034,0.0202,0.0303,0.047,0.0,0.0878,0.1012,0.108,0.1221,0.1356,0.1462,0.1596,0.182,0.2045,0.2073,0.224,0.2521,0.2579,0.2659,0.2794,0.2935,0.288,0.2683,0.2153,0.1874,0.1847,0.1566,0.1343,0.1178,0.101,0.0869,0.0757,0.0617,0.0449,0.0225,0.0,-0.0246,-0.0525,-0.0974,-0.1272,-0.1377,-0.1614,-0.1701,-0.1641,-0.1617,-0.1439,-0.1206,-0.0929,-0.1059,-0.1724,-0.1569,-0.1256,-0.0825,-0.0746,-0.0511,0.0039,0.0157,0.0275,0.0511,0.0707,0.0825,0.0904,0.1218,0.1454,0.1454,0.1805,0.2,0.1999,0.2157,0.2237,0.2118,0.208,0.2002,0.1847,0.1612,0.1454,0.1454,0.1454,0.1454,0.1415,0.1297,0.114,0.0904,0.0904,0.0864,0.0746,0.0707,0.0707,0.0629,0.0707,0.0668,0.0668,0.0629,0.0668,0.0707,0.0707,0.0707,0.0707,0.0511,0.0314,-0.0275,-0.0079,-0.0079,-0.0039,0.0039,0.0157,0.0349,0.053,0.0187,-0.0036,-0.0105,0.0035,0.0205,0.0437,0.0538,0.0673,0.0841,0.1009,0.121,0.1409,0.1567,0.1696,0.186,0.1929,0.2018,0.2131,0.2232,0.2434,0.2685,0.2685,0.2854,0.3193,0.3272,0.3325,0.3408,0.3519,0.3549,0.3463,0.2822,0.2462,0.2382,0.2184,0.2045,0.1961,0.1709,0.1569,0.1484,0.1372,0.1176,0.0897,0.0805,0.0617,0.0278,0.0033,-0.0168,-0.0336,-0.047,-0.0608,-0.065,-0.0634,-0.0473,-0.0113,0.0,0.0039,-0.0039,-0.0392,-0.0393,0.0,0.0079,0.0275,0.0786,0.0943,0.1022,0.114,0.1297,0.1492,0.1608,0.1765,0.1963,0.2081,0.2356,0.251,0.251,0.2707,0.2785,0.2707,0.2707,0.263,0.2553,0.2474,0.2238,0.1886,0.1769,0.1769,0.1769,0.1691,0.1573,0.1454,0.1454,0.1415,0.1297,0.1297,0.1297,0.1297,0.1297,0.1297,0.1297,0.1297,0.1297,0.1297,0.1297,0.1297,0.1297,0.114,0.0786,0.0942,0.0981,0.0982,0.0982,0.1021,0.1178,0.136,0.1567,0.1527,0.1265,0.0822,0.0815,0.0871,0.1019,0.1221,0.1353,0.1447,0.1681,0.1884,0.208,0.2235,0.2432,0.2602,0.2638,0.2723,0.288,0.2956,0.3109,0.3283,0.3306,0.3462,0.3724,0.3882,0.3935,0.3907,0.3993,0.4021,0.3965,0.3436,0.3105,0.294,0.2828,0.2717,0.2687,0.2408,0.2237,0.2183,0.2069,0.1849,0.1519,0.1569,0.1407,0.1051,0.1004,0.0901,0.0604,0.0538,0.0437,0.0269,0.0246,0.0402,0.0749,0.0807,0.0976,0.1295,0.0825,0.0511,0.0786,0.0825,0.1021,0.1414,0.161,0.1767,0.1806,0.1964,0.2159,0.2353,0.243,0.2588,0.2784,0.2982,0.3098,0.3139,0.3256,0.3374,0.3335,0.3295,0.3256,0.3256,0.3217,0.2865,0.2473,0.22,0.22,0.2161,0.22,0.2161,0.2082,0.2004,0.1925,0.1887,0.1848,0.1887,0.1808,0.1848,0.1808,0.1887,0.1848,0.1848,0.1808,0.1769,0.1848,0.1808,0.1612,0.1179,0.1882,0.204,0.204,0.2156,0.2315,0.2354,0.2349,0.2344,0.2189,0.2195,0.2211,0.1688,0.1505,0.1644,0.1816,0.1896,0.1887,0.2188,0.2456,0.2653,0.2848,0.3072,0.3324,0.3416,0.3583,0.3684,0.3807,0.3889,0.392,0.3943,0.4006,0.4154,0.4325,0.4359,0.4196,0.4196,0.4138,0.3993,0.3938,0.3827,0.3685,0.3552,0.3444,0.3332,0.3105,0.2935,0.2822,0.2689,0.2465,0.2161,0.2174,0.2126,0.191,0.1717,0.1571,0.1476,0.1311,0.1143,0.101,0.1003,0.114,0.1388,0.1425,0.1537,0.1843,0.1769,0.1651,0.1572,0.1533,0.1689,0.204,0.2157,0.2235,0.2393,0.2591,0.2785,0.3015,0.3212,0.3446,0.3684,0.3841,0.396,0.396,0.4114,0.4153,0.3999,0.3843,0.3724,0.3724,0.3565,0.3409,0.3253,0.31,0.2984,0.2945,0.2982,0.2787,0.2511,0.2433,0.2356,0.2121,0.2005,0.1926,0.2123,0.2005,0.2005,0.1965,0.1887,0.1925,0.1965,0.1965,0.1925,0.1887,0.1848,0.1533,0.3095,0.3134,0.3136,0.3214,0.3255,0.3136,0.3056,0.3018,0.2824,0.2809,0.286,0.2676,0.2496,0.2333,0.2618,0.2722,0.2656,0.2995,0.3239,0.336,0.3525,0.377,0.4088,0.4175,0.4276,0.4443,0.4556,0.4639,0.471,0.479,0.4852,0.4917,0.4994,0.4948,0.4805,0.4798,0.4696,0.4546,0.4515,0.4515,0.4405,0.4049,0.3802,0.3747,0.3605,0.3491,0.3436,0.3302,0.3079,0.2775,0.2801,0.2771,0.2613,0.2503,0.2478,0.2412,0.2115,0.1882,0.1749,0.176,0.1843,0.2108,0.2201,0.2332,0.2585,0.2631,0.2553,0.2474,0.2277,0.2315,0.2668,0.2746,0.2824,0.3018,0.3095,0.3292,0.3645,0.3878,0.4112,0.4309,0.4504,0.4618,0.4657,0.4693,0.4657,0.4504,0.4389,0.4309,0.4192,0.4034,0.3992,0.3992,0.3917,0.3645,0.3295,0.31,0.3022,0.2904,0.2863,0.2747,0.2671,0.263,0.2631,0.2592,0.2553,0.2514,0.2473,0.2434,0.2434,0.2316,0.2238,0.2238,0.212,0.208,0.1845,0.4114,0.4112,0.4075,0.4038,0.4036,0.3839,0.372,0.3643,0.3452,0.3413,0.3452,0.3565,0.3461,0.328,0.3397,0.3411,0.3441,0.3747,0.3968,0.411,0.424,0.4492,0.4848,0.4925,0.5067,0.5246,0.537,0.5415,0.5494,0.5567,0.5612,0.5612,0.5646,0.561,0.5496,0.5485,0.5393,0.5212,0.5162,0.5111,0.5048,0.4619,0.4322,0.4242,0.4132,0.4021,0.399,0.386,0.3635,0.3302,0.3318,0.3336,0.3254,0.3237,0.3234,0.3209,0.2885,0.2653,0.249,0.252,0.2587,0.2764,0.2832,0.2941,0.3083,0.31,0.3139,0.3178,0.2981,0.2981,0.3217,0.3295,0.3411,0.3643,0.3722,0.3917,0.4309,0.4501,0.4737,0.4935,0.5049,0.5165,0.5165,0.5162,0.5087,0.5012,0.4973,0.4893,0.4776,0.4696,0.4618,0.4618,0.454,0.419,0.3608,0.3528,0.3452,0.3376,0.3376,0.3335,0.3256,0.3217,0.3139,0.2943,0.3061,0.3061,0.2865,0.2826,0.2824,0.2707,0.2628,0.2589,0.2511,0.247,0.2354,0.4965,0.4927,0.4737,0.4659,0.4623,0.4462,0.4345,0.4343,0.4155,0.4155,0.4268,0.4155,0.4265,0.4547,0.4149,0.3983,0.4152,0.4354,0.461,0.4951,0.4976,0.5185,0.5557,0.5749,0.5947,0.61,0.6196,0.6213,0.6163,0.6161,0.6186,0.6168,0.6285,0.6289,0.6173,0.6169,0.6104,0.5952,0.5789,0.569,0.5669,0.5405,0.514,0.4927,0.4715,0.4574,0.4463,0.4276,0.4055,0.3769,0.3789,0.3814,0.3848,0.3891,0.3845,0.3763,0.3589,0.3355,0.3202,0.3277,0.3295,0.3237,0.3315,0.3322,0.3246,0.3217,0.3333,0.3487,0.3606,0.3724,0.3765,0.3763,0.3919,0.4268,0.4504,0.4696,0.4929,0.5085,0.5323,0.5482,0.5556,0.5598,0.5598,0.5562,0.5565,0.5533,0.553,0.5539,0.5481,0.5347,0.5271,0.5196,0.4998,0.4626,0.4389,0.4151,0.4114,0.4038,0.3882,0.3884,0.3684,0.3487,0.3372,0.3255,0.3335,0.3295,0.3139,0.3061,0.3061,0.3022,0.2982,0.2943,0.2925,0.303,0.2962,0.5401,0.5401,0.5323,0.5287,0.5246,0.5049,0.4971,0.4929,0.4774,0.4735,0.481,0.4851,0.5007,0.5273,0.523,0.5144,0.5032,0.5208,0.5534,0.5909,0.5969,0.6148,0.6476,0.6579,0.6624,0.6709,0.6709,0.6682,0.6655,0.6638,0.6735,0.6831,0.6894,0.6899,0.6852,0.686,0.6734,0.6572,0.649,0.6459,0.6459,0.6357,0.6234,0.6022,0.535,0.4904,0.4763,0.468,0.4612,0.4567,0.4574,0.4621,0.4709,0.4826,0.4721,0.448,0.4359,0.4225,0.3938,0.3893,0.393,0.3921,0.3948,0.3973,0.3934,0.3919,0.3995,0.4073,0.4151,0.4229,0.4348,0.427,0.4343,0.4696,0.4849,0.5046,0.5321,0.5553,0.5709,0.5825,0.5948,0.6067,0.6025,0.6028,0.6025,0.5988,0.6007,0.5962,0.591,0.585,0.5791,0.5807,0.5688,0.5566,0.5525,0.4772,0.4384,0.4307,0.4268,0.4231,0.4112,0.407,0.3995,0.3878,0.3841,0.3686,0.3606,0.3335,0.3335,0.3217,0.3217,0.341,0.3362,0.3481,0.3473,0.5831,0.5831,0.575,0.5754,0.5792,0.5592,0.555,0.5589,0.5467,0.5389,0.5431,0.5547,0.5744,0.6012,0.6167,0.6273,0.6218,0.6208,0.6388,0.6792,0.682,0.6973,0.7153,0.7215,0.7259,0.7263,0.7265,0.7267,0.7319,0.7269,0.7335,0.7456,0.7461,0.7459,0.7463,0.7506,0.7455,0.7353,0.7304,0.733,0.7295,0.7265,0.7111,0.6864,0.6218,0.5656,0.5341,0.5316,0.5302,0.5323,0.5342,0.5382,0.5525,0.5636,0.5561,0.5229,0.5163,0.5016,0.476,0.4737,0.4692,0.47,0.4705,0.4699,0.4608,0.4577,0.4618,0.4616,0.4654,0.4774,0.4854,0.4818,0.489,0.5085,0.5198,0.5395,0.5676,0.5906,0.6018,0.606,0.618,0.6261,0.6306,0.6347,0.6333,0.6308,0.631,0.6314,0.6303,0.6284,0.6284,0.6284,0.6223,0.6134,0.6036,0.5508,0.5121,0.5068,0.4915,0.4818,0.4667,0.4623,0.4579,0.4501,0.4384,0.4268,0.4036,0.3724,0.3569,0.3491,0.3685,0.3928,0.3923,0.396,0.4,0.6303,0.6261,0.6018,0.6099,0.6219,0.6057,0.6015,0.6167,0.6205,0.6202,0.6163,0.6202,0.6472,0.6822,0.6861,0.7199,0.749,0.718,0.7177,0.7488,0.7479,0.7546,0.7691,0.7757,0.7818,0.7835,0.7931,0.8073,0.8199,0.8024,0.7924,0.8007,0.7959,0.7972,0.8004,0.814,0.8178,0.8174,0.8174,0.8182,0.8191,0.8028,0.7781,0.749,0.7365,0.6991,0.6272,0.619,0.6083,0.6018,0.5962,0.6049,0.6156,0.6294,0.6222,0.5973,0.5903,0.5803,0.5638,0.5683,0.5649,0.551,0.5542,0.5375,0.5154,0.5082,0.5082,0.5121,0.5201,0.5279,0.5318,0.544,0.5479,0.5362,0.5592,0.5825,0.5941,0.6138,0.6296,0.6257,0.63,0.6303,0.6334,0.6409,0.6464,0.6536,0.6586,0.668,0.6679,0.6651,0.6687,0.6646,0.6567,0.6515,0.638,0.6233,0.6072,0.5919,0.5743,0.5579,0.5266,0.5157,0.4973,0.4893,0.4735,0.4618,0.4579,0.4307,0.4268,0.424,0.4423,0.4492,0.4584,0.4676,0.4699,0.6588,0.6528,0.656,0.6633,0.6714,0.6633,0.6633,0.671,0.6826,0.6868,0.6907,0.7019,0.7246,0.748,0.7514,0.7787,0.8169,0.8127,0.8129,0.8123,0.8114,0.8275,0.85,0.8478,0.8442,0.8422,0.8449,0.8513,0.8542,0.8316,0.8276,0.8361,0.8368,0.8414,0.856,0.8694,0.8759,0.8748,0.8879,0.8897,0.877,0.8828,0.8688,0.8417,0.8385,0.8096,0.7601,0.6937,0.6589,0.6639,0.6524,0.6553,0.6662,0.6715,0.6705,0.6654,0.6671,0.6646,0.6577,0.6411,0.6342,0.6231,0.6124,0.596,0.5854,0.5815,0.5854,0.5819,0.5783,0.5705,0.5709,0.5789,0.5786,0.5705,0.5822,0.598,0.6138,0.6219,0.6296,0.63,0.63,0.634,0.6426,0.6508,0.6569,0.6739,0.682,0.6836,0.6923,0.6927,0.696,0.696,0.687,0.683,0.6718,0.6645,0.6593,0.6354,0.6223,0.6059,0.5769,0.5547,0.5394,0.5243,0.5087,0.501,0.4971,0.4929,0.4851,0.4847,0.4917,0.5081,0.5292,0.5385,0.5347,0.6781,0.6802,0.6933,0.7061,0.7146,0.7278,0.7383,0.7473,0.7659,0.7722,0.777,0.7884,0.8033,0.823,0.8343,0.8498,0.8749,0.8976,0.8971,0.8756,0.8746,0.8865,0.9089,0.9003,0.8975,0.9016,0.8965,0.8964,0.902,0.8762,0.8711,0.8788,0.8851,0.892,0.9081,0.9369,0.9534,0.9523,0.967,0.9681,0.9559,0.9552,0.944,0.9189,0.9081,0.892,0.857,0.7866,0.741,0.7302,0.714,0.7113,0.7199,0.7244,0.7214,0.718,0.7246,0.7285,0.7286,0.7143,0.7066,0.7017,0.6878,0.6738,0.6707,0.6668,0.6668,0.6556,0.6479,0.6363,0.6286,0.6212,0.6173,0.6173,0.6099,0.6138,0.6257,0.63,0.63,0.6306,0.6344,0.6419,0.6487,0.661,0.6698,0.6856,0.6933,0.6977,0.7071,0.7085,0.7095,0.7092,0.7061,0.7048,0.7078,0.7061,0.7041,0.6824,0.6603,0.6391,0.6163,0.594,0.5774,0.5545,0.5365,0.5323,0.5285,0.5285,0.521,0.5314,0.5396,0.5577,0.5787,0.5955,0.5961,0.6984,0.7147,0.7282,0.7425,0.7639,0.794,0.8162,0.8387,0.8572,0.8597,0.8647,0.8665,0.8801,0.9064,0.918,0.9296,0.9379,0.9592,0.9554,0.9374,0.9329,0.9367,0.9316,0.9329,0.9412,0.9498,0.939,0.9421,0.951,0.931,0.9227,0.9222,0.9359,0.9486,0.9569,1.0072,1.0307,1.0293,1.0432,1.0492,1.0446,1.0237,1.0014,0.9865,0.973,0.9542,0.932,0.8961,0.8538,0.8077,0.7811,0.7705,0.7782,0.7827,0.7776,0.766,0.7768,0.7834,0.7841,0.7764,0.7792,0.7778,0.7727,0.7748,0.748,0.7442,0.7369,0.7261,0.7204,0.7134,0.6937,0.6737,0.662,0.6557,0.6362,0.6306,0.6313,0.6323,0.6347,0.6371,0.6443,0.6535,0.6576,0.6756,0.6878,0.6966,0.7054,0.7065,0.7085,0.7095,0.7095,0.7095,0.7095,0.7095,0.7095,0.7092,0.7071,0.7028,0.682,0.6684,0.6481,0.6273,0.6116,0.5882,0.5701,0.5655,0.5691,0.5697,0.5737,0.5851,0.5944,0.6113,0.6242,0.6393,0.6339,0.7862,0.7861,0.8182,0.8331,0.8371,0.8508,0.8562,0.8648,0.886,0.8991,0.8973,0.9082,0.9315,0.949,0.9582,0.97,0.9832,1.0059,1.0015,0.9862,0.9963,0.9815,0.9613,0.9657,0.9771,0.9793,0.9739,0.9793,0.9809,0.9588,0.9486,0.9511,0.9684,0.974,0.9817,1.0299,1.0541,1.0604,1.0863,1.0942,1.0834,1.0865,1.0771,1.063,1.0543,1.0368,1.0121,0.9753,0.918,0.8485,0.8258,0.8243,0.8368,0.8424,0.8383,0.8372,0.8418,0.8438,0.8416,0.8312,0.8273,0.8237,0.8131,0.7983,0.7944,0.7949,0.791,0.7821,0.7749,0.7608,0.7505,0.7188,0.6924,0.6678,0.6486,0.6361,0.6433,0.646,0.6494,0.6566,0.6614,0.6681,0.6776,0.6868,0.6933,0.7011,0.7061,0.7095,0.7095,0.7095,0.7095,0.7095,0.7095,0.7095,0.7095,0.7095,0.7092,0.7092,0.7028,0.692,0.6755,0.6545,0.6378,0.6181,0.611,0.608,0.6149,0.6185,0.6294,0.6273,0.6433,0.6567,0.6672,0.6807,0.6609,0.8354,0.8496,0.8712,0.8841,0.8855,0.9137,0.9257,0.9317,0.9601,0.9713,0.9755,0.9839,0.9964,1.0131,1.0225,1.0248,1.03,1.0496,1.0446,1.0301,1.0354,1.0167,0.985,0.9846,0.9884,0.9884,0.9884,0.9879,0.9895,0.9782,0.9728,0.9775,0.9983,1.0096,1.0149,1.073,1.1045,1.111,1.1346,1.1442,1.1338,1.1283,1.1224,1.1121,1.1052,1.0852,1.0506,1.0194,0.9708,0.9113,0.8806,0.876,0.882,0.8822,0.8851,0.8836,0.8916,0.8928,0.8827,0.8708,0.8594,0.8513,0.8403,0.8415,0.8474,0.8501,0.8471,0.8479,0.8298,0.8144,0.7971,0.7558,0.7146,0.6915,0.6623,0.6521,0.6563,0.6569,0.6607,0.6688,0.6759,0.682,0.6883,0.6933,0.7007,0.7068,0.7085,0.7095,0.7095,0.7095,0.7095,0.7095,0.7095,0.7095,0.7095,0.7095,0.7095,0.7095,0.7088,0.7041,0.6903,0.6742,0.66,0.6464,0.6491,0.6484,0.6494,0.6535,0.6556,0.6632,0.6812,0.69,0.6967,0.7001,0.6845,0.8696,0.9061,0.9137,0.9142,0.9275,0.9764,1.0015,1.0134,1.0434,1.06,1.06,1.0669,1.058,1.0733,1.0785,1.0829,1.0684,1.09,1.0828,1.0678,1.0565,1.0367,1.0033,0.9986,0.9932,0.9895,0.9884,0.9884,0.9873,0.9906,0.9873,0.9954,1.0248,1.0453,1.0539,1.1162,1.1576,1.1641,1.1765,1.1852,1.1813,1.166,1.1574,1.1525,1.1421,1.1198,1.0905,1.06,1.0272,0.9697,0.9482,0.9317,0.9141,0.915,0.9081,0.9127,0.9233,0.9241,0.9138,0.9086,0.9057,0.8928,0.8889,0.8879,0.9011,0.9058,0.903,0.8954,0.8855,0.8647,0.8359,0.781,0.7415,0.7171,0.6923,0.6746,0.6742,0.6736,0.6729,0.6753,0.6878,0.6889,0.694,0.7004,0.7095,0.7082,0.7095,0.7095,0.7095,0.7095,0.7095,0.7095,0.7095,0.7095,0.7095,0.7095,0.7095,0.7095,0.7095,0.7058,0.6974,0.6865,0.6763,0.6671,0.659,0.6624,0.6627,0.6692,0.678,0.6802,0.6896,0.6977,0.7048,0.7055,0.6962,0.9365,0.9491,0.9876,1.0028,1.0076,1.0378,1.0527,1.057,1.0659,1.0733,1.0733,1.0733,1.0781,1.0916,1.0965,1.1015,1.1086,1.1198,1.1102,1.0907,1.0702,1.0571,1.0399,1.0315,1.0116,0.9954,0.9889,0.9884,0.9922,0.9884,0.9884,0.9922,1.0143,1.0363,1.055,1.0999,1.1403,1.1657,1.1888,1.2038,1.2184,1.2124,1.2064,1.2028,1.1883,1.1764,1.1674,1.1382,1.1059,1.068,1.0193,0.9852,0.9843,0.9745,0.9638,0.9519,0.9518,0.9555,0.9539,0.9555,0.9582,0.9627,0.9587,0.9657,0.952,0.9544,0.9442,0.9319,0.9188,0.8958,0.8588,0.8084,0.7718,0.7444,0.7191,0.6977,0.698,0.69,0.6926,0.7004,0.7007,0.7048,0.7045,0.7055,0.7095,0.7095,0.7095,0.7095,0.7095,0.7095,0.7095,0.7095,0.7095,0.7095,0.7095,0.7095,0.7095,0.7095,0.7095,0.7092,0.7007,0.6943,0.6846,0.6787,0.6692,0.6719,0.6793,0.6834,0.6866,0.692,0.6967,0.7028,0.7078,0.7092,0.7007,0.9859,0.9994,1.0337,1.0467,1.0511,1.0733,1.0824,1.0824,1.0824,1.0824,1.0824,1.0733,1.0776,1.0873,1.0873,1.0959,1.1176,1.1262,1.1241,1.1144,1.0973,1.0876,1.0794,1.0659,1.0455,1.012,1.01,1.0046,0.9954,0.9889,0.9884,0.9922,1.0105,1.0331,1.0513,1.0887,1.1298,1.1669,1.1892,1.2114,1.2268,1.2305,1.2305,1.2305,1.2187,1.212,1.1953,1.1811,1.1515,1.1187,1.0769,1.0413,1.0335,1.0148,1.0052,1.0078,0.9946,0.994,0.9984,0.9977,0.9983,1.0029,0.9999,1.0014,0.9935,0.9888,0.9822,0.9737,0.9558,0.9238,0.8803,0.8201,0.7856,0.768,0.7323,0.7139,0.7082,0.7028,0.7007,0.7078,0.7082,0.7088,0.7095,0.7095,0.7095,0.7095,0.7095,0.7095,0.7095,0.7095,0.7095,0.7095,0.7095,0.7095,0.7095,0.7095,0.7095,0.7095,0.7095,0.7095,0.7061,0.7014,0.6967,0.6929,0.6865,0.6912,0.6937,0.697,0.6974,0.7011,0.7048,0.7082,0.7095,0.7095,0.701,1.0168,1.0381,1.0641,1.0733,1.0733,1.0916,1.0965,1.0965,1.0965,1.0916,1.0916,1.0776,1.0733,1.0733,1.0733,1.0824,1.0959,1.1138,1.1192,1.1176,1.1246,1.1096,1.1021,1.0899,1.0692,1.0354,1.0284,1.0162,0.9951,0.9878,0.9828,0.9862,0.9997,1.0143,1.0438,1.0812,1.1149,1.1521,1.1818,1.2003,1.2231,1.2268,1.2305,1.2305,1.2268,1.2284,1.2206,1.2083,1.1971,1.164,1.142,1.1157,1.0848,1.0485,1.0389,1.0629,1.0505,1.054,1.0592,1.0534,1.0428,1.0239,1.0234,1.0269,1.0364,1.0246,1.0179,1.0014,0.9792,0.9318,0.8911,0.8296,0.7944,0.7768,0.7411,0.7143,0.7095,0.7095,0.7092,0.7092,0.7095,0.7095,0.7095,0.7095,0.7095,0.7095,0.7095,0.7095,0.7095,0.7095,0.7095,0.7095,0.7095,0.7095,0.7095,0.7095,0.7095,0.7095,0.7095,0.7095,0.7095,0.7068,0.7034,0.7061,0.7041,0.7051,0.7045,0.7045,0.7058,0.7095,0.7095,0.7095,0.7095,0.7095,0.6966,1.0424,1.0641,1.0873,1.0873,1.0733,1.0916,1.0916,1.0776,1.0776,1.0733,1.0733,1.0684,1.0684,1.0689,1.0684,1.0733,1.0781,1.0959,1.1051,1.1089,1.1176,1.116,1.101,1.0936,1.0725,1.0434,1.03,1.012,0.9916,0.9735,0.9717,0.9671,0.9729,0.9835,1.0095,1.04,1.0812,1.1223,1.1558,1.1818,1.204,1.2231,1.2331,1.2338,1.2358,1.2472,1.2563,1.2508,1.2498,1.2596,1.2464,1.2288,1.1984,1.1292,1.0957,1.0948,1.1056,1.1168,1.1299,1.1219,1.1246,1.1298,1.115,1.0947,1.0876,1.0666,1.0413,1.0091,0.9733,0.9257,0.8907,0.8296,0.7944,0.7764,0.7455,0.7139,0.7095,0.7095,0.7095,0.7095,0.7095,0.7095,0.7095,0.7095,0.7095,0.7095,0.7095,0.7095,0.7095,0.7095,0.7095,0.7095,0.7095,0.7095,0.7095,0.7095,0.7095,0.7095,0.7095,0.7095,0.7095,0.7095,0.7095,0.7095,0.7095,0.7082,0.7085,0.7095,0.7095,0.7095,0.7095,0.7098,0.7095,0.7095,0.701,1.0738,1.0873,1.0965,1.0921,1.0873,1.0824,1.0781,1.0684,1.0554,1.0511,1.0467,1.0381,1.0342,1.0342,1.0342,1.0386,1.0516,1.0733,1.0824,1.0868,1.0954,1.0954,1.0824,1.0868,1.0633,1.0351,1.0199,1.0056,0.9917,0.9802,0.9702,0.9732,0.9678,0.972,0.9865,1.0089,1.046,1.0893,1.1223,1.1595,1.1966,1.2194,1.2365,1.2529,1.2583,1.273,1.2926,1.2915,1.2864,1.285,1.281,1.2691,1.2498,1.2283,1.1852,1.1675,1.1653,1.171,1.184,1.1728,1.1699,1.166,1.157,1.1397,1.1138,1.0862,1.0467,0.9994,0.9607,0.9126,0.8771,0.8204,0.79,0.7635,0.7323,0.7143,0.7095,0.7095,0.7095,0.7095,0.7095,0.7095,0.7095,0.7095,0.7095,0.7095,0.7095,0.7095,0.7095,0.7095,0.7095,0.7095,0.7095,0.7095,0.7095,0.7095,0.7095,0.7095,0.7095,0.7095,0.7095,0.7095,0.7095,0.7095,0.7095,0.7095,0.7095,0.7095,0.7095,0.7098,0.7109,0.7112,0.7102,0.7098,0.7047,1.0965,1.0965,1.0965,1.0916,1.0824,1.0689,1.0598,1.0511,1.0342,1.025,1.0207,1.0033,0.9907,0.9907,0.9951,1.0038,1.025,1.0511,1.0598,1.0641,1.0733,1.0684,1.0598,1.0554,1.0366,1.0091,0.9904,0.9871,0.9809,0.9632,0.9645,0.9582,0.9502,0.9592,0.9715,0.9823,1.0209,1.0544,1.0899,1.1298,1.1824,1.2192,1.2498,1.277,1.2837,1.2986,1.322,1.326,1.3273,1.3259,1.3192,1.3085,1.2983,1.311,1.3019,1.2646,1.2391,1.2271,1.2213,1.2149,1.2089,1.1946,1.1785,1.1613,1.1305,1.0868,1.0337,0.9689,0.9301,0.8995,0.8552,0.8116,0.7812,0.7547,0.7279,0.7095,0.7095,0.7095,0.7095,0.7095,0.7095,0.7095,0.7095,0.7095,0.7095,0.7095,0.7095,0.7095,0.7095,0.7095,0.7095,0.7095,0.7095,0.7095,0.7095,0.7095,0.7095,0.7095,0.7095,0.7095,0.7095,0.7095,0.7095,0.7095,0.7095,0.7095,0.7095,0.7098,0.7095,0.7102,0.7122,0.7152,0.7227,0.7285,0.7294,1.0824,1.0965,1.0824,1.0603,1.0424,1.0337,1.0255,1.0081,1.0038,1.0038,0.9994,0.9777,0.9646,0.9646,0.9646,0.982,1.0038,1.025,1.0337,1.0376,1.0511,1.0511,1.0337,1.0168,0.9994,0.9733,0.9471,0.9506,0.9499,0.9235,0.9096,0.9094,0.9156,0.9122,0.9387,0.9518,0.9849,1.0241,1.0498,1.0992,1.1671,1.222,1.2535,1.2807,1.3033,1.3253,1.3507,1.3567,1.364,1.3853,1.3906,1.3926,1.3904,1.3917,1.3818,1.3565,1.3347,1.3142,1.2918,1.2711,1.2497,1.224,1.1952,1.1748,1.1348,1.0776,1.012,0.9432,0.913,0.8775,0.8376,0.8072,0.7764,0.7499,0.7231,0.7139,0.7095,0.7095,0.7095,0.7095,0.7095,0.7095,0.7095,0.7095,0.7095,0.7095,0.7095,0.7095,0.7095,0.7095,0.7095,0.7095,0.7095,0.7095,0.7095,0.7095,0.7095,0.7095,0.7095,0.7095,0.7095,0.7095,0.7095,0.7095,0.7105,0.7125,0.7149,0.7142,0.7112,0.7162,0.725,0.7329,0.7395,0.7414,0.7482,1.0603,1.0824,1.0598,1.0381,1.0294,1.0033,0.9859,0.9777,0.965,0.9607,0.9607,0.9519,0.9432,0.9432,0.9519,0.9646,0.9825,1.0038,1.0125,1.012,1.0255,1.0164,0.9951,0.982,0.9646,0.9384,0.9078,0.8942,0.8996,0.9139,0.9125,0.9047,0.8937,0.8956,0.9022,0.9172,0.9455,0.9927,1.0537,1.1187,1.1717,1.2161,1.2575,1.3041,1.3179,1.3478,1.376,1.3901,1.3941,1.4082,1.4088,1.4088,1.4082,1.4082,1.4039,1.3955,1.3864,1.361,1.3307,1.3052,1.2839,1.2534,1.2118,1.165,1.1214,1.0646,0.9994,0.9349,0.9043,0.8648,0.8204,0.7988,0.7676,0.7411,0.7187,0.7143,0.7095,0.7095,0.7095,0.7095,0.7095,0.7095,0.7095,0.7095,0.7095,0.7095,0.7095,0.7095,0.7095,0.7095,0.7095,0.7095,0.7095,0.7095,0.7095,0.7095,0.7095,0.7095,0.7095,0.7095,0.7095,0.7095,0.7125,0.7207,0.7241,0.7258,0.7268,0.7285,0.7299,0.737,0.7455,0.7478,0.7545,0.7519,0.7573,1.0207,1.0342,1.0164,1.012,1.0077,0.9689,0.9515,0.9519,0.9393,0.9305,0.9301,0.9262,0.9218,0.9213,0.9345,0.9476,0.9607,0.982,0.9951,0.9951,0.9907,0.9772,0.9646,0.9519,0.9301,0.913,0.8727,0.8504,0.8552,0.8675,0.8846,0.8951,0.863,0.8653,0.8683,0.8765,0.8973,0.9569,1.0383,1.1061,1.157,1.2049,1.2519,1.2956,1.3309,1.3605,1.3957,1.4075,1.4075,1.4082,1.4088,1.4088,1.4088,1.4088,1.4088,1.4046,1.4046,1.3913,1.361,1.3355,1.3052,1.2753,1.2246,1.165,1.0857,1.0424,0.9994,0.9349,0.8863,0.8468,0.8072,0.7856,0.7544,0.7319,0.7139,0.7095,0.7102,0.7125,0.7119,0.7095,0.7095,0.7095,0.7095,0.7095,0.7095,0.7095,0.7095,0.7095,0.7095,0.7095,0.7095,0.7095,0.7095,0.7095,0.7095,0.7095,0.7095,0.7115,0.7115,0.7187,0.7217,0.7238,0.7268,0.7302,0.7353,0.7438,0.7506,0.7478,0.7501,0.7506,0.756,0.7621,0.7655,0.7668,0.7702,0.9563,0.9388,0.9563,0.9646,0.9646,0.9432,0.9305,0.9262,0.9257,0.9218,0.913,0.9043,0.8867,0.8955,0.8999,0.9213,0.9559,0.9598,0.9733,0.982,0.9733,0.9602,0.9428,0.917,0.8863,0.8636,0.8332,0.8113,0.7981,0.8028,0.8028,0.7973,0.8114,0.8126,0.8253,0.8426,0.8711,0.9326,1.0034,1.0591,1.117,1.1752,1.2395,1.274,1.3255,1.3717,1.3737,1.3955,1.4088,1.4088,1.4088,1.4088,1.4088,1.4088,1.4088,1.4088,1.4039,1.3955,1.3828,1.3525,1.3264,1.2924,1.2375,1.165,1.0819,1.0299,0.9825,0.9345,0.8819,0.8292,0.794,0.768,0.7499,0.7241,0.7122,0.7156,0.7166,0.7183,0.7169,0.7115,0.7132,0.7238,0.7206,0.723,0.7129,0.7119,0.7098,0.7095,0.7095,0.7095,0.7095,0.7095,0.7095,0.7095,0.7095,0.7112,0.72,0.7234,0.7203,0.7295,0.7346,0.7366,0.7387,0.7458,0.7526,0.7634,0.7719,0.7682,0.7651,0.7638,0.7675,0.776,0.7821,0.7848,0.7847,0.9388,0.9305,0.9213,0.9257,0.9388,0.9174,0.8995,0.8859,0.8727,0.8556,0.8468,0.834,0.8384,0.8468,0.8684,0.8859,0.917,0.9388,0.9471,0.9519,0.9432,0.9345,0.9126,0.8907,0.8596,0.8328,0.7984,0.7768,0.7683,0.7544,0.7408,0.7452,0.772,0.7896,0.8034,0.8218,0.8656,0.9094,0.9738,1.0341,1.0947,1.137,1.1999,1.2656,1.282,1.3343,1.361,1.3773,1.3913,1.4046,1.4088,1.4039,1.4046,1.4046,1.4046,1.4039,1.3955,1.387,1.3828,1.3525,1.3143,1.2509,1.208,1.1607,1.0776,1.0299,0.9825,0.9301,0.8775,0.8292,0.7944,0.7812,0.7639,0.7299,0.7156,0.7248,0.7299,0.7284,0.7311,0.7343,0.7394,0.7458,0.7451,0.7444,0.726,0.7139,0.7115,0.7102,0.7115,0.7115,0.7119,0.7119,0.7122,0.7129,0.7129,0.7217,0.7275,0.7309,0.7343,0.7414,0.7482,0.7506,0.7539,0.7614,0.7682,0.7753,0.7811,0.7803,0.7851,0.7828,0.7865,0.7933,0.7931,0.7948,0.7968,0.9087,0.8947,0.8771,0.8863,0.9034,0.8819,0.8552,0.8376,0.8204,0.8028,0.79,0.79,0.7988,0.816,0.8288,0.8548,0.8815,0.899,0.9165,0.9213,0.917,0.8995,0.8775,0.8508,0.8201,0.7984,0.772,0.7507,0.737,0.7187,0.7183,0.7275,0.7455,0.7588,0.772,0.8028,0.842,0.8903,0.9345,1.0038,1.0582,1.0966,1.1397,1.2169,1.2443,1.2869,1.3264,1.3476,1.3695,1.3786,1.3828,1.387,1.387,1.387,1.387,1.3828,1.3743,1.361,1.3568,1.3355,1.293,1.2252,1.2043,1.1516,1.0862,1.0299,0.9907,0.9345,0.8867,0.8428,0.7988,0.7768,0.7645,0.732,0.7285,0.7339,0.7431,0.7482,0.7519,0.7539,0.7577,0.7567,0.756,0.7536,0.7492,0.7334,0.7373,0.7322,0.7255,0.7241,0.7162,0.7204,0.7204,0.721,0.7221,0.7333,0.7434,0.7448,0.7489,0.7567,0.7624,0.7648,0.7709,0.7752,0.7806,0.7823,0.7853,0.7891,0.7931,0.7965,0.7975,0.7961,0.7965,0.7971,0.7975,0.8636,0.8241,0.8201,0.8376,0.8552,0.8332,0.8116,0.794,0.7896,0.7852,0.7808,0.7808,0.7856,0.7896,0.794,0.816,0.8508,0.8596,0.8771,0.8951,0.8771,0.8636,0.842,0.8157,0.7896,0.7591,0.7459,0.7323,0.7139,0.7139,0.7095,0.7095,0.7231,0.7228,0.7187,0.7415,0.7896,0.8504,0.8819,0.9384,0.9907,1.0376,1.0939,1.1413,1.1977,1.24,1.2747,1.3088,1.3307,1.3398,1.3434,1.3434,1.3434,1.344,1.344,1.3398,1.3398,1.3355,1.3349,1.3179,1.2631,1.208,1.1914,1.1472,1.0862,1.0386,0.9951,0.9345,0.8907,0.842,0.8028,0.7746,0.7561,0.7448,0.7461,0.7478,0.7573,0.7672,0.7712,0.774,0.7665,0.7611,0.7614,0.7617,0.7631,0.7604,0.7594,0.7519,0.74,0.7356,0.7329,0.7326,0.7329,0.7346,0.739,0.7509,0.759,0.7597,0.7648,0.7736,0.778,0.7756,0.783,0.7928,0.7931,0.7907,0.7941,0.7978,0.7988,0.7988,0.7988,0.7982,0.7988,0.7988,0.7988,0.8147,0.7984,0.7984,0.794,0.7896,0.7988,0.7856,0.7635,0.7455,0.7363,0.7363,0.7363,0.7499,0.7591,0.7635,0.7764,0.8072,0.8116,0.8292,0.8336,0.8157,0.816,0.8028,0.7812,0.7547,0.7459,0.7367,0.7231,0.7095,0.7095,0.7095,0.7095,0.7095,0.7095,0.7187,0.7367,0.768,0.794,0.838,0.8903,0.9301,0.9859,1.0376,1.0809,1.1413,1.1843,1.2186,1.2577,1.2747,1.2875,1.2875,1.2875,1.2875,1.2875,1.2918,1.2881,1.2839,1.2674,1.2503,1.2289,1.2069,1.1817,1.1602,1.1295,1.0727,1.0299,0.9868,0.9388,0.8995,0.86,0.8201,0.8016,0.7884,0.7671,0.7667,0.7688,0.776,0.7862,0.7929,0.7887,0.7847,0.7813,0.7851,0.7801,0.7794,0.7763,0.7743,0.7651,0.7536,0.7522,0.7509,0.7506,0.7509,0.7516,0.7563,0.7668,0.7733,0.7746,0.7824,0.788,0.7911,0.7887,0.7914,0.7965,0.7978,0.7988,0.7988,0.7988,0.7988,0.7988,0.7988,0.7988,0.7988,0.7988,0.7988,0.7756,0.7687,0.7746,0.7591,0.7415,0.7635,0.7591,0.737,0.7187,0.7095,0.7095,0.7054,0.7102,0.7194,0.719,0.7234,0.7499,0.7503,0.7588,0.7588,0.7544,0.7499,0.7459,0.7374,0.7238,0.7194,0.7187,0.7095,0.7095,0.7095,0.7095,0.7095,0.7095,0.7095,0.7187,0.7279,0.7415,0.7635,0.8032,0.8424,0.8815,0.9292,0.9772,1.0289,1.0766,1.1149,1.158,1.1886,1.2063,1.2186,1.2229,1.2223,1.2229,1.2229,1.2229,1.2143,1.21,1.1897,1.1682,1.1596,1.1462,1.1295,1.1198,1.0982,1.0641,1.0294,0.9864,0.9432,0.913,0.8732,0.8316,0.8196,0.8002,0.7834,0.7752,0.7822,0.7892,0.7941,0.7958,0.7978,0.7985,0.7988,0.7988,0.7971,0.7924,0.788,0.7882,0.7777,0.7682,0.7675,0.7662,0.7641,0.7658,0.7668,0.7716,0.7811,0.7862,0.7889,0.7907,0.7985,0.7982,0.7944,0.7971,0.7988,0.7988,0.7988,0.7988,0.7988,0.7988,0.7988,0.7988,0.7988,0.7988,0.7988,0.7988,0.7467,0.7332,0.7432,0.736,0.7187,0.7415,0.7367,0.7095,0.7095,0.7095,0.7051,0.6877,0.6792,0.6748,0.6564,0.6612,0.6792,0.6795,0.6881,0.6966,0.6881,0.6836,0.684,0.684,0.6881,0.6925,0.6966,0.7051,0.7095,0.7095,0.7095,0.7095,0.7095,0.7095,0.7139,0.7143,0.7279,0.7459,0.7635,0.7984,0.8376,0.8636,0.9161,0.9685,1.012,1.0463,1.0809,1.1111,1.1241,1.1284,1.1284,1.1278,1.1278,1.1284,1.1284,1.1278,1.1235,1.1111,1.0987,1.0944,1.0809,1.0684,1.0771,1.0598,1.0424,1.012,0.9689,0.9388,0.913,0.8727,0.8352,0.8211,0.8053,0.7955,0.7822,0.7862,0.7931,0.7982,0.7982,0.7988,0.7988,0.7988,0.7988,0.7988,0.7988,0.7961,0.7911,0.7874,0.7793,0.7776,0.7797,0.774,0.7763,0.7814,0.7872,0.788,0.7901,0.7911,0.7931,0.7988,0.7988,0.7988,0.7988,0.7988,0.7988,0.7988,0.7988,0.7988,0.7988,0.7988,0.7988,0.7988,0.7988,0.7988,0.7988,0.7024,0.7011,0.7063,0.7048,0.7132,0.7187,0.7187,0.7095,0.6969,0.6881,0.6884,0.6609,0.652,0.652,0.6428,0.6346,0.6305,0.6308,0.6169,0.6213,0.6216,0.626,0.6349,0.6435,0.6567,0.6745,0.6833,0.6966,0.7051,0.7095,0.7095,0.7095,0.7095,0.7095,0.7095,0.7095,0.7187,0.7279,0.737,0.7635,0.79,0.8157,0.8596,0.903,0.9428,0.9728,1.0033,1.0294,1.0381,1.0381,1.0381,1.0381,1.0381,1.0381,1.0381,1.0381,1.0381,1.0342,1.0255,1.0081,0.999,0.9903,0.9859,0.999,0.9907,0.9777,0.9432,0.9213,0.9038,0.864,0.8367,0.8163,0.8029,0.7933,0.7866,0.794,0.7988,0.7988,0.7988,0.7988,0.7988,0.7988,0.7988,0.7988,0.7988,0.7988,0.7978,0.7948,0.7928,0.7897,0.7874,0.7862,0.7865,0.7913,0.795,0.7951,0.7968,0.7982,0.7988,0.7988,0.7988,0.7988,0.7988,0.7988,0.7988,0.7988,0.7988,0.7988,0.7988,0.7988,0.7988,0.7988,0.7988,0.7988,0.7988,0.6705,0.6753,0.6881,0.6967,0.7082,0.7007,0.6969,0.6966,0.6884,0.6748,0.6612,0.6296,0.6118,0.6074,0.5897,0.5722,0.5633,0.5636,0.5591,0.5544,0.5591,0.5636,0.5725,0.5988,0.6166,0.6387,0.6656,0.6881,0.6972,0.7098,0.7095,0.7095,0.7095,0.7098,0.7095,0.7095,0.7095,0.7187,0.7279,0.737,0.7591,0.7812,0.8072,0.842,0.8775,0.899,0.9253,0.9515,0.9563,0.9559,0.9563,0.9515,0.9471,0.9423,0.9467,0.9467,0.9467,0.9423,0.9379,0.9292,0.9248,0.9165,0.9034,0.903,0.9209,0.9209,0.9126,0.8999,0.8823,0.8624,0.8393,0.8155,0.804,0.7926,0.7949,0.7965,0.7988,0.7988,0.7988,0.7988,0.7988,0.7988,0.7988,0.7988,0.7988,0.7988,0.7988,0.7978,0.7968,0.7958,0.7948,0.7921,0.7934,0.7965,0.7988,0.7988,0.7988,0.7988,0.7988,0.7988,0.7988,0.7988,0.7988,0.7988,0.7988,0.7988,0.7988,0.7988,0.7988,0.7988,0.7988,0.7988,0.7988,0.7988,0.7988,0.6501,0.6552,0.68,0.6967,0.7044,0.6881,0.6792,0.6704,0.6659,0.6571,0.6251,0.5852,0.563,0.5586,0.5364,0.5142,0.5099,0.5102,0.5055,0.4966,0.5055,0.5102,0.5233,0.5408,0.5719,0.5944,0.626,0.6631,0.6872,0.709,0.721,0.7132,0.7166,0.7196,0.721,0.7206,0.722,0.7268,0.7289,0.732,0.7388,0.7503,0.768,0.8028,0.8204,0.8332,0.8688,0.8823,0.8823,0.8823,0.8775,0.8727,0.8684,0.8592,0.8592,0.8592,0.8636,0.8684,0.8684,0.8596,0.8592,0.8508,0.8332,0.8332,0.8552,0.8732,0.8688,0.8604,0.8468,0.8292,0.8072,0.8006,0.7927,0.7902,0.7928,0.7984,0.7988,0.7988,0.7988,0.7988,0.7988,0.7988,0.7988,0.7988,0.7988,0.7988,0.7988,0.7988,0.7988,0.7988,0.7988,0.7988,0.7988,0.7988,0.7988,0.7988,0.7988,0.7988,0.7988,0.7988,0.7988,0.7988,0.7988,0.7988,0.7988,0.7988,0.7988,0.7988,0.7988,0.7988,0.7988,0.7988,0.7988,0.7988,0.7988,0.6416,0.6538,0.68,0.6884,0.6871,0.6836,0.6438,0.5988,0.5988,0.5941,0.5764,0.5411,0.5188,0.5142,0.5055,0.4877,0.479,0.4746,0.4656,0.4612,0.4656,0.4746,0.4835,0.5055,0.5322,0.5633,0.6,0.6412,0.6908,0.722,0.7429,0.7475,0.7458,0.7441,0.7441,0.7444,0.7441,0.7428,0.7424,0.7329,0.7296,0.7248,0.7363,0.7588,0.7724,0.7856,0.8076,0.8164,0.8164,0.812,0.812,0.8116,0.8076,0.8072,0.8072,0.8069,0.7981,0.7981,0.7981,0.7981,0.7981,0.8025,0.7984,0.7984,0.8028,0.816,0.8204,0.816,0.8072,0.7896,0.7834,0.7834,0.7842,0.7866,0.79,0.7946,0.7988,0.7988,0.7988,0.7988,0.7988,0.7988,0.7988,0.7988,0.7988,0.7988,0.7988,0.7988,0.7988,0.7988,0.7988,0.7988,0.7988,0.7988,0.7988,0.7988,0.7988,0.7988,0.7988,0.7988,0.7988,0.7988,0.7988,0.7988,0.7988,0.7988,0.7988,0.7988,0.7988,0.7988,0.7988,0.7988,0.7988,0.7988,0.7988,0.6344,0.6417,0.6577,0.6616,0.6521,0.641,0.608,0.5675,0.5411,0.528,0.5235,0.5013,0.4879,0.4832,0.4746,0.4701,0.4569,0.4523,0.4433,0.4389,0.4433,0.4478,0.4612,0.4743,0.4968,0.5285,0.5748,0.623,0.6959,0.7243,0.7436,0.7564,0.7611,0.7614,0.7611,0.7604,0.7611,0.759,0.7614,0.7506,0.7322,0.7288,0.72,0.7361,0.737,0.7507,0.7639,0.7724,0.7724,0.768,0.7632,0.7455,0.7411,0.7411,0.7319,0.7231,0.7187,0.7231,0.7275,0.7319,0.7323,0.7319,0.7411,0.7323,0.7367,0.7496,0.7848,0.7808,0.7768,0.7639,0.7678,0.7678,0.7683,0.7712,0.7855,0.7958,0.7988,0.7988,0.7988,0.7988,0.7988,0.7988,0.7988,0.7988,0.7988,0.7988,0.7988,0.7988,0.7988,0.7988,0.7988,0.7988,0.7988,0.7988,0.7988,0.7988,0.7988,0.7988,0.7988,0.7988,0.7988,0.7988,0.7988,0.7988,0.7988,0.7988,0.7988,0.7988,0.7988,0.7988,0.7988,0.7988,0.7988,0.8038,0.8088,0.6236,0.625,0.6241,0.6231,0.6159,0.5829,0.5614,0.5455,0.4971,0.4703,0.4659,0.4659,0.4659,0.4569,0.4433,0.4344,0.4342,0.4389,0.4297,0.4297,0.4297,0.4344,0.4433,0.4523,0.4717,0.5096,0.5634,0.6235,0.6913,0.7203,0.747,0.757,0.7607,0.7662,0.7655,0.7665,0.7699,0.7716,0.7716,0.7668,0.7573,0.7531,0.7356,0.7255,0.718,0.7265,0.7402,0.7469,0.7469,0.737,0.7234,0.7102,0.6969,0.6925,0.6741,0.6653,0.6653,0.6605,0.6561,0.6605,0.6561,0.6561,0.6656,0.6748,0.6836,0.7017,0.7326,0.7469,0.7429,0.7512,0.7507,0.758,0.7576,0.7668,0.7826,0.7988,0.7988,0.7988,0.7988,0.7988,0.7988,0.7988,0.7988,0.7988,0.7988,0.7988,0.7988,0.7988,0.7988,0.7988,0.7988,0.7988,0.7988,0.7988,0.7988,0.7988,0.7988,0.7988,0.7988,0.7988,0.7988,0.7988,0.7988,0.7988,0.7988,0.7988,0.7988,0.7988,0.7988,0.8038,0.8088,0.8137,0.8184,0.8184,0.8184,0.597,0.5959,0.5975,0.5844,0.5663,0.5532,0.5285,0.4919,0.4792,0.4569,0.4435,0.4389,0.4389,0.4389,0.4344,0.4297,0.4297,0.4297,0.4297,0.4297,0.4297,0.4297,0.435,0.4412,0.4578,0.5034,0.5628,0.6237,0.6719,0.7192,0.755,0.7583,0.7835,0.7887,0.7891,0.7884,0.7857,0.785,0.784,0.782,0.7746,0.7655,0.757,0.7478,0.7394,0.7402,0.7351,0.7248,0.7207,0.7098,0.6966,0.6836,0.6659,0.6523,0.6387,0.6207,0.6207,0.6207,0.6163,0.6163,0.6163,0.6207,0.6346,0.6444,0.6491,0.6589,0.6866,0.707,0.7128,0.7344,0.7385,0.7542,0.7634,0.777,0.7901,0.7961,0.7988,0.7988,0.7988,0.7988,0.7988,0.7988,0.7988,0.7988,0.7988,0.7988,0.7988,0.7988,0.7988,0.7988,0.7988,0.7988,0.7988,0.7988,0.7988,0.7988,0.7988,0.7988,0.7988,0.7988,0.7988,0.7988,0.7988,0.7988,0.7988,0.7988,0.7988,0.8038,0.8038,0.8088,0.8283,0.8333,0.8382,0.8379,0.8432]},{"header":{"parameterUnit":"m.s-1","parameterCategory":1,"la1":31.0,"la2":29.5877,"lo1":-88.7671,"lo2":-86.6584,"dy":0.0162,"dx":0.0185,"nx":115,"ny":88,"refTime":"2023-10-15T18:00:00:Z","depth":0,"parameterNumber":3,"parameterNumberName":"V-component_of_WINDS"},"data":[0.0,0.0,0.0,0.0,0.0,0.0,0.0,0.0,0.0,0.0,0.0,0.0,0.0,0.0,0.0,0.0,0.0,0.0,0.0,0.0,0.0,0.0,0.0,0.0,0.0,0.0,0.0,0.0,0.0,0.0,0.0,0.0,0.0,0.0,0.0,0.0,0.0,0.0,0.0,0.0,0.0,0.0,0.0,0.0,0.0,0.0,0.0,0.0,0.0,0.0,0.0,0.0,0.0,0.0,0.0,0.0,0.0,0.0,0.0,0.0,0.0,0.0,0.0,0.0,0.0,0.0,0.0,0.0,0.0,0.0,0.0,0.0,0.0,0.0,0.0,0.0,0.0,0.0,0.0,0.0,0.0,0.0,0.0,0.0,0.0,0.0,0.0,0.0,0.0,0.0,0.0,0.0,0.0,0.0,0.0,0.0,0.0,0.0,0.0,0.0,0.0,0.0,0.0,0.0,0.0,0.0,0.0,0.0,0.0,0.0,0.0,0.0,0.0,0.0,0.0,0.0,0.0,0.0,0.0,0.0,0.0,0.0,0.0,0.0,0.0,0.0,0.0,0.0,0.0,0.0,0.0,0.0,0.0,0.0,0.0,0.0,0.0,0.0,0.0,0.0,0.0,0.0,0.0,0.0,0.0,0.0,0.0,0.0,0.0,0.0,0.0,0.0,0.0,0.0,0.0,0.0,0.0,0.0,0.0,0.0,0.0,0.0,0.0,0.0,0.0,0.0,0.0,0.0,0.0,0.0,0.0,0.0,0.0,0.0,0.0,0.0,0.0,0.0,0.0,0.0,0.0,0.0,0.0,0.0,0.0,0.0,0.0,0.0,0.0,0.0,0.0,0.0,0.0,0.0,0.0,0.0,0.0,0.0,0.0,0.0,0.0,0.0,0.0,0.0,0.0,0.0,0.0,0.0,0.0,0.0,0.0,0.0,0.0,0.0,0.0,0.0,0.0,0.0,0.0,0.0,0.0,0.0,0.0,0.0,0.0,0.0,0.0,0.0,0.0,0.0,0.0,0.0,0.0,0.0,0.0,0.0,0.0,0.0,0.0,0.0,0.0,0.0,0.0,0.0,0.0,0.0,0.0,0.0,0.0,0.0,0.0,0.0,0.0,0.0,0.0,0.0,0.0,0.0,0.0,0.0,0.0,0.0,0.0,0.0,0.0,0.0,0.0,0.0,0.0,0.0,0.0,0.0,0.0,0.0,0.0,0.0,0.0,0.0,0.0,0.0,0.0,0.0,0.0,0.0,0.0,0.0,0.0,0.0,0.0,0.0,0.0,0.0,0.0,0.0,0.0,0.0,0.0,0.0,0.0,0.0,0.0,0.0,0.0,0.0,0.0,0.0,0.0,0.0,0.0,0.0,0.0,0.0,0.0,0.0,0.0,0.0,0.0,0.0,0.0,0.0,0.0,0.0,0.0,0.0,0.0,0.0,0.0,0.0,0.0,0.0,0.0,0.0,0.0,0.0,0.0,0.0,0.0,0.0,0.0,0.0,0.0,0.0,0.0,0.0,0.0,0.0,0.0,0.0,0.0,0.0,0.0,0.0,0.0,0.0,0.0,0.0,0.0,0.0,0.0,0.0,0.0,0.0,0.0,0.0,0.0,0.0,0.0,0.0,0.0,0.0,0.0,0.0,0.0,0.0,0.0,0.0,0.0,0.0,0.0,0.0,0.0,0.0,0.0,0.0,0.0,0.0,0.0,0.0,0.0,0.0,0.0,0.0,0.0,0.0,0.0,0.0,0.0,0.0,0.0,0.0,0.0,0.0,0.0,0.0,0.0,0.0,0.0,0.0,0.0,0.0,0.0,0.0,0.0,0.0,0.0,0.0,0.0,0.0,0.0,0.0,0.0,0.0,0.0,0.0,0.0,0.0,0.0,0.0,0.0,0.0,0.0,0.0,0.0,0.0,0.0,0.0,0.0,0.0,0.0,0.0,0.0,0.0,0.0,0.0,0.0,0.0,0.0,0.0,0.0,0.0,0.0,0.0,0.0,0.0,0.0,0.0,0.0,0.0,0.0,0.0,0.0,0.0,0.0,0.0,0.0,0.0,0.0,0.0,0.0,0.0,0.0,0.0,0.0,0.0,0.0,0.0,0.0,0.0,0.0,0.0,0.0,0.0,0.0,0.0,0.0,0.0,0.0,0.0,0.0,0.0,0.0,0.0,0.0,0.0,0.0,0.0,0.0,0.0,0.0,0.0,0.0,0.0,0.0,0.0,0.0,0.0,0.0,0.0,0.0,0.0,0.0,0.0,0.0,0.0,0.0,0.0,0.0,0.0,0.0,0.0,0.0,0.0,0.0,0.0,0.0,0.0,0.0,0.0,0.0,0.0,0.0,0.0,0.0,0.0,0.0,0.0,0.0,0.0,0.0,0.0,0.0,0.0,0.0,0.0,0.0,0.0,0.0,0.0,0.0,0.0,0.0,0.0,0.0,0.0,0.0,0.0,0.0,0.0,0.0,0.0,0.0,0.0,0.0,0.0,0.0,0.0,0.0,0.0,0.0,0.0,0.0,0.0,0.0,0.0,0.0,0.0,0.0,0.0,0.0,0.0,0.0,0.0,0.0,0.0,0.0,0.0,0.0,0.0,0.0,0.0,0.0,0.0,0.0,0.0,0.0,0.0,0.0,0.0,0.0,0.0,0.0,0.0,0.0,0.0,0.0,0.0,0.0,0.0,0.0,0.0,0.0,0.0,0.0,0.0,0.0,0.0,0.0,0.0,0.0,0.0,0.0,0.0,0.0,0.0,0.0,0.0,0.0,0.0,0.0,0.0,0.0,0.0,0.0,0.0,0.0,0.0,0.0,0.0,0.0,0.0,0.0,0.0,0.0,0.0,0.0,0.0,0.0,0.0,0.0,0.0,0.0,0.0,0.0,0.0,0.0,0.0,0.0,0.0,0.0,0.0,0.0,0.0,0.0,0.0,0.0,0.0,0.0,0.0,0.0,0.0,0.0,0.0,0.0,0.0,0.0,0.0,0.0,0.0,0.0,0.0,0.0,0.0,0.0,0.0,0.0,0.0,0.0,0.0,0.0,0.0,0.0,0.0,0.0,0.0,0.0,0.0,0.0,0.0,0.0,0.0,0.0,0.0,0.0,0.0,0.0,0.0,0.0,0.0,0.0,0.0,0.0,0.0,0.0,0.0,0.0,0.0,0.0,0.0,0.0,0.0,0.0,0.0,0.0,0.0,0.0,0.0,0.0,0.0,0.0,0.0,0.0,0.0,0.0,0.0,0.0,0.0,0.0,0.0,0.0,0.0,0.0,0.0,0.0,0.0,0.0,0.0,0.0,0.0,0.0,0.0,0.0,0.0,0.0,0.0,0.0,0.0,0.0,0.0,0.0,0.0,0.0,0.0,0.0,0.0,0.0,0.0,0.0,0.0,0.0,0.0,0.0,0.0,0.0,0.0,0.0,0.0,0.0,0.0,0.0,0.0,0.0,0.0,0.0,0.0,0.0,0.0,0.0,0.0,0.0,0.0,0.0,0.0,0.0,0.0,0.0,0.0,0.0,0.0,0.0,0.0,0.0,0.0,0.0,0.0,0.0,0.0,0.0,0.0,0.0,0.0,0.0,0.0,0.0,0.0,0.0,0.0,0.0,0.0,0.0,0.0,0.0,0.0,0.0,0.0,0.0,0.0,0.0,0.0,0.0,0.0,0.0,0.0,0.0,0.0,0.0,0.0,0.0,0.0,0.0,0.0,0.0,0.0,0.0,0.0,0.0,0.0,0.0,0.0,0.0,0.0,0.0,0.0,0.0,0.0,0.0,0.0,0.0,0.0,0.0,0.0,0.0,0.0,0.0,0.0,0.0,0.0,0.0,0.0,0.0,0.0,0.0,0.0,0.0,0.0,0.0,0.0,0.0,0.0,0.0,0.0,0.0,0.0,0.0,0.0,0.0,0.0,0.0,0.0,0.0,0.0,0.0,0.0,0.0,0.0,0.0,0.0,0.0,0.0,0.0,0.0,0.0,0.0,0.0,0.0,0.0,0.0,0.0,0.0,0.0,0.0,0.0,0.0,0.0,0.0,0.0,0.0,0.0,0.0,0.0,0.0,0.0,0.0,0.0,0.0,0.0,0.0,0.0,0.0,0.0,0.0,0.0,0.0,0.0,0.0,0.0,0.0,0.0,0.0,0.0,0.0,0.0,0.0,0.0,0.0,0.0,0.0,0.0,0.0,0.0,0.0,0.0,0.0,0.0,0.0,0.0,0.0,0.0,0.0,0.0,0.0,0.0,0.0,0.0,0.0,0.0,0.0,1.8821,0.0,0.0,0.0,0.0,0.0,0.0,0.0,0.0,0.0,0.0,0.0,0.0,0.0,0.0,0.0,0.0,0.0,0.0,0.0,0.0,0.0,0.0,0.0,0.0,0.0,0.0,0.0,0.0,0.0,0.0,0.0,0.0,0.0,0.0,0.0,0.0,0.0,0.0,0.0,0.0,0.0,0.0,0.0,0.0,0.0,0.0,0.0,0.0,0.0,0.0,0.0,0.0,0.0,0.0,0.0,0.0,0.0,0.0,0.0,0.0,0.0,0.0,0.0,0.0,0.0,0.0,0.0,0.0,0.0,0.0,0.0,0.0,0.0,0.0,0.0,0.0,0.0,0.0,0.0,0.0,0.0,0.0,0.0,0.0,0.0,0.0,0.0,0.0,0.0,0.0,0.0,0.0,0.0,0.0,0.0,0.0,0.0,0.0,0.0,0.0,0.0,0.0,0.0,0.0,0.0,0.0,0.0,0.0,0.0,0.0,1.938,1.9365,1.938,1.911,1.8532,0.0,0.0,0.0,0.0,0.0,0.0,0.0,0.0,0.0,0.0,0.0,0.0,0.0,0.0,0.0,0.0,0.0,0.0,0.0,0.0,0.0,0.0,0.0,0.0,0.0,0.0,0.0,0.0,0.0,0.0,0.0,0.0,0.0,0.0,0.0,0.0,0.0,0.0,0.0,0.0,0.0,0.0,0.0,0.0,0.0,0.0,0.0,0.0,0.0,0.0,0.0,0.0,0.0,0.0,0.0,0.0,0.0,0.0,0.0,0.0,0.0,0.0,0.0,0.0,0.0,0.0,0.0,0.0,0.0,0.0,0.0,0.0,0.0,0.0,0.0,0.0,0.0,0.0,0.0,0.0,0.0,0.0,0.0,0.0,0.0,0.0,0.0,0.0,0.0,0.0,0.0,0.0,0.0,0.0,0.0,0.0,0.0,0.0,0.0,0.0,0.0,0.0,0.0,0.0,0.0,0.0,0.0,0.0,0.0,0.0,0.0,0.0,1.8969,1.8631,1.7928,0.0,0.0,0.0,0.0,0.0,0.0,0.0,0.0,0.0,0.0,0.0,0.0,0.0,0.0,0.0,0.0,0.0,0.0,0.0,0.0,0.0,0.0,0.0,0.0,0.0,0.0,0.0,0.0,0.0,0.0,0.0,0.0,0.0,0.0,0.0,0.0,0.0,0.0,0.0,0.0,0.0,0.0,0.0,0.0,0.0,0.0,0.0,0.0,0.0,0.0,0.0,0.0,0.0,0.0,0.0,0.0,0.0,0.0,0.0,0.0,0.0,0.0,0.0,0.0,0.0,0.0,0.0,0.0,0.0,0.0,0.0,0.0,0.0,0.0,0.0,0.0,0.0,0.0,0.0,0.0,0.0,0.0,0.0,0.0,0.0,0.0,0.0,0.0,0.0,0.0,0.0,0.0,0.0,0.0,0.0,0.0,0.0,0.0,0.0,0.0,0.0,0.0,0.0,0.0,0.0,0.0,0.0,0.0,0.0,0.0,1.8542,1.8556,1.8556,0.0,1.7101,0.0,0.0,0.0,0.0,0.0,0.0,0.0,0.0,0.0,0.0,0.0,0.0,0.0,0.0,0.0,0.0,0.0,0.0,0.0,0.0,0.0,0.0,0.0,0.0,0.0,0.0,0.0,0.0,0.0,0.0,0.0,0.0,0.0,0.0,0.0,0.0,0.0,0.0,0.0,0.0,0.0,0.0,0.0,0.0,0.0,0.0,0.0,0.0,0.0,0.0,0.0,0.0,0.0,0.0,0.0,0.0,0.0,0.0,0.0,0.0,0.0,0.0,0.0,0.0,0.0,0.0,0.0,0.0,0.0,0.0,0.0,0.0,0.0,0.0,0.0,0.0,0.0,0.0,0.0,0.0,0.0,0.0,0.0,0.0,0.0,0.0,0.0,0.0,0.0,0.0,0.0,0.0,0.0,0.0,0.0,0.0,0.0,0.0,0.0,0.0,0.0,0.0,0.0,0.0,0.0,0.0,0.0,0.0,0.0,0.0,1.8195,1.8143,1.8143,1.7642,0.0,0.0,0.0,0.0,0.0,0.0,0.0,0.0,0.0,0.0,0.0,0.0,0.0,0.0,0.0,0.0,0.0,0.0,0.0,0.0,0.0,0.0,0.0,0.0,0.0,0.0,0.0,0.0,0.0,0.0,0.0,0.0,0.0,0.0,0.0,0.0,0.0,0.0,0.0,0.0,0.0,0.0,0.0,0.0,0.0,0.0,0.0,0.0,0.0,0.0,0.0,0.0,0.0,0.0,0.0,0.0,0.0,0.0,0.0,0.0,0.0,0.0,0.0,0.0,0.0,0.0,0.0,0.0,0.0,0.0,0.0,0.0,0.0,0.0,0.0,0.0,0.0,0.0,0.0,0.0,0.0,0.0,0.0,0.0,0.0,0.0,0.0,0.0,0.0,0.0,0.0,0.0,0.0,0.0,0.0,0.0,0.0,0.0,0.0,0.0,0.0,0.0,0.0,0.0,0.0,0.0,0.0,0.0,0.0,0.0,1.7915,1.7794,1.7706,1.7754,1.7253,1.6164,0.0,0.0,0.0,0.0,0.0,0.0,0.0,0.0,0.0,0.0,0.0,0.0,0.0,0.0,0.0,0.0,0.0,0.0,0.0,0.0,0.0,0.0,0.0,0.0,0.0,0.0,0.0,0.0,0.0,0.0,0.0,0.0,0.0,0.0,0.0,0.0,0.0,0.0,0.0,0.0,0.0,0.0,0.0,0.0,0.0,0.0,0.0,0.0,0.0,0.0,0.0,0.0,0.0,0.0,0.0,0.0,0.0,0.0,0.0,0.0,0.0,0.0,0.0,0.0,0.0,0.0,0.0,0.0,0.0,0.0,0.0,0.0,0.0,0.0,0.0,0.0,0.0,0.0,0.0,0.0,0.0,0.0,0.0,0.0,0.0,0.0,0.0,0.0,0.0,0.0,0.0,0.0,0.0,0.0,0.0,0.0,0.0,0.0,0.0,0.0,0.0,0.0,0.0,0.0,0.0,0.0,0.0,0.0,1.772,1.7522,1.737,1.724,1.735,1.6877,0.0,0.0,0.0,0.0,0.0,0.0,0.0,0.0,0.0,0.0,0.0,0.0,0.0,0.0,0.0,0.0,0.0,0.0,0.0,0.0,0.0,0.0,0.0,0.0,0.0,0.0,0.0,0.0,0.0,0.0,0.0,0.0,0.0,0.0,0.0,0.0,0.0,0.0,0.0,0.0,0.0,0.0,0.0,0.0,0.0,0.0,0.0,0.0,0.0,0.0,0.0,0.0,0.0,0.0,0.0,0.0,0.0,0.0,0.0,0.0,0.0,0.0,0.0,0.0,0.0,0.0,0.0,0.0,0.0,0.0,0.0,0.0,0.0,0.0,0.0,0.0,0.0,0.0,0.0,0.0,0.0,0.0,0.0,0.0,0.0,0.0,0.0,0.0,0.0,0.0,0.0,0.0,0.0,0.0,0.0,0.0,0.0,0.0,0.0,0.0,0.0,0.0,0.0,0.0,0.0,0.0,0.0,0.0,0.0,1.7406,1.7191,1.7057,1.7002,1.7078,1.6562,0.0,0.0,0.0,0.0,0.0,0.0,0.0,0.0,0.0,0.0,0.0,0.0,0.0,0.0,0.0,0.0,0.0,0.0,0.0,0.0,0.0,0.0,0.0,0.0,0.0,0.0,0.0,0.0,0.0,0.0,0.0,0.0,0.0,0.0,0.0,0.0,0.0,0.0,0.0,0.0,0.0,0.0,0.0,0.0,0.0,0.0,0.0,0.0,0.0,0.0,0.0,0.0,0.0,0.0,0.0,0.0,0.0,0.0,0.0,0.0,0.0,0.0,0.0,0.0,0.0,0.0,0.0,0.0,0.0,0.0,0.0,0.0,0.0,0.0,0.0,0.0,0.0,0.0,0.0,0.0,0.0,0.0,0.0,0.0,0.0,0.0,0.0,0.0,0.0,0.0,0.0,0.0,0.0,0.0,0.0,0.0,0.0,0.0,0.0,0.0,0.0,0.0,0.0,0.0,0.0,0.0,0.0,0.0,0.0,1.7128,0.0,1.6769,1.6791,1.6812,1.6317,0.0,0.0,0.0,0.0,0.0,0.0,0.0,0.0,0.0,0.0,0.0,0.0,0.0,0.0,0.0,0.0,0.0,0.0,0.0,0.0,0.0,0.0,0.0,0.0,0.0,0.0,0.0,0.0,0.0,0.0,0.0,0.0,0.0,0.0,0.0,0.0,0.0,0.0,0.0,0.0,0.0,0.0,0.0,0.0,0.0,0.0,0.0,0.0,0.0,0.0,0.0,0.0,0.0,0.0,0.0,0.0,0.0,0.0,0.0,0.0,0.0,0.0,0.0,0.0,0.0,0.0,0.0,0.0,0.0,0.0,0.0,0.0,0.0,0.0,0.0,0.0,0.0,0.0,0.0,0.0,0.0,0.0,0.0,0.0,0.0,0.0,0.0,0.0,0.0,0.0,0.0,0.0,0.0,0.0,0.0,0.0,0.0,0.0,0.0,0.0,0.0,0.0,0.0,0.0,0.0,0.0,0.0,0.0,1.7419,1.6905,1.6612,1.6434,1.6497,1.657,1.6127,0.0,0.0,0.0,0.0,0.0,0.0,0.0,0.0,0.0,0.0,0.0,0.0,0.0,0.0,0.0,0.0,0.0,0.0,0.0,0.0,0.0,0.0,0.0,0.0,0.0,0.0,0.0,0.0,0.0,0.0,0.0,0.0,0.0,0.0,0.0,0.0,0.0,0.0,0.0,0.0,0.0,0.0,0.0,0.0,0.0,0.0,0.0,0.0,0.0,0.0,0.0,0.0,0.0,0.0,0.0,0.0,0.0,0.0,0.0,0.0,0.0,0.0,0.0,0.0,0.0,0.0,0.0,0.0,0.0,0.0,0.0,0.0,0.0,0.0,0.0,0.0,0.0,0.0,0.0,0.0,0.0,0.0,0.0,0.0,0.0,0.0,0.0,0.0,0.0,0.0,0.0,0.0,0.0,0.0,0.0,0.0,0.0,0.0,0.0,0.0,0.0,0.0,0.0,0.0,0.0,0.0,0.0,0.0,0.0,1.6281,1.5721,1.5412,1.5399,1.5432,1.5131,0.0,0.0,0.0,0.0,0.0,0.0,0.0,0.0,0.0,0.0,0.0,0.0,0.0,0.0,0.0,0.0,0.0,0.0,0.0,0.0,0.0,0.0,0.0,0.0,0.0,0.0,0.0,0.0,0.0,0.0,0.0,0.0,0.0,0.0,0.0,0.0,0.0,0.0,0.0,0.0,0.0,0.0,0.0,0.0,0.0,0.0,0.0,0.0,0.0,0.0,0.0,0.0,0.0,0.0,0.0,0.0,0.0,0.0,0.0,0.0,0.0,0.0,0.0,0.0,0.0,0.0,0.0,0.0,0.0,0.0,0.0,0.0,0.0,0.0,0.0,0.0,0.0,0.0,0.0,0.0,0.0,0.0,0.0,0.0,0.0,0.0,0.0,0.0,0.0,0.0,0.0,0.0,0.0,0.0,0.0,0.0,0.0,0.0,0.0,0.0,0.0,0.0,0.0,0.0,0.0,0.0,0.0,0.0,0.0,1.5762,1.5196,1.4884,1.4884,1.4845,1.4563,1.4037,0.0,0.0,0.0,0.0,0.0,0.0,0.0,0.0,0.0,0.0,0.0,0.0,0.0,0.0,0.0,0.0,0.0,0.0,0.0,0.0,0.0,0.0,0.0,0.0,0.0,0.0,0.0,0.0,0.0,0.0,0.0,0.0,0.0,0.0,0.0,0.0,0.0,0.0,0.0,0.0,0.0,0.0,0.0,0.0,0.0,0.0,0.0,0.0,0.0,0.0,0.0,0.0,0.0,0.0,0.0,0.0,0.0,0.0,0.0,0.0,0.0,0.0,0.0,0.0,0.0,0.0,0.0,0.0,0.0,0.0,0.0,0.0,0.0,0.0,0.0,0.0,0.0,0.0,0.0,0.0,0.0,0.0,0.0,0.0,0.0,0.0,0.0,0.0,0.0,0.0,0.0,0.0,0.0,0.0,0.0,0.0,0.0,0.0,0.0,0.0,0.0,0.0,0.0,0.0,0.0,0.0,0.0,0.0,1.5424,1.5025,1.4802,1.4783,1.4662,1.4374,0.0,0.0,0.0,0.0,0.0,0.0,0.0,0.0,0.0,0.0,0.0,0.0,0.0,0.0,0.0,0.0,0.0,0.0,0.0,0.0,0.0,0.0,0.0,0.0,0.0,0.0,0.0,0.0,0.0,0.0,0.0,0.0,0.0,0.0,0.0,0.0,0.0,0.0,0.0,0.0,0.0,0.0,0.0,0.0,0.0,0.0,0.0,0.0,0.0,0.0,0.0,0.0,0.0,0.0,0.0,0.0,0.0,0.0,0.0,0.0,0.0,0.0,0.0,0.0,0.0,0.0,0.0,0.0,0.0,0.0,0.0,0.0,0.0,0.0,0.0,0.0,0.0,0.0,0.0,0.0,0.0,0.0,0.0,0.0,0.0,0.0,0.0,0.0,0.0,0.0,0.0,0.0,0.0,0.0,0.0,0.0,0.0,0.0,0.0,0.0,0.0,0.0,0.0,0.0,0.0,0.0,0.0,0.0,0.0,1.5591,1.4436,1.3735,1.3641,1.3552,1.3455,0.0,0.0,0.0,0.0,0.0,0.0,0.0,0.0,0.0,0.0,0.0,0.0,0.0,0.0,0.0,0.0,0.0,0.0,0.0,0.0,0.0,0.0,0.0,0.0,0.0,0.0,0.0,0.0,0.0,0.0,0.0,0.0,0.0,0.0,0.0,0.0,0.0,0.0,0.0,0.0,0.0,0.0,0.0,0.0,0.0,0.0,0.0,0.0,0.0,0.0,0.0,0.0,0.0,0.0,0.0,0.0,0.0,0.0,0.0,0.0,0.0,0.0,0.0,0.0,0.0,0.0,0.0,0.0,0.0,0.0,0.0,0.0,0.0,0.0,0.0,0.0,0.0,0.0,0.0,0.0,0.0,0.0,0.0,0.0,0.0,0.0,0.0,0.0,0.0,0.0,0.0,0.0,0.0,0.0,0.0,0.0,0.0,0.0,0.0,0.0,0.0,0.0,0.0,0.0,0.0,0.0,0.0,0.0,1.5815,1.5344,1.4146,1.3425,1.3271,1.3112,1.3025,0.0,0.0,0.0,0.0,0.0,0.0,0.0,0.0,0.0,0.0,0.0,0.0,0.0,0.0,0.0,0.0,0.0,0.0,0.0,0.0,0.0,0.0,0.0,0.0,0.0,0.0,0.0,0.0,0.0,0.0,0.0,0.0,0.0,0.0,0.0,0.0,0.0,0.0,0.0,0.0,0.0,0.0,0.0,0.0,0.0,0.0,0.0,0.0,0.0,0.0,0.0,0.0,0.0,0.0,0.0,0.0,0.0,0.0,0.0,0.0,0.0,0.0,0.0,0.0,0.0,0.0,0.0,0.0,0.0,0.0,0.0,0.0,0.0,0.0,0.0,0.0,0.0,0.0,0.0,0.0,0.0,0.0,0.0,0.0,0.0,0.0,0.0,0.0,0.0,0.0,0.0,0.0,0.0,0.0,0.0,0.0,0.0,0.0,0.0,0.0,0.0,0.0,0.0,0.0,0.0,0.0,0.0,0.0,1.5939,1.4954,1.4066,1.3543,1.3408,1.3069,1.2913,0.0,0.0,0.0,0.0,0.0,0.0,0.0,0.0,0.0,0.0,0.0,0.0,0.0,0.0,0.0,0.0,0.0,0.0,0.0,0.0,0.0,0.0,0.0,0.0,0.0,0.0,0.0,0.0,0.0,0.0,0.0,0.0,0.0,0.0,0.0,0.0,0.0,0.0,0.0,0.0,0.0,0.0,0.0,0.0,0.0,0.0,0.0,0.0,0.0,0.0,0.0,0.0,0.0,0.0,0.0,0.0,0.0,0.0,0.0,0.0,0.0,0.0,0.0,0.0,0.0,0.0,0.0,0.0,0.0,0.0,0.0,0.0,0.0,0.0,0.0,0.0,0.0,0.0,0.0,0.0,0.0,0.0,0.0,0.0,0.0,0.0,0.0,0.0,0.0,0.0,0.0,0.0,0.0,0.0,0.0,0.0,0.0,0.0,0.0,0.0,0.0,0.0,0.0,0.0,0.0,0.0,0.0,0.0,1.6027,1.5216,1.4168,1.3564,1.3476,1.3116,1.2913,0.0,0.0,0.0,0.0,0.0,0.0,0.0,0.0,0.0,0.0,0.0,0.0,0.0,0.0,0.0,0.0,0.0,0.0,0.0,0.0,0.0,0.0,0.0,0.0,0.0,0.0,0.0,0.0,0.0,0.0,0.0,0.0,0.0,0.0,0.0,0.0,0.0,0.0,0.0,0.0,0.0,0.0,0.0,0.0,0.0,0.0,0.0,0.0,2.5802,0.0,0.0,0.0,0.0,0.0,0.0,0.0,0.0,0.0,0.0,0.0,0.0,0.0,0.0,0.0,0.0,0.0,0.0,0.0,0.0,0.0,0.0,0.0,0.0,0.0,0.0,0.0,0.0,0.0,0.0,0.0,0.0,0.0,0.0,0.0,0.0,0.0,0.0,0.0,0.0,0.0,0.0,0.0,0.0,0.0,0.0,0.0,0.0,0.0,0.0,0.0,0.0,0.0,0.0,0.0,0.0,0.0,0.0,0.0,1.61,1.4944,1.4176,1.3702,1.356,1.322,1.303,0.0,0.0,0.0,0.0,0.0,0.0,0.0,0.0,0.0,0.0,0.0,0.0,0.0,0.0,0.0,0.0,0.0,0.0,0.0,0.0,0.0,0.0,0.0,0.0,0.0,0.0,0.0,0.0,0.0,0.0,0.0,0.0,0.0,0.0,0.0,0.0,0.0,0.0,0.0,0.0,0.0,0.0,0.0,0.0,0.0,0.0,0.0,0.0,0.0,0.0,0.0,0.0,0.0,0.0,0.0,0.0,0.0,0.0,0.0,0.0,0.0,0.0,0.0,0.0,0.0,0.0,0.0,0.0,0.0,0.0,0.0,0.0,0.0,0.0,0.0,0.0,0.0,0.0,0.0,0.0,0.0,0.0,0.0,0.0,0.0,0.0,0.0,0.0,0.0,0.0,0.0,0.0,0.0,0.0,0.0,0.0,0.0,0.0,0.0,0.0,0.0,0.0,0.0,0.0,0.0,0.0,0.0,1.7014,1.6132,1.462,1.4227,1.3917,1.3661,1.3391,1.3228,1.3146,0.0,0.0,0.0,0.0,0.0,0.0,0.0,0.0,0.0,0.0,0.0,0.0,0.0,0.0,0.0,0.0,0.0,0.0,0.0,0.0,0.0,0.0,0.0,0.0,0.0,0.0,0.0,0.0,0.0,0.0,0.0,0.0,0.0,0.0,0.0,0.0,0.0,0.0,2.2575,2.3968,0.0,0.0,0.0,0.0,0.0,0.0,0.0,0.0,2.8039,0.0,0.0,0.0,0.0,0.0,0.0,0.0,0.0,0.0,0.0,0.0,0.0,0.0,0.0,0.0,0.0,0.0,0.0,0.0,0.0,0.0,0.0,0.0,0.0,0.0,0.0,0.0,0.0,0.0,0.0,0.0,0.0,0.0,0.0,0.0,0.0,0.0,0.0,0.0,0.0,0.0,0.0,0.0,0.0,0.0,0.0,0.0,0.0,0.0,0.0,0.0,0.0,0.0,0.0,0.0,0.0,1.7712,1.6795,1.5851,1.4858,1.4449,1.4108,1.3871,1.3594,1.3425,1.3352,0.0,0.0,0.0,0.0,0.0,0.0,0.0,0.0,0.0,0.0,0.0,0.0,0.0,0.0,0.0,0.0,0.0,0.0,0.0,0.0,0.0,0.0,0.0,0.0,0.0,0.0,0.0,0.0,0.0,0.0,0.0,0.0,0.0,0.0,0.0,0.0,0.0,0.0,0.0,2.5122,2.5903,0.0,0.0,0.0,0.0,0.0,0.0,0.0,0.0,2.8255,0.0,0.0,0.0,0.0,0.0,0.0,0.0,0.0,0.0,0.0,0.0,0.0,0.0,0.0,0.0,0.0,0.0,0.0,0.0,0.0,0.0,0.0,0.0,0.0,0.0,0.0,0.0,0.0,0.0,0.0,0.0,0.0,0.0,0.0,0.0,0.0,0.0,0.0,0.0,0.0,0.0,0.0,0.0,0.0,0.0,0.0,0.0,0.0,0.0,0.0,0.0,0.0,0.0,0.0,0.0,1.7907,1.6994,1.6063,1.5132,1.4766,1.4449,1.4121,1.3858,1.3644,0.0,0.0,0.0,0.0,0.0,0.0,0.0,0.0,0.0,0.0,0.0,0.0,0.0,0.0,0.0,0.0,0.0,0.0,0.0,0.0,0.0,0.0,0.0,0.0,0.0,0.0,0.0,0.0,0.0,0.0,0.0,0.0,0.0,0.0,0.0,0.0,0.0,0.0,0.0,0.0,2.5943,2.6694,2.7405,0.0,0.0,0.0,0.0,0.0,0.0,2.8979,2.9428,0.0,0.0,0.0,0.0,0.0,0.0,0.0,0.0,0.0,0.0,0.0,0.0,0.0,0.0,0.0,0.0,0.0,0.0,0.0,0.0,0.0,0.0,0.0,0.0,0.0,0.0,0.0,0.0,0.0,0.0,0.0,0.0,0.0,0.0,0.0,0.0,0.0,0.0,0.0,0.0,0.0,0.0,0.0,0.0,0.0,0.0,0.0,0.0,0.0,0.0,0.0,0.0,0.0,0.0,0.0,1.8114,1.7197,1.6293,1.5477,1.5179,1.4828,1.4447,1.4173,1.3927,0.0,0.0,0.0,0.0,0.0,0.0,0.0,0.0,0.0,0.0,0.0,0.0,0.0,0.0,0.0,0.0,0.0,0.0,0.0,0.0,0.0,0.0,0.0,0.0,0.0,0.0,0.0,0.0,0.0,0.0,0.0,0.0,0.0,0.0,0.0,0.0,0.0,0.0,0.0,0.0,0.0,2.7531,2.8261,2.851,0.0,0.0,0.0,0.0,2.9364,2.9953,0.0,0.0,0.0,0.0,0.0,0.0,0.0,0.0,0.0,0.0,0.0,0.0,0.0,0.0,0.0,0.0,0.0,0.0,0.0,0.0,0.0,0.0,0.0,0.0,0.0,0.0,0.0,0.0,0.0,0.0,0.0,0.0,0.0,0.0,0.0,0.0,0.0,0.0,0.0,0.0,0.0,0.0,0.0,0.0,0.0,0.0,0.0,0.0,0.0,0.0,0.0,0.0,0.0,0.0,0.0,0.0,1.8496,1.7161,1.6268,1.5926,1.561,1.527,1.4922,1.4596,1.4308,0.0,0.0,0.0,0.0,0.0,0.0,0.0,0.0,0.0,0.0,0.0,0.0,0.0,0.0,0.0,0.0,0.0,0.0,0.0,0.0,0.0,0.0,0.0,0.0,0.0,0.0,0.0,0.0,0.0,0.0,0.0,0.0,0.0,0.0,0.0,0.0,0.0,0.0,0.0,0.0,0.0,2.8375,2.9221,2.9951,3.0399,0.0,0.0,0.0,3.0249,3.0353,0.0,0.0,0.0,0.0,0.0,0.0,0.0,0.0,0.0,0.0,0.0,0.0,0.0,0.0,0.0,0.0,0.0,0.0,0.0,0.0,0.0,0.0,0.0,0.0,0.0,0.0,0.0,0.0,0.0,0.0,0.0,0.0,0.0,0.0,0.0,0.0,0.0,0.0,0.0,0.0,0.0,0.0,0.0,0.0,0.0,0.0,0.0,0.0,0.0,0.0,0.0,0.0,0.0,0.0,0.0,1.9099,1.8949,1.7508,1.6607,1.634,1.612,1.5824,1.5404,1.5106,1.4831,0.0,0.0,0.0,0.0,0.0,0.0,0.0,0.0,0.0,0.0,0.0,0.0,0.0,0.0,0.0,0.0,0.0,0.0,0.0,0.0,0.0,0.0,0.0,0.0,0.0,0.0,0.0,0.0,0.0,0.0,0.0,0.0,0.0,0.0,0.0,0.0,0.0,0.0,0.0,0.0,0.0,0.0,2.9529,3.0248,0.0,0.0,0.0,3.1312,3.1327,0.0,0.0,0.0,0.0,0.0,0.0,0.0,0.0,0.0,0.0,0.0,0.0,0.0,0.0,0.0,0.0,0.0,0.0,0.0,0.0,0.0,0.0,0.0,0.0,0.0,0.0,0.0,0.0,0.0,0.0,0.0,0.0,0.0,0.0,0.0,0.0,0.0,0.0,0.0,0.0,0.0,0.0,0.0,0.0,0.0,0.0,0.0,0.0,0.0,0.0,0.0,0.0,0.0,0.0,0.0,0.0,0.0,1.9427,1.7949,1.7055,1.6802,1.6657,1.6376,1.5966,1.5695,0.0,0.0,0.0,0.0,0.0,0.0,0.0,0.0,0.0,0.0,0.0,0.0,0.0,0.0,0.0,0.0,0.0,0.0,0.0,0.0,0.0,0.0,0.0,0.0,0.0,0.0,0.0,0.0,0.0,0.0,0.0,0.0,0.0,0.0,0.0,0.0,0.0,0.0,0.0,0.0,0.0,0.0,3.0058,3.027,3.0996,3.147,0.0,0.0,3.236,3.236,3.2772,3.3122,0.0,0.0,0.0,0.0,0.0,0.0,0.0,0.0,0.0,0.0,0.0,0.0,0.0,0.0,0.0,0.0,0.0,0.0,0.0,0.0,0.0,0.0,0.0,0.0,0.0,0.0,0.0,0.0,0.0,0.0,0.0,0.0,0.0,0.0,0.0,0.0,0.0,0.0,0.0,0.0,0.0,0.0,0.0,0.0,0.0,0.0,0.0,0.0,0.0,0.0,0.0,0.0,0.0,0.0,0.0,1.9815,1.8392,1.7561,1.7332,1.715,1.6926,1.6644,1.638,1.6077,0.0,0.0,0.0,0.0,0.0,0.0,0.0,0.0,0.0,0.0,0.0,0.0,0.0,0.0,0.0,0.0,0.0,0.0,0.0,0.0,0.0,0.0,0.0,0.0,0.0,0.0,0.0,0.0,0.0,0.0,0.0,0.0,0.0,0.0,0.0,0.0,0.0,0.0,0.0,0.0,0.0,3.1301,3.2101,3.2847,3.3313,0.0,0.0,3.3306,3.3306,3.3342,3.3382,3.3378,0.0,0.0,0.0,0.0,0.0,0.0,0.0,0.0,0.0,0.0,0.0,0.0,0.0,0.0,0.0,0.0,0.0,0.0,0.0,0.0,0.0,0.0,0.0,0.0,0.0,0.0,0.0,0.0,0.0,0.0,0.0,0.0,0.0,0.0,0.0,0.0,0.0,0.0,0.0,0.0,0.0,0.0,0.0,0.0,0.0,0.0,0.0,0.0,0.0,0.0,0.0,0.0,0.0,2.0806,2.0341,1.9287,1.8426,1.78,1.7659,1.7474,1.7211,1.6993,1.6722,0.0,0.0,0.0,0.0,0.0,0.0,0.0,0.0,0.0,0.0,0.0,0.0,0.0,0.0,0.0,0.0,0.0,0.0,0.0,0.0,0.0,0.0,0.0,0.0,0.0,0.0,0.0,0.0,2.4083,2.446,2.5294,0.0,0.0,0.0,0.0,0.0,0.0,0.0,0.0,0.0,0.0,3.2267,3.2605,3.3261,0.0,0.0,3.3703,3.3643,3.3661,3.3619,3.3605,3.3647,3.4119,0.0,0.0,0.0,0.0,0.0,0.0,0.0,0.0,0.0,0.0,0.0,0.0,0.0,0.0,0.0,0.0,0.0,0.0,0.0,0.0,0.0,0.0,0.0,0.0,0.0,0.0,0.0,0.0,0.0,0.0,0.0,0.0,0.0,0.0,0.0,0.0,0.0,0.0,0.0,0.0,0.0,0.0,0.0,0.0,0.0,0.0,0.0,0.0,0.0,0.0,0.0,0.0,2.1505,2.0796,1.9984,1.9122,1.8239,1.8118,1.7969,1.7738,1.7516,1.7308,0.0,0.0,0.0,0.0,0.0,0.0,0.0,0.0,0.0,0.0,0.0,0.0,0.0,0.0,0.0,0.0,0.0,0.0,0.0,0.0,0.0,0.0,0.0,0.0,0.0,0.0,0.0,0.0,2.5469,2.5957,2.7078,0.0,0.0,0.0,0.0,0.0,0.0,0.0,0.0,0.0,0.0,3.3052,3.3305,3.3741,3.4154,3.4357,3.4349,3.4421,3.466,3.4626,3.4618,3.4666,0.0,0.0,0.0,0.0,0.0,0.0,0.0,0.0,0.0,0.0,0.0,0.0,0.0,0.0,0.0,0.0,0.0,0.0,0.0,0.0,0.0,0.0,0.0,0.0,0.0,0.0,0.0,0.0,0.0,0.0,0.0,0.0,0.0,0.0,0.0,0.0,0.0,0.0,0.0,0.0,0.0,0.0,0.0,0.0,0.0,0.0,0.0,0.0,0.0,0.0,0.0,0.0,0.0,0.0,2.1197,2.0429,1.9585,1.8715,1.8558,1.8442,1.829,1.802,1.7832,1.7737,0.0,0.0,0.0,0.0,0.0,0.0,0.0,0.0,0.0,0.0,0.0,0.0,0.0,0.0,0.0,0.0,0.0,0.0,0.0,0.0,0.0,0.0,0.0,0.0,0.0,0.0,2.7194,2.7293,2.8017,0.0,0.0,0.0,0.0,0.0,0.0,0.0,0.0,0.0,0.0,3.3325,3.361,3.4441,3.4454,3.4685,3.5425,3.5496,3.5764,3.6572,3.6639,3.6663,0.0,0.0,0.0,0.0,0.0,0.0,0.0,0.0,0.0,0.0,0.0,0.0,0.0,0.0,0.0,0.0,0.0,0.0,0.0,0.0,0.0,0.0,0.0,0.0,0.0,0.0,0.0,2.8,2.7827,0.0,0.0,0.0,0.0,0.0,0.0,0.0,0.0,0.0,0.0,0.0,2.8622,2.8825,0.0,0.0,0.0,0.0,0.0,0.0,0.0,0.0,0.0,0.0,0.0,0.0,2.3331,2.1616,2.1261,2.0443,1.908,1.8956,1.8842,1.8698,1.8523,1.88,1.9545,0.0,0.0,0.0,0.0,0.0,0.0,0.0,0.0,0.0,0.0,0.0,0.0,0.0,0.0,0.0,0.0,0.0,0.0,0.0,0.0,0.0,0.0,0.0,0.0,0.0,2.7407,0.0,0.0,0.0,0.0,0.0,0.0,0.0,0.0,0.0,0.0,0.0,3.3524,3.4348,3.4444,3.4538,3.4812,3.5243,3.5614,0.0,0.0,0.0,0.0,0.0,0.0,0.0,0.0,0.0,0.0,0.0,0.0,0.0,0.0,4.0158,4.0129,4.003,3.9796,3.9254,0.0,0.0,0.0,0.0,0.0,0.0,0.0,0.0,0.0,0.0,0.0,0.0,0.0,0.0,0.0,0.0,3.0374,0.0,0.0,0.0,0.0,0.0,0.0,0.0,0.0,2.9304,2.9315,2.9196,2.9318,2.9418,0.0,2.957,2.8914,0.0,0.0,0.0,0.0,0.0,0.0,0.0,0.0,2.4238,2.198,2.1877,2.1068,1.9468,1.9323,1.9209,1.9071,1.8929,1.9467,2.0781,2.0641,2.1214,0.0,0.0,0.0,0.0,0.0,0.0,0.0,0.0,0.0,0.0,0.0,0.0,0.0,0.0,0.0,0.0,0.0,0.0,0.0,0.0,0.0,0.0,0.0,2.8824,0.0,0.0,0.0,0.0,0.0,0.0,0.0,0.0,0.0,3.4307,3.4563,3.4969,3.5504,3.5834,3.6018,3.6011,0.0,0.0,0.0,0.0,0.0,0.0,0.0,3.8252,3.8273,3.8762,3.9174,3.9214,4.0511,4.1569,4.1669,0.0,0.0,4.1647,4.1237,4.0787,4.0272,4.0078,3.9998,3.9998,3.9998,3.9836,0.0,0.0,0.0,0.0,0.0,0.0,0.0,0.0,3.4018,3.3468,0.0,3.2262,0.0,0.0,0.0,0.0,0.0,0.0,0.0,0.0,3.0574,3.0339,2.9742,2.9695,2.9809,2.9996,3.0003,2.9984,2.995,2.9504,0.0,0.0,0.0,0.0,0.0,0.0,2.4626,2.2368,2.2236,2.1415,1.9832,1.9668,1.955,1.9418,1.9222,1.9844,2.1314,2.1175,2.1761,2.3354,2.3347,0.0,0.0,0.0,0.0,0.0,0.0,0.0,0.0,0.0,0.0,0.0,0.0,0.0,0.0,0.0,0.0,0.0,0.0,0.0,0.0,3.0398,0.0,0.0,0.0,0.0,0.0,0.0,0.0,0.0,0.0,0.0,3.5474,3.6087,3.664,3.6733,0.0,0.0,0.0,0.0,3.8114,3.8856,3.8955,3.9204,3.9967,4.0043,4.0014,4.0072,0.0,0.0,4.037,4.1176,4.1793,4.1821,4.2449,4.2783,4.1878,4.1031,4.0412,4.0316,4.0252,4.0215,4.0196,4.0215,4.0196,3.5957,0.0,0.0,0.0,0.0,3.5758,3.5748,3.5419,3.4839,3.456,3.4458,3.3656,0.0,0.0,0.0,0.0,0.0,0.0,3.1005,3.0894,3.0438,3.0102,2.9969,3.0037,3.0128,3.0286,3.0273,3.0304,3.0239,2.9519,2.9357,2.9703,0.0,0.0,0.0,0.0,2.5193,2.3497,2.2787,2.1952,2.085,2.0215,1.9807,1.9701,1.954,2.0181,2.1762,2.1667,2.2292,2.3802,2.3837,0.0,0.0,0.0,0.0,0.0,0.0,0.0,0.0,0.0,0.0,0.0,0.0,0.0,0.0,0.0,0.0,0.0,0.0,0.0,3.0736,3.1271,3.1864,0.0,0.0,0.0,0.0,0.0,0.0,0.0,0.0,0.0,3.6701,3.6732,3.7043,0.0,0.0,3.8041,3.8035,3.8514,3.8948,3.9191,0.0,0.0,0.0,4.0442,4.0442,4.045,4.0508,4.0571,4.0609,4.1363,4.1949,4.1943,4.2156,4.22,4.1979,4.1647,4.1162,4.0673,4.0468,4.0417,4.0417,4.0417,4.0417,3.8054,3.7717,3.756,3.7361,3.7133,3.7119,3.6963,3.6643,3.5671,3.5342,3.5423,3.4614,3.402,3.3597,3.3668,0.0,0.0,0.0,3.1958,3.1754,3.0993,3.0506,3.026,2.9951,2.9869,2.9953,2.9607,2.9458,2.9438,2.8917,2.8837,2.9161,0.0,0.0,2.7152,2.6623,2.5584,2.4063,2.3155,2.2292,2.1439,2.0546,2.0026,1.9933,2.0146,2.0879,2.2137,2.2417,2.309,2.4315,2.4265,2.4192,0.0,0.0,0.0,0.0,0.0,0.0,0.0,0.0,0.0,0.0,0.0,2.8773,0.0,0.0,0.0,0.0,3.0433,3.1097,3.2071,3.2513,0.0,0.0,0.0,0.0,0.0,0.0,0.0,3.7088,3.7271,3.7481,3.7617,3.7583,3.7868,3.869,3.9037,3.9215,3.9168,0.0,3.9901,3.9888,4.0346,4.0675,4.0694,4.0675,4.0681,4.0674,4.0725,4.075,4.0784,4.1236,4.1546,4.1559,4.1559,4.1559,4.1565,4.1492,4.1312,4.0763,4.06,4.0574,4.0566,4.0586,4.0566,3.9024,3.9087,3.849,3.8392,3.8589,3.7938,3.7806,3.7903,3.6456,3.591,3.597,3.5181,3.4832,3.4822,3.4832,0.0,0.0,3.4045,3.3284,3.269,3.1904,3.1124,3.0389,2.9593,2.9218,2.919,2.8388,2.8016,2.8031,2.7957,2.7967,2.8003,2.7752,2.7277,2.6664,2.6571,2.5785,2.4318,2.3459,2.2562,2.1604,2.0677,2.0215,2.0244,2.0934,2.1738,2.2587,2.3266,2.3996,2.475,2.4651,2.4538,2.4548,0.0,0.0,0.0,0.0,0.0,0.0,0.0,0.0,0.0,0.0,0.0,0.0,0.0,0.0,0.0,3.1156,0.0,3.3015,3.3882,0.0,0.0,0.0,3.7078,3.7193,3.7263,3.7288,3.7223,0.0,0.0,0.0,0.0,3.8778,3.9521,4.0318,4.0784,4.0733,4.0626,4.0694,4.0601,4.077,4.0828,4.0814,4.0814,4.0819,4.0801,4.0801,4.0849,4.0893,4.0917,4.0921,4.096,4.0921,4.0917,4.0902,4.0975,4.0869,4.0773,4.0718,4.0732,4.0712,4.0635,4.0538,3.7739,3.7845,3.7742,3.7946,3.8353,3.7692,3.7438,3.7406,3.6566,3.6226,3.6261,3.5514,3.5179,3.5159,3.4557,3.4333,3.4325,3.2897,3.2199,3.1976,3.1202,3.0421,2.9668,2.9443,2.9026,2.8468,2.8246,2.8143,2.8121,2.7483,2.7178,2.7141,2.6528,2.6378,2.6722,2.6143,2.5637,2.5271,2.4413,2.3217,2.1701,2.0809,2.0653,2.1245,2.1417,2.2201,2.3573,2.3762,2.42,2.4967,2.4917,2.4836,2.4806,2.6144,0.0,0.0,0.0,0.0,0.0,0.0,0.0,0.0,0.0,3.1843,3.1922,0.0,3.217,0.0,3.2555,3.3113,3.3974,3.4361,0.0,0.0,3.6887,3.7408,3.8095,3.8221,3.8003,3.734,3.7679,3.7858,3.7603,3.8151,3.8654,3.885,3.9558,4.0029,3.999,3.9967,3.9963,4.0018,4.0485,4.0933,4.0871,4.0953,4.0914,4.094,4.0937,4.096,4.0983,4.0986,4.0986,4.0986,4.0967,4.0986,4.0928,4.0967,4.094,4.0918,4.0887,4.0849,4.0829,4.0325,3.9854,3.7556,3.76,3.7279,3.7304,3.7538,3.7081,3.6929,3.6919,3.6207,3.5935,3.5983,3.5575,3.5226,3.4873,3.4434,3.405,3.3668,3.2411,3.1861,3.1824,3.0644,2.9855,2.9407,2.8682,2.8099,2.7653,2.7273,2.7092,2.7064,2.6581,2.635,2.6354,2.5909,2.5903,2.6272,2.5868,2.5629,2.5632,2.4792,2.3694,2.2381,2.185,2.1811,2.226,2.261,2.323,2.4111,2.4446,2.4802,2.5202,2.5165,2.5302,2.5651,2.6816,2.763,0.0,0.0,0.0,0.0,0.0,0.0,0.0,0.0,0.0,0.0,0.0,3.3069,0.0,3.3669,0.0,3.494,3.5113,3.5557,3.6468,3.6957,3.7446,3.7917,3.7992,3.7825,3.7356,3.7398,3.742,3.7302,3.7713,3.818,3.8528,3.8652,3.8811,3.9104,3.9158,3.9158,3.9197,3.9568,3.988,3.988,3.9899,3.988,3.988,3.988,3.988,3.988,3.988,3.9899,3.9899,3.9899,3.988,3.988,3.988,3.988,3.9875,3.9853,3.9977,4.0272,3.97,3.9112,3.7613,3.755,3.687,3.6569,3.6556,3.6374,3.6366,3.6412,3.5734,3.5392,3.5366,3.5325,3.4908,3.4274,3.4143,3.3708,3.3029,3.2162,3.1793,3.1743,3.0232,2.9448,2.9275,2.7737,2.6947,2.6813,2.6059,2.5696,2.5701,2.5702,2.5703,2.5703,2.5703,2.5703,2.5701,2.5702,2.5698,2.5692,2.4849,2.4027,2.3287,2.3154,2.3163,2.3296,2.396,2.436,2.4474,2.5124,2.5475,2.5433,2.5476,2.5839,2.6574,2.7432,2.8214,0.0,2.9697,0.0,0.0,0.0,0.0,0.0,0.0,0.0,0.0,3.3319,3.3702,3.4501,3.4633,3.4986,3.5756,3.5883,3.5968,3.6087,3.6809,3.7288,3.7293,3.73,3.7264,3.7147,3.6465,3.6308,3.6992,3.7129,3.7441,3.7968,3.7577,3.7458,3.8014,3.8241,3.8336,3.8358,3.8436,3.8708,3.8689,3.8611,3.8609,3.857,3.8648,3.8513,3.8609,3.859,3.8552,3.857,3.8648,3.859,3.8533,3.8552,3.8552,3.8629,3.8548,3.8654,3.9262,3.8895,3.8386,3.6074,3.6112,3.5954,3.5901,3.5877,3.5857,3.5809,3.5784,3.5628,3.5231,3.4641,3.3953,3.3596,3.3453,3.2775,3.2388,3.2262,3.1397,3.1001,3.0994,2.9968,2.9158,2.8485,2.7472,2.6636,2.5975,2.5781,2.5703,2.5702,2.57,2.5697,2.5693,2.5693,2.569,2.5706,0.0,0.0,0.0,2.4843,2.4335,2.4139,2.3453,2.3448,2.4123,2.4308,0.0,2.5331,2.5509,2.5569,2.5585,2.6178,0.0,0.0,0.0,0.0,0.0,0.0,0.0,0.0,0.0,0.0,0.0,3.5325,3.5141,3.5173,3.5242,3.5345,3.5507,3.5603,3.5711,3.5873,3.5933,3.6261,3.6954,3.7199,3.7301,3.7301,3.7285,3.705,3.6328,3.6092,3.6071,3.6247,3.6247,3.6325,3.656,3.6365,3.6306,3.6484,3.7127,3.7493,3.7553,3.8023,3.8511,3.857,3.8509,3.839,3.8584,3.8565,3.8527,3.8488,3.8507,3.8545,3.8507,3.8565,3.8526,3.8526,3.8584,3.8468,3.8565,3.7999,3.776,3.8525,3.809,3.7523,3.572,0.0,3.5768,3.5815,0.0,3.5787,3.5776,3.5736,3.5251,3.4637,3.3884,3.3484,3.3078,3.2686,3.2244,3.1831,3.1439,3.0995,3.0787,3.0735,2.9507,2.8689,2.8261,2.6953,2.6132,2.572,2.5699,2.5694,2.5689,2.5705,2.5698,2.5668,2.5648,2.5642,2.5652,2.566,2.5658,2.5692,2.5266,2.5034,2.5017,2.4609,2.4609,2.5019,0.0,0.0,0.0,0.0,0.0,0.0,0.0,0.0,0.0,0.0,0.0,2.9916,3.0338,3.111,3.2355,3.2931,3.3755,3.5049,3.5557,3.5787,3.5747,3.5813,3.5833,3.5867,3.5907,3.5947,3.5947,3.5978,3.6182,3.6597,3.666,3.666,3.666,3.6659,3.6482,3.611,3.601,3.6008,3.6008,3.6005,3.6003,3.6003,3.6003,3.6003,3.6024,3.6345,3.6641,3.666,3.6992,3.7305,3.7324,3.7305,3.7324,3.7305,3.7324,3.7305,3.7305,3.7305,3.7305,3.7324,3.7305,3.7305,3.7324,3.7324,3.7324,3.7285,3.6973,3.6777,3.7185,3.6947,3.6648,3.583,3.5855,3.5886,3.5914,3.5916,3.5919,3.5828,3.5613,0.0,0.0,0.0,3.2982,3.2545,3.1871,3.1876,3.1495,3.0838,3.0799,3.08,3.0722,2.9217,2.8435,2.8239,2.667,2.5865,2.5688,2.5703,2.5694,2.5681,2.5681,2.565,2.5611,2.5609,2.56,2.5578,2.5579,2.5603,2.5673,2.5666,2.5675,2.568,2.5691,2.5696,2.5697,2.5702,2.5703,2.5703,2.5703,2.5701,2.5734,2.669,2.7519,2.8193,2.9164,3.0024,3.065,3.0734,3.1084,3.189,3.2656,3.3548,3.4542,3.5414,3.5882,3.581,3.588,3.5925,3.5917,3.5983,3.6014,3.6008,3.6011,3.6014,3.6015,3.6014,3.6012,3.601,3.6008,3.6026,3.6007,3.6001,3.5978,3.5996,3.5989,3.5965,3.5986,3.5986,3.5986,3.6009,3.604,3.6086,3.6105,3.6222,3.6105,3.6046,3.6106,3.6009,3.6147,3.6108,3.601,3.601,3.601,3.601,3.6168,3.6011,3.6089,3.605,3.6129,3.601,3.601,3.601,3.601,3.6011,3.6015,3.6052,3.5923,3.5975,3.5977,3.598,3.5985,3.5986,3.5559,3.4799,3.3936,3.3075,3.2215,3.1476,3.109,3.0995,3.0976,3.0957,3.0878,3.0819,3.0797,0.0,2.9792,2.8967,2.828,2.7277,2.643,2.574,2.5634,2.5619,2.5622,2.5619,2.5605,2.5599,2.5613,2.5565,2.5511,2.5515,2.5522,2.5523,2.5574,2.5595,2.5617,2.5597,2.5629,2.5696,2.5703,2.5688,2.5692,2.5696,2.5699,2.5741,2.7246,2.8182,2.8315,2.975,3.0677,3.077,3.0798,3.1164,3.1989,3.2205,3.2957,3.453,3.5496,3.5961,3.5896,3.5942,3.5974,3.6006,3.5988,3.6012,3.6016,3.6015,3.6014,3.6012,3.6009,3.6006,3.6004,3.6014,3.6006,3.6006,3.5951,3.5921,3.5901,3.5912,3.5926,3.5914,3.5936,3.594,3.5988,3.6019,3.6006,3.6006,3.6006,3.6006,3.6007,3.6012,3.6017,3.6004,3.6004,3.6005,3.6008,3.6009,3.6009,3.601,3.6009,3.6009,3.6009,3.601,3.6009,3.6009,3.6009,3.6009,3.6009,3.6012,3.6014,3.5975,3.5996,3.6015,3.6016,3.6016,3.6015,3.5506,3.4683,3.4296,3.334,3.2109,3.168,3.1249,3.0817,3.0796,3.0832,3.0848,3.0823,3.0796,3.0729,2.99,2.9306,2.8866,2.7589,2.676,2.634,2.5841,2.5568,2.5543,2.5543,2.5544,2.5543,2.5494,2.5467,2.5456,2.5441,2.5457,2.5449,2.5508,2.5565,2.5612,2.561,2.5622,2.5628,2.5646,2.5655,2.5641,2.5647,2.5657,2.5687,2.7312,2.8255,2.8338,2.9883,3.08,3.0799,3.0797,3.0971,3.136,3.2279,3.3356,3.4609,3.5508,3.5976,3.5957,3.5974,3.6013,3.6016,3.6015,3.6014,3.6007,3.6003,3.6021,3.6017,3.6012,3.5985,3.5941,3.5933,3.5962,3.5955,3.5938,3.5889,3.5889,3.5894,3.5888,3.5894,3.5894,3.5919,3.5945,3.595,3.5946,3.5986,3.6011,3.6011,3.6011,3.6015,3.602,3.6006,3.6006,3.6007,3.6012,3.6012,3.6012,3.6012,3.6012,3.6012,3.6012,3.6012,3.6012,3.6012,3.6012,3.6012,3.6012,3.6017,3.6007,3.5984,3.5963,3.5983,3.5983,3.5982,3.5977,3.5599,3.5004,3.4967,3.4098,3.2763,3.249,3.1922,3.1136,3.1089,3.0986,3.0825,3.0794,3.0802,3.0711,3.0073,2.9666,2.9377,2.804,2.7345,2.7113,2.6456,2.6026,2.5808,2.5765,2.5646,2.5491,2.5408,2.538,2.5385,2.5391,2.5387,2.5395,2.5453,2.5515,2.5554,2.5567,2.5579,2.5562,2.559,2.5566,2.5591,2.558,2.5636,2.5756,2.7103,2.8012,2.832,2.969,3.0592,3.0756,3.0796,3.0798,3.0878,3.2226,3.3474,3.4347,3.5225,3.5787,3.5973,3.6006,3.6012,3.6007,3.6006,3.5982,3.5988,3.598,3.5972,3.597,3.5981,3.5951,3.5899,3.5875,3.5883,3.5869,3.5892,3.5862,3.5878,3.5868,3.5857,3.5861,3.5864,3.5868,3.5868,3.5872,3.5901,3.5931,3.5968,3.5968,3.597,3.5968,3.597,3.5975,3.5979,3.5984,3.6005,3.6007,3.6005,3.6009,3.6007,3.6009,3.6005,3.6007,3.6007,3.6009,3.6011,3.6007,3.6009,3.6019,3.6016,3.5908,3.5919,3.5919,3.5892,3.5921,3.5919,3.5841,3.5763,3.5792,3.5264,3.4304,3.361,3.2817,3.2048,3.198,3.1564,3.086,3.0801,3.0781,3.0706,3.063,3.0176,2.9461,2.9136,2.8664,2.7981,2.7748,2.7243,2.6627,2.6584,2.6219,2.5504,2.5337,2.537,2.5418,2.5418,2.5407,2.5391,2.54,2.5417,2.5418,2.5476,2.5511,2.5526,2.5515,2.5515,2.5508,2.5582,2.5604,2.5671,2.6513,2.7398,2.8197,2.911,2.9978,3.0726,3.0792,3.0799,3.0862,3.1683,3.2636,3.3467,3.4365,3.5201,3.591,3.6011,3.6017,3.6001,3.6002,3.5976,3.5919,3.5912,3.5907,3.5916,3.5922,3.5888,3.5811,3.5813,3.5791,3.5807,3.5791,3.5797,3.5797,3.576,3.5756,3.5793,3.581,3.5803,3.5803,3.5799,3.5815,3.5829,3.5882,3.5911,3.5915,3.5892,3.5908,3.5908,3.5914,3.5938,3.5973,3.5999,3.6003,3.5992,3.5999,3.5999,3.6001,3.6005,3.5984,3.6001,3.6001,3.5984,3.6005,3.6007,3.6002,3.5824,3.582,3.584,3.5833,3.5849,3.584,3.5827,3.585,3.5885,3.569,3.5353,3.4976,3.4088,3.2847,3.2806,3.2327,3.1548,3.1459,3.1141,3.0676,3.0638,3.0431,3.0036,2.9471,2.9042,2.8661,2.8169,2.772,2.7411,2.7337,2.7168,2.6858,2.6784,2.6535,2.6084,2.6046,2.5807,2.5298,2.5284,2.5284,2.5303,2.5382,2.544,2.5448,2.5449,2.5445,2.5453,2.551,2.5538,2.5592,2.6375,2.7223,2.8101,2.8974,2.9819,3.0647,3.0728,3.0763,3.081,3.1611,3.2448,3.3273,3.4148,3.5,3.5844,3.5939,3.5945,3.595,3.5943,3.5921,3.5897,3.5891,3.5885,3.585,3.5824,3.5826,3.5811,3.5767,3.5741,3.5737,3.5713,3.5679,3.5674,3.5649,3.5674,3.5713,3.5747,3.5737,3.5751,3.575,3.5735,3.5735,3.5763,3.5811,3.5864,3.5882,3.5889,3.5898,3.5882,3.5911,3.5936,3.5919,3.5939,3.5942,3.5945,3.5947,3.5931,3.5933,3.5933,3.5941,3.5946,3.5946,3.5953,3.5936,3.5949,3.576,3.5741,3.5765,3.5788,3.5769,3.5771,3.5764,3.5792,3.585,3.5853,3.585,3.5799,3.5142,3.4061,3.3736,3.3145,3.2396,3.2264,3.1745,3.0959,3.0902,3.0748,3.0397,2.983,2.949,2.9379,2.88,2.8355,2.8101,2.7827,2.7739,2.7739,2.7752,2.742,2.6865,2.6808,2.6508,2.5907,2.5658,2.5548,2.5521,2.5384,2.5317,2.5351,2.5369,2.5387,2.5372,2.5451,2.5464,2.551,2.6079,2.6923,2.8015,2.8685,2.953,3.0535,3.0665,3.0706,3.0778,3.1579,3.2416,3.3264,3.4082,3.4935,3.5687,3.5882,3.5878,3.5875,3.5872,3.5872,3.5872,3.5864,3.5834,3.5792,3.5783,3.5763,3.5737,3.5694,3.5683,3.5676,3.564,3.5623,3.5623,3.5604,3.5635,3.5665,3.567,3.5662,3.5678,3.5669,3.5679,3.5679,3.5689,3.5732,3.5834,3.5823,3.585,3.5877,3.5877,3.5861,3.5868,3.5872,3.5878,3.5895,3.5885,3.5885,3.5901,3.5905,3.5885,3.5894,3.59,3.5903,3.5908,3.5892,3.5919,3.5612,3.5618,3.5683,3.5693,3.5718,3.5699,3.5713,3.5694,3.5775,3.5775,3.5722,3.5775,3.5703,3.5432,3.4733,3.3966,3.3218,3.3074,3.2546,3.1706,3.1642,3.1193,3.0355,3.0279,3.0241,3.0151,2.9952,2.9549,2.8841,2.8082,2.7616,2.768,2.7774,2.7653,2.7559,2.754,2.7535,2.7268,2.6664,2.6346,2.625,2.5568,2.5264,2.5346,2.5287,2.5293,2.5313,2.5384,2.5421,2.5406,2.5541,2.6307,2.7821,2.8131,2.8965,3.0373,3.0611,3.0637,3.0791,3.151,3.2372,3.3241,3.4038,3.4901,3.5751,3.5872,3.5841,3.5807,3.5815,3.5803,3.5818,3.5799,3.5782,3.5722,3.5713,3.5669,3.5637,3.5615,3.562,3.5616,3.5584,3.5598,3.5598,3.5623,3.5642,3.5687,3.5668,3.5725,3.5873,3.5774,3.5805,3.5836,3.5845,3.5737,3.5747,3.5736,3.576,3.5788,3.5806,3.5825,3.5807,3.5807,3.5838,3.5849,3.5861,3.5864,3.5878,3.5885,3.5885,3.5889,3.5892,3.5895,3.6151,3.5986,3.6129,3.5608,3.5608,3.562,3.5645,3.5631,3.564,3.5651,3.5637,3.5658,3.5664,3.5634,3.5648,3.5626,3.5548,3.5259,3.4679,3.3926,3.384,3.3293,3.2475,3.2404,3.2192,3.1828,3.1288,3.0999,3.0901,3.0421,2.9987,2.9713,2.9336,2.9174,2.9152,2.9137,2.8875,2.8404,2.8302,2.8051,2.7507,2.7165,2.7032,2.7032,2.6735,2.6604,2.6612,2.5719,2.5231,2.5238,2.5253,2.5504,2.6068,2.6106,2.6891,2.852,2.9233,2.9804,3.0434,3.053,3.0549,3.0686,3.142,3.2301,3.3128,3.399,3.4872,3.5564,3.5782,3.5754,3.5745,3.5736,3.5727,3.5732,3.5742,3.5694,3.5669,3.5629,3.5621,3.5601,3.5565,3.554,3.5522,3.5541,3.554,3.5528,3.5547,3.5765,3.6267,3.6382,3.6607,3.7051,3.7199,3.709,3.7186,3.7224,3.7243,3.7249,3.625,3.5708,3.5718,3.5722,3.5747,3.5741,3.5726,3.5754,3.5767,3.5791,3.5826,3.5815,3.5861,3.5861,3.5872,3.5872,3.6246,3.6584,3.6573,3.6907,3.556,3.556,3.5554,3.5573,3.5566,3.5559,3.5546,3.554,3.5519,3.5531,3.5544,3.5526,3.5515,3.5451,3.5424,3.5128,3.4602,3.4544,3.4054,3.3199,3.3153,3.2982,3.2603,3.2049,3.1759,3.1618,3.0855,3.0413,3.0341,3.0132,2.9975,2.9905,2.9924,2.9642,2.9117,2.9025,2.8696,2.8177,2.7867,2.7719,2.7708,2.7474,2.7373,2.7275,2.6407,2.5913,2.596,2.5985,2.6207,2.6761,2.6857,2.7526,2.893,2.9863,3.0374,3.0433,3.0444,3.0588,3.0925,3.1699,3.2613,3.3441,3.4288,3.5097,3.5601,3.5664,3.5679,3.5659,3.5654,3.5658,3.5667,3.5692,3.5643,3.5615,3.5579,3.557,3.5585,3.5528,3.5489,3.5502,3.5501,3.5507,3.5538,3.5769,3.6149,3.6708,3.6965,3.748,3.7917,3.8059,3.8059,3.8059,3.795,3.7925,3.7842,3.7133,3.6439,3.6348,3.6112,3.5987,3.5751,3.5718,3.5684,3.5694,3.5708,3.5722,3.5769,3.5803,3.5838,3.5846,3.62,3.6606,3.6941,3.729,3.7659,3.5519,3.5507,3.5489,3.5495,3.5494,3.5483,3.547,3.5424,3.5417,3.5398,3.5405,3.5398,3.535,3.5304,3.5296,3.5189,3.5048,3.5093,3.4695,3.395,3.3912,3.3517,3.2822,3.2626,3.241,3.2326,3.1517,3.1078,3.1004,3.0344,2.9966,2.9883,2.9835,2.9751,2.9742,2.9604,2.9614,2.9352,2.8743,2.8416,2.8332,2.7769,2.7474,2.7474,2.7366,2.7403,2.7577,2.7495,2.7439,2.7573,2.7606,2.8007,2.8962,2.9772,3.0245,3.0375,3.0369,3.0746,3.1571,3.2436,3.3313,3.4069,3.4993,3.5434,3.5546,3.5596,3.5596,3.559,3.5599,3.5587,3.5581,3.5602,3.5596,3.5614,3.5559,3.5522,3.5502,3.5489,3.5481,3.5488,3.55,3.5519,3.5692,3.6115,3.6661,3.7065,3.7591,3.813,3.8368,3.8452,3.8169,3.8176,3.8467,3.8674,3.838,3.8008,3.7539,3.7109,3.6781,3.651,3.6043,3.5842,3.567,3.5662,3.5664,3.5679,3.5684,3.5718,3.5722,3.5824,3.6353,3.6915,3.7337,3.7739,3.8267,3.5984,3.5439,3.5393,3.536,3.5364,3.536,3.536,3.5345,3.5323,3.5335,3.5327,3.5285,3.5219,3.519,3.5163,3.5124,3.5037,3.5027,3.4865,3.4666,3.4628,3.447,3.4093,3.3535,3.2939,3.242,3.209,3.1911,3.1742,3.1034,3.062,3.0536,3.0048,2.971,2.973,2.9589,2.957,2.9532,2.9269,2.91,2.9139,2.8876,2.8755,2.8876,2.8886,2.8948,2.9001,2.8082,2.7844,2.8334,2.8401,2.8815,2.9591,2.998,3.0402,3.0973,3.1049,3.1434,3.2326,3.3175,3.3805,3.4242,3.4956,3.538,3.5457,3.5464,3.5457,3.5483,3.5509,3.5521,3.554,3.5547,3.5528,3.5521,3.5502,3.5496,3.5489,3.5494,3.5481,3.55,3.55,3.5731,3.6212,3.6673,3.7257,3.8219,3.8681,3.9015,3.9515,3.9534,3.9727,3.9727,3.9723,3.9492,3.9353,3.9187,3.8878,3.8225,3.7693,3.6948,3.6421,3.604,3.5827,3.5612,3.5635,3.5646,3.5651,3.5637,3.5648,3.5905,3.6427,3.7036,3.7657,3.8315,3.8971,3.6365,3.5825,3.5461,3.5297,3.5319,3.5572,3.569,3.5731,3.6031,3.6137,3.6167,3.6122,3.6049,3.6005,3.5959,3.5742,3.542,3.5343,3.5163,3.4955,3.4917,3.4907,3.483,3.4347,3.3789,3.3212,3.2882,3.274,3.2664,3.1864,3.1412,3.1289,3.0865,3.0602,3.0534,3.0406,3.0354,3.0317,2.9983,2.9795,2.9752,2.9508,2.938,2.948,2.9472,2.9522,2.9523,2.8728,2.8526,2.9017,2.9178,2.9486,2.9988,3.0318,3.0787,3.1256,3.1702,3.2194,3.3034,3.3605,3.416,3.4489,3.4975,3.528,3.5326,3.5333,3.5333,3.5374,3.5388,3.5409,3.5423,3.5456,3.5463,3.5463,3.5495,3.5489,3.5488,3.55,3.55,3.5538,3.575,3.6173,3.6558,3.7488,3.7988,3.913,3.9573,3.9823,4.0362,4.0439,4.0496,4.0477,4.0304,4.0227,4.04,4.0304,4.0189,3.9453,3.8679,3.7685,3.6832,3.6473,3.6202,3.5764,3.5633,3.562,3.5626,3.5626,3.5656,3.6095,3.6656,3.7596,3.8434,3.9258,3.9889,3.6784,3.6554,3.579,3.5501,3.5556,3.619,3.6441,3.651,3.7129,3.7424,3.7452,3.7348,3.7376,3.7394,3.7164,3.6773,3.6268,3.6111,3.5656,3.5138,3.4968,3.4958,3.4769,3.4665,3.4521,3.4396,3.3859,3.3546,3.344,3.2603,3.218,3.2161,3.1979,3.2023,3.1794,3.1823,3.1604,3.1444,3.0842,3.0471,3.0445,2.9836,2.9499,2.959,2.9614,2.9696,2.9787,2.9774,2.9777,2.9885,2.9935,3.0063,3.0225,3.0818,3.1335,3.1604,3.2201,3.2949,3.3629,3.3968,3.4262,3.4905,3.5037,3.5132,3.519,3.5198,3.5234,3.5296,3.5407,3.5461,3.548,3.5698,3.572,3.5592,3.5628,3.5538,3.5577,3.5635,3.5769,3.5904,3.6308,3.6827,3.7058,3.8315,3.9008,3.9508,4.0008,4.0323,4.0439,4.0496,4.0496,4.0496,4.0496,4.0496,4.0496,4.0477,4.0362,4.0112,3.9434,3.8645,3.7471,3.6991,3.6305,3.5869,3.574,3.5707,3.5682,3.572,3.5971,3.6428,3.7263,3.8324,3.9134,3.9802,4.0305,3.8004,3.7385,3.7097,3.7003,3.6994,3.7224,3.7271,3.7272,3.7443,3.7632,3.7556,3.747,3.7533,3.7368,3.7385,3.7173,3.7017,3.6895,3.6421,3.5714,3.5625,3.5241,3.481,3.4676,3.4645,3.4577,3.439,3.4293,3.4207,3.3438,3.3081,3.3033,3.2433,3.211,3.1984,3.1935,3.1733,3.1691,3.1438,3.1224,3.1241,3.1003,3.0953,3.0981,3.0949,3.0987,3.1151,3.1289,3.1115,3.0725,3.0685,3.1033,3.1505,3.1854,3.2269,3.2816,3.3147,3.3686,3.4395,3.4622,3.4792,3.4981,3.5046,3.51,3.5108,3.5127,3.5136,3.5276,3.5692,3.6181,3.6283,3.6765,3.7133,3.7159,3.632,3.5846,3.625,3.6404,3.6596,3.7238,3.7507,3.7892,3.843,3.895,3.9573,4.0015,4.0304,4.0496,4.0496,4.0496,4.0496,4.0496,4.0496,4.0496,4.0496,4.0496,4.0477,4.0477,4.0112,3.9754,3.8553,3.7599,3.6636,3.5739,3.6028,3.6093,3.6022,3.5996,3.6393,3.6991,3.7935,3.8982,3.9341,3.9872,4.0301,3.8678,3.8127,3.7738,3.7547,3.7604,3.7878,3.801,3.8076,3.8328,3.842,3.8409,3.8388,3.8356,3.8312,3.8327,3.8079,3.7781,3.7687,3.7194,3.6524,3.6408,3.575,3.4927,3.4623,3.4612,3.4612,3.4612,3.4594,3.4508,3.4113,3.3926,3.3811,3.3301,3.3022,3.3067,3.2781,3.2655,3.2613,3.2262,3.1979,3.2017,3.1642,3.1477,3.1513,3.1537,3.1628,3.1744,3.1846,3.1752,3.1522,3.1487,3.1723,3.2213,3.2637,3.3034,3.3563,3.3865,3.4367,3.4756,3.4927,3.4955,3.4955,3.5001,3.522,3.5466,3.558,3.5628,3.6188,3.6671,3.6925,3.7103,3.7568,3.7867,3.7771,3.7089,3.675,3.7219,3.7257,3.7469,3.793,3.8334,3.8681,3.9284,3.9573,3.9996,4.0342,4.0439,4.0496,4.0496,4.0496,4.0496,4.0496,4.0496,4.0496,4.0496,4.0496,4.0496,4.0496,4.0458,4.0189,3.94,3.8238,3.743,3.6661,3.6577,3.6538,3.6596,3.6827,3.7418,3.8099,3.888,3.9381,3.9765,3.9958,4.0361,3.9023,3.886,3.8059,3.7716,3.7905,3.8447,3.8726,3.8836,3.9282,3.9561,3.9561,3.9644,3.9486,3.9708,3.939,3.9216,3.8526,3.8486,3.7918,3.7392,3.6998,3.6303,3.5281,3.4969,3.4781,3.465,3.4612,3.4612,3.4575,3.4545,3.4575,3.443,3.4323,3.4323,3.4071,3.3975,3.3981,3.369,3.3108,3.2787,3.2676,3.2254,3.2015,3.1991,3.2029,3.2066,3.2125,3.2145,3.221,3.2347,3.2268,3.2357,3.2549,3.3277,3.3599,3.3769,3.4307,3.479,3.5019,3.5133,3.5181,3.5315,3.5324,3.5448,3.614,3.6329,3.6557,3.7119,3.7604,3.7833,3.8098,3.8174,3.8372,3.8458,3.8285,3.8257,3.8238,3.82,3.8161,3.8296,3.9008,3.9323,3.9611,3.9977,4.0496,4.0419,4.0496,4.0496,4.0496,4.0496,4.0496,4.0496,4.0496,4.0496,4.0496,4.0496,4.0496,4.0496,4.0496,4.0285,3.9804,3.8931,3.8354,3.7834,3.7373,3.7327,3.7584,3.795,3.845,3.8823,3.9361,3.9823,4.0227,4.0265,4.0519,3.9772,3.9722,3.9426,3.9307,3.9315,3.9418,3.946,3.9448,3.9606,3.9708,3.9708,3.9708,3.9715,3.9698,3.9705,3.9549,3.9306,3.9214,3.8876,3.8037,3.7324,3.7016,3.6415,3.5972,3.5277,3.4857,3.4631,3.4612,3.4602,3.4612,3.4612,3.4602,3.4517,3.4431,3.4374,3.4233,3.408,3.3974,3.3687,3.3529,3.3476,3.3311,3.3146,3.3159,3.3211,3.3337,3.343,3.3531,3.366,3.3618,3.334,3.3259,3.377,3.4124,3.4317,3.4471,3.4614,3.5049,3.56,3.5818,3.6073,3.6566,3.6577,3.6841,3.6978,3.7072,3.7179,3.7552,3.8087,3.8803,3.9347,3.9733,3.9706,3.9679,3.9765,3.9823,3.9842,3.9381,3.9277,3.9719,3.9996,4.0227,4.0208,4.0265,4.0496,4.0496,4.0496,4.0496,4.0496,4.0496,4.0496,4.0496,4.0496,4.0496,4.0496,4.0496,4.0496,4.0496,4.0496,4.0477,3.9996,3.9631,3.9073,3.8488,3.795,3.8104,3.8527,3.8757,3.9188,3.9496,3.9765,4.0112,4.04,4.0477,4.0512,3.9914,3.99,3.9792,3.9758,3.9747,3.9708,3.9703,3.9703,3.9703,3.9703,3.9703,3.9708,3.9696,3.971,3.971,3.9686,3.9626,3.9602,3.9364,3.8863,3.8425,3.8087,3.7643,3.7174,3.646,3.5439,3.5221,3.5033,3.4714,3.4631,3.4612,3.4602,3.4528,3.4461,3.4386,3.4269,3.4136,3.4011,3.3934,3.3855,3.382,3.3807,3.3807,3.3807,3.3829,3.3873,3.3871,3.3941,3.4043,3.4049,3.3897,3.3926,3.4338,3.4536,3.4767,3.5146,3.5265,3.5692,3.6308,3.6594,3.6774,3.7268,3.7316,3.7535,3.7737,3.7891,3.815,3.8515,3.9062,3.9621,4.012,4.0307,4.0415,4.0449,4.0495,4.0489,4.0419,4.0112,3.9996,4.04,4.0419,4.0458,4.0496,4.0496,4.0496,4.0496,4.0496,4.0496,4.0496,4.0496,4.0496,4.0496,4.0496,4.0496,4.0496,4.0496,4.0496,4.0496,4.0496,4.0496,4.0304,4.0035,3.9765,3.9296,3.8931,3.92,3.9592,3.9785,3.9804,4.0015,4.0227,4.0419,4.0496,4.0496,4.0531,3.9856,3.9781,3.9712,3.9708,3.9708,3.9698,3.9705,3.9705,3.9705,3.9698,3.9698,3.9696,3.9708,3.9708,3.9708,3.9703,3.9686,3.9657,3.952,3.9463,3.9383,3.9019,3.8594,3.8324,3.7753,3.6408,3.6164,3.5732,3.5284,3.4878,3.4994,3.4822,3.458,3.4517,3.4409,3.4293,3.4185,3.4061,3.3959,3.3895,3.3834,3.382,3.3807,3.3807,3.382,3.3981,3.4113,3.4239,3.4278,3.4413,3.4507,3.4593,3.467,3.47,3.4933,3.5738,3.5897,3.6456,3.7091,3.7351,3.7442,3.7555,3.7698,3.7992,3.8512,3.8746,3.9006,3.9432,3.9829,3.9963,4.0196,4.0327,4.0398,4.0432,4.0479,4.0508,4.0496,4.0496,4.0477,4.0477,4.0496,4.0496,4.0496,4.0496,4.0496,4.0496,4.0496,4.0496,4.0496,4.0496,4.0496,4.0496,4.0496,4.0496,4.0496,4.0496,4.0496,4.0496,4.0496,4.0496,4.0496,4.0342,4.015,4.0304,4.0189,4.0246,4.0208,4.0208,4.0285,4.0496,4.0496,4.0496,4.0496,4.0496,4.0539,3.977,3.9712,3.971,3.971,3.9708,3.9698,3.9698,3.9696,3.9696,3.9708,3.9708,3.9701,3.9701,3.972,3.9701,3.9708,3.9715,3.9686,3.9681,3.965,3.9626,3.9407,3.9368,3.9267,3.8839,3.8109,3.7457,3.696,3.6529,3.6174,3.5794,3.5625,3.5082,3.4728,3.4633,3.442,3.4293,3.4161,3.4049,3.3959,3.3881,3.3834,3.388,3.3899,3.3954,3.4266,3.4752,3.4958,3.5294,3.5943,3.6071,3.607,3.5946,3.5677,3.57,3.5948,3.6446,3.7106,3.7841,3.8028,3.8427,3.8921,3.9045,3.9142,3.9385,3.9463,3.9551,3.9735,3.9965,4.0098,4.0177,4.0327,4.0398,4.0413,4.0471,4.0489,4.0496,4.0496,4.0496,4.0496,4.0496,4.0496,4.0496,4.0496,4.0496,4.0496,4.0496,4.0496,4.0496,4.0496,4.0496,4.0496,4.0496,4.0496,4.0496,4.0496,4.0496,4.0496,4.0496,4.0496,4.0496,4.0496,4.0496,4.0496,4.0496,4.0419,4.0439,4.0496,4.0496,4.0496,4.0496,4.0516,4.0496,4.0496,4.0531,3.9727,3.971,3.9705,3.9717,3.971,3.9703,3.9715,3.9701,3.9735,3.9747,3.9758,3.9781,3.9811,3.9811,3.9811,3.98,3.9766,3.9708,3.9703,3.9691,3.9668,3.9668,3.9703,3.9691,3.9512,3.9143,3.8738,3.8029,3.7338,3.6904,3.6688,3.6478,3.5805,3.5348,3.5125,3.4756,3.4483,3.4288,3.4161,3.4036,3.3908,3.3847,3.3972,3.4307,3.4454,3.4857,3.5514,3.5725,3.5951,3.6288,3.6426,3.6468,3.6555,3.671,3.6749,3.6888,3.7243,3.7859,3.8575,3.8814,3.9026,3.9364,3.9533,3.9583,3.9657,3.9672,3.9758,3.99,4.0015,4.0128,4.0187,4.0326,4.0407,4.0458,4.0495,4.0508,4.0496,4.0496,4.0496,4.0496,4.0496,4.0496,4.0496,4.0496,4.0496,4.0496,4.0496,4.0496,4.0496,4.0496,4.0496,4.0496,4.0496,4.0496,4.0496,4.0496,4.0496,4.0496,4.0496,4.0496,4.0496,4.0496,4.0496,4.0496,4.0496,4.0496,4.0496,4.0496,4.0496,4.0516,4.0573,4.0593,4.0535,4.0516,4.0743,3.9705,3.9705,3.9705,3.9698,3.9703,3.972,3.9724,3.9747,3.9811,3.9815,3.9826,3.987,3.9922,3.9922,3.9911,3.9889,3.9815,3.9747,3.9724,3.9712,3.9708,3.9701,3.9724,3.9735,3.9724,3.9735,3.9721,3.9226,3.8275,3.7755,3.7631,3.7385,3.674,3.6273,3.6098,3.5421,3.4884,3.4621,3.4306,3.4136,3.3978,3.4076,3.4339,3.4968,3.5151,3.5679,3.6446,3.6556,3.6717,3.693,3.6996,3.6951,3.7049,3.7542,3.7946,3.8072,3.8135,3.8625,3.9032,3.9277,3.9234,3.938,3.9469,3.952,3.9589,3.9691,3.9792,3.9975,4.0087,4.0157,4.0234,4.0344,4.0424,4.0474,4.0503,4.0496,4.0496,4.0496,4.0496,4.0496,4.0496,4.0496,4.0496,4.0496,4.0496,4.0496,4.0496,4.0496,4.0496,4.0496,4.0496,4.0496,4.0496,4.0496,4.0496,4.0496,4.0496,4.0496,4.0496,4.0496,4.0496,4.0496,4.0496,4.0496,4.0496,4.0496,4.0496,4.0516,4.0496,4.0535,4.065,4.0823,4.0989,4.1316,4.1631,3.9703,3.9705,3.9703,3.9743,3.977,3.9792,3.9834,3.9878,3.9889,3.9889,3.99,3.9954,3.9986,3.9986,3.9986,3.9943,3.9889,3.9815,3.9792,3.9762,3.9747,3.9747,3.9792,3.9856,3.99,3.9965,4.0027,3.9979,3.9378,3.8839,3.8631,3.8431,3.7773,3.7279,3.7132,3.6312,3.5819,3.5567,3.488,3.4338,3.4258,3.475,3.5032,3.5307,3.5807,3.6538,3.7235,3.7401,3.7603,3.819,3.8337,3.8392,3.8462,3.8499,3.8618,3.8708,3.8762,3.8853,3.9031,3.912,3.9188,3.9269,3.9399,3.9501,3.9577,3.9696,3.9848,4.0057,4.0147,4.0206,4.0271,4.0353,4.0413,4.0463,4.0492,4.0489,4.0496,4.0496,4.0496,4.0496,4.0496,4.0496,4.0496,4.0496,4.0496,4.0496,4.0496,4.0496,4.0496,4.0496,4.0496,4.0496,4.0496,4.0496,4.0496,4.0496,4.0496,4.0496,4.0496,4.0496,4.0496,4.0496,4.0496,4.0496,4.0554,4.0669,4.0804,4.0766,4.0593,4.0881,4.1381,4.1566,4.1673,4.2047,4.2431,3.9743,3.9703,3.9724,3.9781,3.9804,3.987,3.9914,3.9954,4.0005,4.0015,4.0015,4.0036,4.0057,4.0057,4.0036,3.9986,3.9962,3.9889,3.9867,3.9848,3.9834,3.9837,3.9911,3.9943,3.9986,4.0048,4.0118,4.0129,3.9957,3.9784,3.9527,3.9384,3.8708,3.8222,3.8127,3.7307,3.6893,3.6567,3.6152,3.5752,3.5664,3.5824,3.6136,3.6448,3.6834,3.7412,3.7933,3.8193,3.8303,3.8689,3.8707,3.8707,3.8689,3.8689,3.8704,3.8735,3.8747,3.8837,3.8921,3.9007,3.9078,3.9156,3.9328,3.9489,3.9595,3.9731,3.99,4.0096,4.0166,4.0253,4.0326,4.0389,4.043,4.0479,4.05,4.0508,4.0496,4.0496,4.0496,4.0496,4.0496,4.0496,4.0496,4.0496,4.0496,4.0496,4.0496,4.0496,4.0496,4.0496,4.0496,4.0496,4.0496,4.0496,4.0496,4.0496,4.0496,4.0496,4.0496,4.0496,4.0496,4.0496,4.0669,4.0873,4.1066,4.1162,4.1219,4.1316,4.1393,4.1797,4.2277,4.2412,4.2519,4.2643,4.2951,3.9826,3.9811,3.9837,3.9848,3.9859,3.9975,4.0017,4.0036,4.0086,4.0106,4.0087,4.0117,4.0127,4.0108,4.0077,4.0046,4.0015,3.9943,3.9911,3.9911,3.9922,3.9935,3.9986,4.0036,4.0087,4.0147,4.0196,4.0224,4.0234,4.0167,4.011,4.0167,3.9538,3.9233,3.8966,3.8347,3.7737,3.7167,3.6968,3.675,3.6696,3.6809,3.7146,3.7493,3.7845,3.8155,3.8609,3.867,3.867,3.8689,3.8707,3.8707,3.8707,3.8707,3.8707,3.8723,3.8723,3.875,3.8837,3.8925,3.9007,3.9106,3.9288,3.9489,3.9654,3.977,3.99,4.0096,4.0186,4.0272,4.0353,4.0415,4.0455,4.0476,4.0489,4.0496,4.0535,4.0669,4.0631,4.0496,4.0496,4.0496,4.0496,4.0496,4.0496,4.0496,4.0496,4.0496,4.0496,4.0496,4.0496,4.0496,4.0496,4.0496,4.0496,4.0496,4.0496,4.0612,4.0612,4.0758,4.0931,4.1046,4.1219,4.1412,4.17,4.2181,4.2566,4.2412,4.2269,4.2566,4.2874,4.322,4.3412,4.3489,4.3682,4.0026,4.0067,4.0026,3.9986,3.9986,4.0057,4.0106,4.0117,4.0098,4.0127,4.0147,4.0166,4.0206,4.0186,4.0176,4.0108,4.0007,3.9977,3.9965,3.9943,3.9965,3.9996,4.0038,4.0118,4.0186,4.0196,4.028,4.0325,4.0351,4.0362,4.0362,4.0313,4.0105,4.0163,3.9897,3.9222,3.8499,3.7933,3.761,3.7396,3.7411,3.756,3.7867,3.7938,3.836,3.8737,3.8792,3.8735,3.8707,3.8707,3.8707,3.8707,3.8707,3.8707,3.8707,3.8707,3.8704,3.8735,3.878,3.8866,3.8935,3.905,3.9248,3.9489,3.9684,3.9823,3.9962,4.0077,4.0196,4.0308,4.0379,4.0449,4.0463,4.055,4.065,4.0843,4.09,4.0997,4.092,4.0612,4.0708,4.1046,4.1131,4.1266,4.0689,4.0631,4.0516,4.0496,4.0496,4.0496,4.0496,4.0496,4.0496,4.0496,4.0496,4.0593,4.0835,4.1027,4.1112,4.1373,4.1662,4.1777,4.1893,4.2297,4.2681,4.3297,4.3778,4.3566,4.3393,4.3316,4.3528,4.4008,4.4355,4.4509,4.4786,4.0067,4.0106,4.0108,4.0098,4.0067,4.0137,4.0157,4.0167,4.0196,4.0253,4.0272,4.0318,4.0309,4.0272,4.0206,4.0167,4.0118,4.0067,4.0027,4.0036,4.0057,4.0077,4.0128,4.0177,4.0225,4.0261,4.037,4.0432,4.0468,4.0455,4.046,4.0452,4.0422,4.0388,4.0161,3.9945,3.9452,3.9193,3.8877,3.8761,3.8655,3.8696,3.8792,3.8665,3.8734,3.8888,3.8837,3.8758,3.875,3.8723,3.8707,3.8704,3.8723,3.8723,3.8723,3.8704,3.8735,3.8765,3.878,3.8866,3.8997,3.9225,3.936,3.9502,3.9696,3.9823,3.9962,4.0087,4.0206,4.0308,4.0398,4.0424,4.0477,4.0619,4.0843,4.1104,4.1393,4.1574,4.1728,4.1643,4.1931,4.2297,4.2258,4.222,4.1439,4.0746,4.0612,4.0535,4.0612,4.0612,4.0631,4.0631,4.065,4.0689,4.0689,4.0931,4.1258,4.145,4.1643,4.2047,4.2431,4.2566,4.2758,4.3181,4.3566,4.397,4.4297,4.4536,4.4528,4.4393,4.4605,4.4989,4.5267,4.5364,4.5479,4.0157,4.0148,4.0187,4.0186,4.0128,4.0196,4.0234,4.0271,4.0326,4.0362,4.0407,4.0407,4.0389,4.0335,4.0289,4.0215,4.0177,4.0138,4.0099,4.0108,4.0118,4.0157,4.0206,4.0243,4.0307,4.037,4.0422,4.0502,4.0507,4.05,4.0481,4.0484,4.0471,4.0447,4.0422,4.0362,4.0262,4.0158,4.0077,3.9889,3.9667,3.9543,3.9421,3.9189,3.9165,3.9027,3.8935,3.8862,3.8807,3.8795,3.878,3.8765,3.8765,3.8765,3.8765,3.878,3.881,3.8837,3.8851,3.8925,3.9068,3.9307,3.9391,3.9508,3.9672,3.9823,3.9922,4.0077,4.0206,4.03,4.0389,4.0432,4.0754,4.0992,4.1316,4.1623,4.2143,4.2431,4.2643,4.2758,4.297,4.2912,4.2874,4.2739,4.2489,4.1862,4.1816,4.1527,4.1143,4.1066,4.0881,4.0854,4.0854,4.0893,4.095,4.1585,4.2162,4.2239,4.247,4.2912,4.3239,4.3374,4.372,4.4248,4.4556,4.4652,4.4825,4.5037,4.5267,4.546,4.5518,4.5441,4.546,4.5498,4.5518,4.0196,4.0279,4.0307,4.0271,4.0234,4.028,4.0344,4.0379,4.0388,4.0396,4.0405,4.0405,4.0415,4.0388,4.0379,4.0335,4.0243,4.0225,4.0187,4.0167,4.0187,4.0196,4.0262,4.0316,4.0388,4.0466,4.0491,4.0495,4.0489,4.0489,4.0496,4.0496,4.0492,4.0473,4.05,4.0499,4.0388,4.0224,4.0196,4.0048,3.9922,3.9762,3.9611,3.9477,3.933,3.9178,3.9087,3.8974,3.8921,3.891,3.8877,3.8877,3.8877,3.8896,3.8896,3.891,3.891,3.8925,3.8906,3.8964,3.9166,3.936,3.9431,3.9521,3.9672,3.98,3.9911,4.0077,4.0177,4.0262,4.0362,4.0556,4.1048,4.1445,4.178,4.2412,4.2951,4.3508,4.3739,4.3893,4.347,4.3162,4.3181,4.3201,4.3278,4.3124,4.3066,4.2643,4.197,4.172,4.1566,4.1546,4.1566,4.1662,4.1912,4.2585,4.3047,4.3085,4.3374,4.3874,4.4124,4.4267,4.469,4.5248,4.5267,4.5133,4.5325,4.5537,4.5594,4.5594,4.5594,4.5556,4.5594,4.5594,4.5594,3.982,4.037,4.037,4.0379,4.0388,4.0389,4.0415,4.0458,4.0471,4.0468,4.0468,4.0468,4.0463,4.0466,4.0458,4.0413,4.0353,4.0344,4.0308,4.0299,4.0316,4.0335,4.0362,4.0424,4.0474,4.0491,4.0487,4.0492,4.0496,4.0496,4.0496,4.0496,4.0496,4.0496,4.05,4.0487,4.0449,4.0379,4.029,4.0158,4.0087,3.9914,3.9762,3.9647,3.9477,3.935,3.9245,3.9142,3.9087,3.9045,3.9045,3.9045,3.9045,3.9045,3.9031,3.9064,3.9078,3.9152,3.9207,3.9275,3.9322,3.9419,3.9483,3.9552,3.9689,3.9823,3.9951,4.0067,4.0157,4.0244,4.0307,4.1001,4.1524,4.1901,4.2398,4.3327,4.4008,4.4586,4.497,4.5017,4.4786,4.4594,4.4528,4.4239,4.4201,4.4028,4.3912,4.3393,4.2739,4.2662,4.2585,4.2566,4.2585,4.2624,4.2893,4.3489,4.3855,4.3932,4.4374,4.4979,4.5152,4.5017,4.5171,4.546,4.5537,4.5594,4.5594,4.5594,4.5594,4.5594,4.5594,4.5594,4.5594,4.5594,4.5594,3.944,4.001,4.0317,4.0466,4.0499,4.0458,4.0466,4.0507,4.05,4.0496,4.0496,4.0523,4.0535,4.0538,4.0519,4.0511,4.0463,4.0482,4.0447,4.0447,4.0455,4.0463,4.0491,4.0526,4.0531,4.0538,4.05,4.0496,4.0496,4.0496,4.0496,4.0496,4.0496,4.0496,4.05,4.0503,4.0499,4.0458,4.0381,4.0281,4.0177,4.0049,3.9935,3.9785,3.9658,3.9532,3.9408,3.9337,3.9304,3.9245,3.9232,3.9213,3.9232,3.9232,3.9232,3.9259,3.9272,3.9375,3.9439,3.9464,3.9483,3.9552,3.9539,3.9599,3.9712,3.9804,3.9933,4.0057,4.0147,4.0215,4.0423,4.1204,4.1899,4.2268,4.3137,4.4077,4.4759,4.5325,4.5421,4.5537,4.5575,4.5594,4.5594,4.5498,4.5229,4.4979,4.4701,4.4105,4.3566,4.3528,4.3451,4.3335,4.3431,4.3489,4.3758,4.4297,4.4586,4.4739,4.5133,4.5575,4.5556,4.5344,4.5498,4.5594,4.5594,4.5594,4.5594,4.5594,4.5594,4.5594,4.5594,4.5594,4.5594,4.5594,4.5594,3.9098,3.9322,4.0098,4.0449,4.05,4.0499,4.0487,4.0496,4.0496,4.0496,4.0504,4.0554,4.0588,4.0595,4.0586,4.0598,4.0588,4.0607,4.0573,4.0539,4.0573,4.058,4.06,4.06,4.0573,4.0565,4.0539,4.0504,4.0496,4.0496,4.0496,4.0496,4.0496,4.0496,4.0489,4.0508,4.0503,4.0491,4.0458,4.037,4.0271,4.0196,4.008,3.9956,3.9848,3.9739,3.9647,3.9563,3.9526,3.9514,3.9514,3.9495,3.9495,3.9514,3.9514,3.9495,3.9508,3.9563,3.9618,3.963,3.9647,3.9701,3.9677,3.9724,3.977,3.9848,3.9975,4.0067,4.0147,4.0196,4.0376,4.1281,4.2167,4.2921,4.3799,4.4586,4.5267,4.5556,4.5556,4.5594,4.5594,4.5594,4.5594,4.5594,4.5594,4.5441,4.5152,4.494,4.4479,4.4382,4.422,4.3893,4.4028,4.4316,4.4643,4.4979,4.5094,4.5152,4.5267,4.5594,4.5594,4.5594,4.5594,4.5594,4.5594,4.5594,4.5594,4.5594,4.5594,4.5594,4.5594,4.5594,4.5594,4.5594,4.5594,3.8128,3.9262,3.955,3.9969,4.045,4.05,4.05,4.0496,4.0558,4.0573,4.0592,4.0579,4.0593,4.0593,4.0588,4.064,4.0666,4.0686,4.0668,4.0661,4.068,4.0673,4.066,4.0626,4.0605,4.0576,4.0561,4.0539,4.0504,4.0496,4.0496,4.0496,4.0496,4.0496,4.0496,4.0496,4.05,4.0503,4.0507,4.0458,4.0407,4.0316,4.0225,4.0109,4.0038,3.9946,3.987,3.9804,3.9781,3.9781,3.9781,3.9781,3.9781,3.9781,3.9781,3.9781,3.9781,3.9811,3.9834,3.9878,3.9881,3.9903,3.9914,3.9881,3.9922,3.9954,4.0057,4.0108,4.0147,4.0215,4.0672,4.151,4.2291,4.3064,4.4049,4.5028,4.5594,4.5594,4.5594,4.5594,4.5594,4.5594,4.5594,4.5594,4.5594,4.5594,4.5537,4.5364,4.5248,4.5075,4.494,4.4586,4.4605,4.4874,4.5086,4.5383,4.5479,4.5556,4.5594,4.5594,4.5594,4.5594,4.5594,4.5594,4.5594,4.5594,4.5594,4.5594,4.5594,4.5594,4.5594,4.5594,4.5594,4.5594,4.5594,3.7312,3.8296,3.9027,3.9765,4.0419,4.0512,4.0558,4.0539,4.0592,4.0595,4.0598,4.0609,4.0636,4.0642,4.0668,4.0713,4.0725,4.0745,4.0751,4.0738,4.0751,4.0745,4.0732,4.0675,4.0648,4.0614,4.0591,4.0573,4.0577,4.0516,4.0496,4.0496,4.0496,4.0516,4.0496,4.0496,4.0496,4.05,4.0503,4.0507,4.0466,4.0424,4.0353,4.0262,4.0206,4.0138,4.0078,4.0017,4.0026,4.0007,4.0026,4.0017,4.0027,4.0019,4.0008,4.0008,4.0008,4.0019,4.0029,4.0049,4.0059,4.0099,4.0128,4.0109,4.0089,4.0089,4.0128,4.0176,4.0215,4.0358,4.1025,4.171,4.2349,4.3026,4.4233,4.546,4.5594,4.5594,4.5594,4.5594,4.5594,4.5594,4.5594,4.5594,4.5594,4.5594,4.5594,4.5537,4.5479,4.5421,4.5364,4.521,4.5287,4.546,4.5594,4.5594,4.5594,4.5594,4.5594,4.5594,4.5594,4.5594,4.5594,4.5594,4.5594,4.5594,4.5594,4.5594,4.5594,4.5594,4.5594,4.5594,4.5594,4.5594,4.5594,3.6635,3.6923,3.8565,3.9765,4.0466,4.0573,4.0588,4.0603,4.061,4.0624,4.0615,4.0675,4.0706,4.0712,4.0742,4.0771,4.0796,4.0815,4.0801,4.0812,4.0801,4.0815,4.0779,4.0736,4.0694,4.0681,4.0673,4.0714,4.0792,4.0993,4.115,4.0708,4.09,4.1073,4.115,4.1131,4.1208,4.1219,4.1077,4.0992,4.0603,4.0482,4.0449,4.0362,4.0326,4.028,4.0225,4.0215,4.0215,4.0215,4.0206,4.0196,4.0206,4.0205,4.0205,4.0205,4.0196,4.0206,4.0206,4.0225,4.0205,4.0243,4.028,4.028,4.0234,4.0215,4.0225,4.0263,4.0272,4.0308,4.0811,4.1918,4.2768,4.3427,4.4395,4.5278,4.5594,4.5594,4.5594,4.5594,4.5594,4.5594,4.5594,4.5594,4.5594,4.5594,4.5594,4.5594,4.5594,4.5594,4.5594,4.5594,4.5594,4.5594,4.5594,4.5594,4.5594,4.5594,4.5594,4.5594,4.5594,4.5594,4.5594,4.5594,4.5594,4.5594,4.5594,4.5594,4.5594,4.5594,4.5594,4.5594,4.5594,4.5594,4.5594,3.6154,3.6846,3.8565,3.98,4.0515,4.058,4.0646,4.0675,4.0675,4.0662,4.0687,4.0756,4.0784,4.0771,4.0801,4.0823,4.0853,4.0858,4.0868,4.0873,4.0868,4.0858,4.0848,4.0801,4.0767,4.0725,4.0752,4.1065,4.1559,4.2021,4.2401,4.2393,4.2297,4.22,4.22,4.222,4.22,4.2124,4.2104,4.1566,4.0857,4.0588,4.0468,4.0447,4.0441,4.0415,4.0372,4.0354,4.0354,4.0363,4.0363,4.0344,4.0372,4.0353,4.0353,4.0334,4.0351,4.0351,4.0351,4.0351,4.0351,4.0342,4.037,4.037,4.0362,4.0335,4.0326,4.0335,4.0353,4.0388,4.0778,4.201,4.3101,4.3771,4.4519,4.5066,4.5594,4.5594,4.5594,4.5594,4.5594,4.5594,4.5594,4.5594,4.5594,4.5594,4.5594,4.5594,4.5594,4.5594,4.5594,4.5594,4.5594,4.5594,4.5594,4.5594,4.5594,4.5594,4.5594,4.5594,4.5594,4.5594,4.5594,4.5594,4.5594,4.5594,4.5594,4.5594,4.5594,4.5594,4.5594,4.5594,4.5594,4.5594,4.5594,3.575,3.6392,3.8029,3.9271,4.0039,4.0472,4.0681,4.07,4.0756,4.0792,4.0798,4.0826,4.0842,4.0828,4.0858,4.0863,4.0898,4.0883,4.0893,4.0898,4.0893,4.0888,4.0873,4.0839,4.0832,4.0831,4.1222,4.1685,4.2441,4.271,4.2994,4.317,4.3162,4.3181,4.3162,4.3124,4.3162,4.3047,4.3181,4.2566,4.1527,4.1335,4.0835,4.0707,4.0507,4.0502,4.0477,4.0441,4.0441,4.0449,4.0438,4.0471,4.0479,4.0479,4.0476,4.0492,4.05,4.0492,4.0484,4.0476,4.0495,4.0476,4.0479,4.0495,4.0487,4.0444,4.0377,4.0405,4.0432,4.0477,4.0927,4.194,4.2753,4.3462,4.4547,4.5421,4.5594,4.5594,4.5594,4.5594,4.5594,4.5594,4.5594,4.5594,4.5594,4.5594,4.5594,4.5594,4.5594,4.5594,4.5594,4.5594,4.5594,4.5594,4.5594,4.5594,4.5594,4.5594,4.5594,4.5594,4.5594,4.5594,4.5594,4.5594,4.5594,4.5594,4.5594,4.5594,4.5594,4.5594,4.5594,4.5594,4.5594,4.5586,4.5577,3.5591,3.5905,3.7294,3.8523,3.9444,4.0204,4.059,4.075,4.0851,4.0883,4.0888,4.0888,4.0888,4.0898,4.0893,4.0903,4.0883,4.0898,4.0888,4.0888,4.0888,4.0903,4.0893,4.0883,4.0999,4.1505,4.2085,4.2672,4.3339,4.3628,4.3761,4.3487,4.3421,4.3451,4.3412,4.347,4.3662,4.3758,4.3758,4.3489,4.2951,4.2442,4.172,4.1143,4.0719,4.0684,4.068,4.0548,4.0548,4.0507,4.0511,4.0535,4.0558,4.0565,4.0557,4.0571,4.0571,4.0559,4.0566,4.0559,4.0566,4.0566,4.0591,4.0595,4.058,4.0569,4.0515,4.0548,4.0575,4.0779,4.1256,4.1918,4.2692,4.3489,4.4671,4.5594,4.5594,4.5594,4.5594,4.5594,4.5594,4.5594,4.5594,4.5594,4.5594,4.5594,4.5594,4.5594,4.5594,4.5594,4.5594,4.5594,4.5594,4.5594,4.5594,4.5594,4.5594,4.5594,4.5594,4.5594,4.5594,4.5594,4.5594,4.5594,4.5594,4.5594,4.5594,4.5594,4.5594,4.5586,4.5577,4.5568,4.554,4.554,4.554,3.5913,3.6588,3.6942,3.7971,3.936,3.9675,4.0142,4.0798,4.0872,4.0898,4.0913,4.0898,4.0898,4.0898,4.0903,4.0888,4.0888,4.0888,4.0888,4.0888,4.0888,4.0888,4.0961,4.1112,4.1388,4.2142,4.3111,4.4033,4.4298,4.4778,4.5115,4.501,4.5007,4.5017,4.5037,4.4998,4.4844,4.4806,4.4748,4.4633,4.3932,4.3412,4.2931,4.2412,4.1931,4.1712,4.1423,4.0846,4.0615,4.0516,4.0539,4.058,4.061,4.0612,4.0614,4.0622,4.0622,4.0622,4.0629,4.0629,4.0629,4.0622,4.064,4.0684,4.0696,4.074,4.0754,4.0877,4.0947,4.1127,4.1615,4.25,4.3297,4.4066,4.5094,4.5441,4.5594,4.5594,4.5594,4.5594,4.5594,4.5594,4.5594,4.5594,4.5594,4.5594,4.5594,4.5594,4.5594,4.5594,4.5594,4.5594,4.5594,4.5594,4.5594,4.5594,4.5594,4.5594,4.5594,4.5594,4.5594,4.5594,4.5594,4.5594,4.5594,4.5594,4.5594,4.5586,4.5586,4.5577,4.5522,4.5513,4.5504,4.5485,4.5495]}]]